<?xml version="1.0" encoding="UTF-8" standalone="no" ?>
<gpx xmlns="http://www.topografix.com/GPX/1/1" xmlns:xsi="http://www.w3.org/2001/XMLSchema-instance" xsi:schemaLocation="http://www.topografix.com/GPX/1/1 http://www.topografix.com/GPX/1/1/gpx.xsd" version="1.1" creator="VisuGPX - https://www.visugpx.com">
  <metadata>
    <name>les_ollières3</name>
  </metadata>
  <trk>
    <name><![CDATA[les_ollières3_2]]></name>
    <trkseg>
      <trkpt lat="46.13295" lon="6.2681">
        <ele>528</ele>
        <time>2018-05-11T06:51:06Z</time>
      </trkpt>
      <trkpt lat="46.13293" lon="6.26829">
        <ele>531</ele>
        <time>2018-05-11T06:51:08Z</time>
      </trkpt>
      <trkpt lat="46.1329" lon="6.26847">
        <ele>532</ele>
        <time>2018-05-11T06:51:10Z</time>
      </trkpt>
      <trkpt lat="46.13273" lon="6.26869">
        <ele>533</ele>
        <time>2018-05-11T06:51:13Z</time>
      </trkpt>
      <trkpt lat="46.13264" lon="6.26876">
        <ele>535</ele>
        <time>2018-05-11T06:51:15Z</time>
      </trkpt>
      <trkpt lat="46.13259" lon="6.26878">
        <ele>535</ele>
        <time>2018-05-11T06:51:16Z</time>
      </trkpt>
      <trkpt lat="46.13256" lon="6.26882">
        <ele>534</ele>
        <time>2018-05-11T06:51:17Z</time>
      </trkpt>
      <trkpt lat="46.13249" lon="6.26894">
        <ele>533</ele>
        <time>2018-05-11T06:51:19Z</time>
      </trkpt>
      <trkpt lat="46.13243" lon="6.26903">
        <ele>530</ele>
        <time>2018-05-11T06:51:21Z</time>
      </trkpt>
      <trkpt lat="46.13228" lon="6.26917">
        <ele>532</ele>
        <time>2018-05-11T06:51:24Z</time>
      </trkpt>
      <trkpt lat="46.13224" lon="6.26924">
        <ele>532</ele>
        <time>2018-05-11T06:51:25Z</time>
      </trkpt>
      <trkpt lat="46.13221" lon="6.26933">
        <ele>534</ele>
        <time>2018-05-11T06:51:26Z</time>
      </trkpt>
      <trkpt lat="46.1321" lon="6.26947">
        <ele>533</ele>
        <time>2018-05-11T06:51:29Z</time>
      </trkpt>
      <trkpt lat="46.13207" lon="6.26955">
        <ele>532</ele>
        <time>2018-05-11T06:51:30Z</time>
      </trkpt>
      <trkpt lat="46.13194" lon="6.26969">
        <ele>532</ele>
        <time>2018-05-11T06:51:33Z</time>
      </trkpt>
      <trkpt lat="46.13189" lon="6.26977">
        <ele>534</ele>
        <time>2018-05-11T06:51:34Z</time>
      </trkpt>
      <trkpt lat="46.13177" lon="6.26989">
        <ele>539</ele>
        <time>2018-05-11T06:51:36Z</time>
      </trkpt>
      <trkpt lat="46.13174" lon="6.26992">
        <ele>537</ele>
        <time>2018-05-11T06:51:37Z</time>
      </trkpt>
      <trkpt lat="46.13168" lon="6.26996">
        <ele>537</ele>
        <time>2018-05-11T06:51:38Z</time>
      </trkpt>
      <trkpt lat="46.13165" lon="6.27002">
        <ele>537</ele>
        <time>2018-05-11T06:51:39Z</time>
      </trkpt>
      <trkpt lat="46.1316" lon="6.27006">
        <ele>538</ele>
        <time>2018-05-11T06:51:40Z</time>
      </trkpt>
      <trkpt lat="46.13148" lon="6.27012">
        <ele>537</ele>
        <time>2018-05-11T06:51:42Z</time>
      </trkpt>
      <trkpt lat="46.13143" lon="6.27016">
        <ele>536</ele>
        <time>2018-05-11T06:51:43Z</time>
      </trkpt>
      <trkpt lat="46.13133" lon="6.27022">
        <ele>535</ele>
        <time>2018-05-11T06:51:45Z</time>
      </trkpt>
      <trkpt lat="46.13119" lon="6.27029">
        <ele>536</ele>
        <time>2018-05-11T06:51:48Z</time>
      </trkpt>
      <trkpt lat="46.13113" lon="6.2703">
        <ele>536</ele>
        <time>2018-05-11T06:51:49Z</time>
      </trkpt>
      <trkpt lat="46.13103" lon="6.27034">
        <ele>537</ele>
        <time>2018-05-11T06:51:51Z</time>
      </trkpt>
      <trkpt lat="46.13098" lon="6.27039">
        <ele>537</ele>
        <time>2018-05-11T06:51:52Z</time>
      </trkpt>
      <trkpt lat="46.13088" lon="6.27042">
        <ele>538</ele>
        <time>2018-05-11T06:51:54Z</time>
      </trkpt>
      <trkpt lat="46.13071" lon="6.27046">
        <ele>538</ele>
        <time>2018-05-11T06:51:57Z</time>
      </trkpt>
      <trkpt lat="46.13066" lon="6.27049">
        <ele>538</ele>
        <time>2018-05-11T06:51:58Z</time>
      </trkpt>
      <trkpt lat="46.13057" lon="6.2705">
        <ele>537</ele>
        <time>2018-05-11T06:52:00Z</time>
      </trkpt>
      <trkpt lat="46.13053" lon="6.27054">
        <ele>536</ele>
        <time>2018-05-11T06:52:01Z</time>
      </trkpt>
      <trkpt lat="46.13049" lon="6.2706">
        <ele>537</ele>
        <time>2018-05-11T06:52:02Z</time>
      </trkpt>
      <trkpt lat="46.13048" lon="6.27067">
        <ele>537</ele>
        <time>2018-05-11T06:52:03Z</time>
      </trkpt>
      <trkpt lat="46.13048" lon="6.27074">
        <ele>537</ele>
        <time>2018-05-11T06:52:04Z</time>
      </trkpt>
      <trkpt lat="46.13047" lon="6.27082">
        <ele>535</ele>
        <time>2018-05-11T06:52:06Z</time>
      </trkpt>
      <trkpt lat="46.13047" lon="6.27085">
        <ele>535</ele>
        <time>2018-05-11T06:52:08Z</time>
      </trkpt>
      <trkpt lat="46.13047" lon="6.27093">
        <ele>533</ele>
        <time>2018-05-11T06:53:55Z</time>
      </trkpt>
      <trkpt lat="46.13044" lon="6.27103">
        <ele>536</ele>
        <time>2018-05-11T06:54:00Z</time>
      </trkpt>
      <trkpt lat="46.13043" lon="6.27107">
        <ele>536</ele>
        <time>2018-05-11T06:54:01Z</time>
      </trkpt>
      <trkpt lat="46.13033" lon="6.27118">
        <ele>535</ele>
        <time>2018-05-11T06:54:03Z</time>
      </trkpt>
      <trkpt lat="46.13018" lon="6.27136">
        <ele>536</ele>
        <time>2018-05-11T06:54:08Z</time>
      </trkpt>
      <trkpt lat="46.13006" lon="6.27149">
        <ele>537</ele>
        <time>2018-05-11T06:54:11Z</time>
      </trkpt>
      <trkpt lat="46.12995" lon="6.27162">
        <ele>538</ele>
        <time>2018-05-11T06:54:14Z</time>
      </trkpt>
      <trkpt lat="46.12983" lon="6.27177">
        <ele>537</ele>
        <time>2018-05-11T06:54:17Z</time>
      </trkpt>
      <trkpt lat="46.12977" lon="6.27188">
        <ele>535</ele>
        <time>2018-05-11T06:54:19Z</time>
      </trkpt>
      <trkpt lat="46.12966" lon="6.27201">
        <ele>536</ele>
        <time>2018-05-11T06:54:22Z</time>
      </trkpt>
      <trkpt lat="46.12962" lon="6.27207">
        <ele>535</ele>
        <time>2018-05-11T06:54:23Z</time>
      </trkpt>
      <trkpt lat="46.12954" lon="6.27216">
        <ele>536</ele>
        <time>2018-05-11T06:54:25Z</time>
      </trkpt>
      <trkpt lat="46.12951" lon="6.27222">
        <ele>535</ele>
        <time>2018-05-11T06:54:26Z</time>
      </trkpt>
      <trkpt lat="46.12943" lon="6.27233">
        <ele>535</ele>
        <time>2018-05-11T06:54:28Z</time>
      </trkpt>
      <trkpt lat="46.12934" lon="6.27243">
        <ele>538</ele>
        <time>2018-05-11T06:54:30Z</time>
      </trkpt>
      <trkpt lat="46.12926" lon="6.27257">
        <ele>539</ele>
        <time>2018-05-11T06:54:32Z</time>
      </trkpt>
      <trkpt lat="46.12913" lon="6.27273">
        <ele>540</ele>
        <time>2018-05-11T06:54:35Z</time>
      </trkpt>
      <trkpt lat="46.12909" lon="6.27278">
        <ele>540</ele>
        <time>2018-05-11T06:54:36Z</time>
      </trkpt>
      <trkpt lat="46.12906" lon="6.27284">
        <ele>539</ele>
        <time>2018-05-11T06:54:37Z</time>
      </trkpt>
      <trkpt lat="46.12902" lon="6.27289">
        <ele>539</ele>
        <time>2018-05-11T06:54:38Z</time>
      </trkpt>
      <trkpt lat="46.12898" lon="6.27296">
        <ele>538</ele>
        <time>2018-05-11T06:54:39Z</time>
      </trkpt>
      <trkpt lat="46.12885" lon="6.27311">
        <ele>538</ele>
        <time>2018-05-11T06:54:42Z</time>
      </trkpt>
      <trkpt lat="46.12869" lon="6.2733">
        <ele>540</ele>
        <time>2018-05-11T06:54:46Z</time>
      </trkpt>
      <trkpt lat="46.12856" lon="6.27346">
        <ele>540</ele>
        <time>2018-05-11T06:54:49Z</time>
      </trkpt>
      <trkpt lat="46.12854" lon="6.27352">
        <ele>539</ele>
        <time>2018-05-11T06:54:50Z</time>
      </trkpt>
      <trkpt lat="46.12844" lon="6.27371">
        <ele>538</ele>
        <time>2018-05-11T06:54:53Z</time>
      </trkpt>
      <trkpt lat="46.12833" lon="6.27389">
        <ele>540</ele>
        <time>2018-05-11T06:54:56Z</time>
      </trkpt>
      <trkpt lat="46.1283" lon="6.27397">
        <ele>541</ele>
        <time>2018-05-11T06:54:57Z</time>
      </trkpt>
      <trkpt lat="46.12823" lon="6.27419">
        <ele>542</ele>
        <time>2018-05-11T06:55:00Z</time>
      </trkpt>
      <trkpt lat="46.12819" lon="6.27435">
        <ele>541</ele>
        <time>2018-05-11T06:55:02Z</time>
      </trkpt>
      <trkpt lat="46.12801" lon="6.27448">
        <ele>541</ele>
        <time>2018-05-11T06:55:05Z</time>
      </trkpt>
      <trkpt lat="46.12784" lon="6.27471">
        <ele>540</ele>
        <time>2018-05-11T06:55:09Z</time>
      </trkpt>
      <trkpt lat="46.12769" lon="6.27482">
        <ele>542</ele>
        <time>2018-05-11T06:55:12Z</time>
      </trkpt>
      <trkpt lat="46.12746" lon="6.2749">
        <ele>540</ele>
        <time>2018-05-11T06:55:16Z</time>
      </trkpt>
      <trkpt lat="46.12742" lon="6.27492">
        <ele>540</ele>
        <time>2018-05-11T06:55:17Z</time>
      </trkpt>
      <trkpt lat="46.12737" lon="6.27493">
        <ele>539</ele>
        <time>2018-05-11T06:55:18Z</time>
      </trkpt>
      <trkpt lat="46.12732" lon="6.27495">
        <ele>539</ele>
        <time>2018-05-11T06:55:19Z</time>
      </trkpt>
      <trkpt lat="46.12721" lon="6.27497">
        <ele>540</ele>
        <time>2018-05-11T06:55:21Z</time>
      </trkpt>
      <trkpt lat="46.12706" lon="6.27501">
        <ele>539</ele>
        <time>2018-05-11T06:55:24Z</time>
      </trkpt>
      <trkpt lat="46.127" lon="6.27503">
        <ele>538</ele>
        <time>2018-05-11T06:55:25Z</time>
      </trkpt>
      <trkpt lat="46.12685" lon="6.27511">
        <ele>537</ele>
        <time>2018-05-11T06:55:28Z</time>
      </trkpt>
      <trkpt lat="46.1268" lon="6.27514">
        <ele>537</ele>
        <time>2018-05-11T06:55:29Z</time>
      </trkpt>
      <trkpt lat="46.12669" lon="6.2752">
        <ele>536</ele>
        <time>2018-05-11T06:55:31Z</time>
      </trkpt>
      <trkpt lat="46.12655" lon="6.27532">
        <ele>535</ele>
        <time>2018-05-11T06:55:34Z</time>
      </trkpt>
      <trkpt lat="46.12649" lon="6.27537">
        <ele>536</ele>
        <time>2018-05-11T06:55:35Z</time>
      </trkpt>
      <trkpt lat="46.12635" lon="6.27553">
        <ele>535</ele>
        <time>2018-05-11T06:55:38Z</time>
      </trkpt>
      <trkpt lat="46.12632" lon="6.2756">
        <ele>535</ele>
        <time>2018-05-11T06:55:39Z</time>
      </trkpt>
      <trkpt lat="46.12622" lon="6.27573">
        <ele>534</ele>
        <time>2018-05-11T06:55:41Z</time>
      </trkpt>
      <trkpt lat="46.1261" lon="6.27592">
        <ele>535</ele>
        <time>2018-05-11T06:55:44Z</time>
      </trkpt>
      <trkpt lat="46.12608" lon="6.27601">
        <ele>533</ele>
        <time>2018-05-11T06:55:45Z</time>
      </trkpt>
      <trkpt lat="46.12596" lon="6.27632">
        <ele>534</ele>
        <time>2018-05-11T06:55:49Z</time>
      </trkpt>
      <trkpt lat="46.12592" lon="6.27649">
        <ele>534</ele>
        <time>2018-05-11T06:55:51Z</time>
      </trkpt>
      <trkpt lat="46.12584" lon="6.27687">
        <ele>536</ele>
        <time>2018-05-11T06:55:55Z</time>
      </trkpt>
      <trkpt lat="46.12578" lon="6.27704">
        <ele>533</ele>
        <time>2018-05-11T06:55:57Z</time>
      </trkpt>
      <trkpt lat="46.12567" lon="6.27717">
        <ele>532</ele>
        <time>2018-05-11T06:55:59Z</time>
      </trkpt>
      <trkpt lat="46.12555" lon="6.2773">
        <ele>533</ele>
        <time>2018-05-11T06:56:01Z</time>
      </trkpt>
      <trkpt lat="46.12546" lon="6.27741">
        <ele>534</ele>
        <time>2018-05-11T06:56:03Z</time>
      </trkpt>
      <trkpt lat="46.12537" lon="6.2775">
        <ele>533</ele>
        <time>2018-05-11T06:56:05Z</time>
      </trkpt>
      <trkpt lat="46.12518" lon="6.27762">
        <ele>533</ele>
        <time>2018-05-11T06:56:08Z</time>
      </trkpt>
      <trkpt lat="46.12512" lon="6.27767">
        <ele>537</ele>
        <time>2018-05-11T06:56:09Z</time>
      </trkpt>
      <trkpt lat="46.1248" lon="6.27769">
        <ele>537</ele>
        <time>2018-05-11T06:56:14Z</time>
      </trkpt>
      <trkpt lat="46.12443" lon="6.27768">
        <ele>536</ele>
        <time>2018-05-11T06:56:20Z</time>
      </trkpt>
      <trkpt lat="46.12424" lon="6.27765">
        <ele>536</ele>
        <time>2018-05-11T06:56:23Z</time>
      </trkpt>
      <trkpt lat="46.12406" lon="6.27764">
        <ele>537</ele>
        <time>2018-05-11T06:56:26Z</time>
      </trkpt>
      <trkpt lat="46.12395" lon="6.27763">
        <ele>538</ele>
        <time>2018-05-11T06:56:28Z</time>
      </trkpt>
      <trkpt lat="46.12378" lon="6.27763">
        <ele>537</ele>
        <time>2018-05-11T06:56:31Z</time>
      </trkpt>
      <trkpt lat="46.12367" lon="6.27763">
        <ele>537</ele>
        <time>2018-05-11T06:56:33Z</time>
      </trkpt>
      <trkpt lat="46.1235" lon="6.27759">
        <ele>536</ele>
        <time>2018-05-11T06:56:36Z</time>
      </trkpt>
      <trkpt lat="46.12344" lon="6.27759">
        <ele>535</ele>
        <time>2018-05-11T06:56:37Z</time>
      </trkpt>
      <trkpt lat="46.12326" lon="6.27756">
        <ele>537</ele>
        <time>2018-05-11T06:56:40Z</time>
      </trkpt>
      <trkpt lat="46.12315" lon="6.27757">
        <ele>538</ele>
        <time>2018-05-11T06:56:42Z</time>
      </trkpt>
      <trkpt lat="46.1231" lon="6.27759">
        <ele>538</ele>
        <time>2018-05-11T06:56:43Z</time>
      </trkpt>
      <trkpt lat="46.12295" lon="6.27769">
        <ele>538</ele>
        <time>2018-05-11T06:56:46Z</time>
      </trkpt>
      <trkpt lat="46.12282" lon="6.27778">
        <ele>538</ele>
        <time>2018-05-11T06:56:49Z</time>
      </trkpt>
      <trkpt lat="46.12268" lon="6.27783">
        <ele>540</ele>
        <time>2018-05-11T06:56:53Z</time>
      </trkpt>
      <trkpt lat="46.12266" lon="6.27784">
        <ele>538</ele>
        <time>2018-05-11T06:56:54Z</time>
      </trkpt>
      <trkpt lat="46.12255" lon="6.27786">
        <ele>540</ele>
        <time>2018-05-11T06:56:59Z</time>
      </trkpt>
      <trkpt lat="46.12229" lon="6.27786">
        <ele>543</ele>
        <time>2018-05-11T06:57:07Z</time>
      </trkpt>
      <trkpt lat="46.12212" lon="6.27784">
        <ele>544</ele>
        <time>2018-05-11T06:57:10Z</time>
      </trkpt>
      <trkpt lat="46.12187" lon="6.27783">
        <ele>545</ele>
        <time>2018-05-11T06:57:17Z</time>
      </trkpt>
      <trkpt lat="46.12168" lon="6.27785">
        <ele>546</ele>
        <time>2018-05-11T06:57:22Z</time>
      </trkpt>
      <trkpt lat="46.12136" lon="6.27785">
        <ele>547</ele>
        <time>2018-05-11T06:57:30Z</time>
      </trkpt>
      <trkpt lat="46.12128" lon="6.27785">
        <ele>547</ele>
        <time>2018-05-11T06:57:32Z</time>
      </trkpt>
      <trkpt lat="46.1211" lon="6.27785">
        <ele>549</ele>
        <time>2018-05-11T06:57:36Z</time>
      </trkpt>
      <trkpt lat="46.12097" lon="6.27788">
        <ele>549</ele>
        <time>2018-05-11T06:57:39Z</time>
      </trkpt>
      <trkpt lat="46.12093" lon="6.27791">
        <ele>548</ele>
        <time>2018-05-11T06:57:40Z</time>
      </trkpt>
      <trkpt lat="46.12088" lon="6.27792">
        <ele>549</ele>
        <time>2018-05-11T06:57:41Z</time>
      </trkpt>
      <trkpt lat="46.12079" lon="6.27797">
        <ele>548</ele>
        <time>2018-05-11T06:57:43Z</time>
      </trkpt>
      <trkpt lat="46.12075" lon="6.278">
        <ele>548</ele>
        <time>2018-05-11T06:57:44Z</time>
      </trkpt>
      <trkpt lat="46.12062" lon="6.27806">
        <ele>549</ele>
        <time>2018-05-11T06:57:47Z</time>
      </trkpt>
      <trkpt lat="46.12048" lon="6.27812">
        <ele>549</ele>
        <time>2018-05-11T06:57:50Z</time>
      </trkpt>
      <trkpt lat="46.12039" lon="6.27815">
        <ele>550</ele>
        <time>2018-05-11T06:57:52Z</time>
      </trkpt>
      <trkpt lat="46.12022" lon="6.27819">
        <ele>551</ele>
        <time>2018-05-11T06:57:56Z</time>
      </trkpt>
      <trkpt lat="46.12014" lon="6.27823">
        <ele>551</ele>
        <time>2018-05-11T06:57:58Z</time>
      </trkpt>
      <trkpt lat="46.11999" lon="6.27822">
        <ele>552</ele>
        <time>2018-05-11T06:58:01Z</time>
      </trkpt>
      <trkpt lat="46.11982" lon="6.27819">
        <ele>551</ele>
        <time>2018-05-11T06:58:05Z</time>
      </trkpt>
      <trkpt lat="46.11969" lon="6.27816">
        <ele>552</ele>
        <time>2018-05-11T06:58:08Z</time>
      </trkpt>
      <trkpt lat="46.11957" lon="6.27813">
        <ele>553</ele>
        <time>2018-05-11T06:58:11Z</time>
      </trkpt>
      <trkpt lat="46.11941" lon="6.27808">
        <ele>555</ele>
        <time>2018-05-11T06:58:15Z</time>
      </trkpt>
      <trkpt lat="46.11933" lon="6.27807">
        <ele>555</ele>
        <time>2018-05-11T06:58:17Z</time>
      </trkpt>
      <trkpt lat="46.11916" lon="6.27807">
        <ele>555</ele>
        <time>2018-05-11T06:58:21Z</time>
      </trkpt>
      <trkpt lat="46.11901" lon="6.27813">
        <ele>557</ele>
        <time>2018-05-11T06:58:24Z</time>
      </trkpt>
      <trkpt lat="46.11886" lon="6.27822">
        <ele>556</ele>
        <time>2018-05-11T06:58:28Z</time>
      </trkpt>
      <trkpt lat="46.11881" lon="6.27824">
        <ele>556</ele>
        <time>2018-05-11T06:58:29Z</time>
      </trkpt>
      <trkpt lat="46.1186" lon="6.27832">
        <ele>556</ele>
        <time>2018-05-11T06:58:34Z</time>
      </trkpt>
      <trkpt lat="46.11847" lon="6.27836">
        <ele>559</ele>
        <time>2018-05-11T06:58:37Z</time>
      </trkpt>
      <trkpt lat="46.11834" lon="6.27835">
        <ele>559</ele>
        <time>2018-05-11T06:58:40Z</time>
      </trkpt>
      <trkpt lat="46.11829" lon="6.27834">
        <ele>559</ele>
        <time>2018-05-11T06:58:41Z</time>
      </trkpt>
      <trkpt lat="46.11825" lon="6.27832">
        <ele>560</ele>
        <time>2018-05-11T06:58:42Z</time>
      </trkpt>
      <trkpt lat="46.11822" lon="6.27828">
        <ele>559</ele>
        <time>2018-05-11T06:58:43Z</time>
      </trkpt>
      <trkpt lat="46.11813" lon="6.27815">
        <ele>560</ele>
        <time>2018-05-11T06:58:46Z</time>
      </trkpt>
      <trkpt lat="46.11809" lon="6.27792">
        <ele>561</ele>
        <time>2018-05-11T06:58:50Z</time>
      </trkpt>
      <trkpt lat="46.11805" lon="6.2777">
        <ele>562</ele>
        <time>2018-05-11T06:58:54Z</time>
      </trkpt>
      <trkpt lat="46.11801" lon="6.2776">
        <ele>563</ele>
        <time>2018-05-11T06:58:56Z</time>
      </trkpt>
      <trkpt lat="46.11798" lon="6.2775">
        <ele>562</ele>
        <time>2018-05-11T06:58:58Z</time>
      </trkpt>
      <trkpt lat="46.11777" lon="6.27752">
        <ele>565</ele>
        <time>2018-05-11T06:59:03Z</time>
      </trkpt>
      <trkpt lat="46.11764" lon="6.27758">
        <ele>565</ele>
        <time>2018-05-11T06:59:06Z</time>
      </trkpt>
      <trkpt lat="46.11753" lon="6.27762">
        <ele>565</ele>
        <time>2018-05-11T06:59:08Z</time>
      </trkpt>
      <trkpt lat="46.11744" lon="6.27767">
        <ele>568</ele>
        <time>2018-05-11T06:59:10Z</time>
      </trkpt>
      <trkpt lat="46.11732" lon="6.27776">
        <ele>565</ele>
        <time>2018-05-11T06:59:13Z</time>
      </trkpt>
      <trkpt lat="46.11727" lon="6.27778">
        <ele>565</ele>
        <time>2018-05-11T06:59:14Z</time>
      </trkpt>
      <trkpt lat="46.11723" lon="6.27781">
        <ele>564</ele>
        <time>2018-05-11T06:59:15Z</time>
      </trkpt>
      <trkpt lat="46.11714" lon="6.27784">
        <ele>566</ele>
        <time>2018-05-11T06:59:17Z</time>
      </trkpt>
      <trkpt lat="46.117" lon="6.2779">
        <ele>567</ele>
        <time>2018-05-11T06:59:20Z</time>
      </trkpt>
      <trkpt lat="46.11689" lon="6.27792">
        <ele>567</ele>
        <time>2018-05-11T06:59:22Z</time>
      </trkpt>
      <trkpt lat="46.11679" lon="6.27792">
        <ele>567</ele>
        <time>2018-05-11T06:59:24Z</time>
      </trkpt>
      <trkpt lat="46.11664" lon="6.27787">
        <ele>568</ele>
        <time>2018-05-11T06:59:27Z</time>
      </trkpt>
      <trkpt lat="46.11655" lon="6.27782">
        <ele>568</ele>
        <time>2018-05-11T06:59:29Z</time>
      </trkpt>
      <trkpt lat="46.11645" lon="6.27779">
        <ele>565</ele>
        <time>2018-05-11T06:59:31Z</time>
      </trkpt>
      <trkpt lat="46.11629" lon="6.27772">
        <ele>567</ele>
        <time>2018-05-11T06:59:35Z</time>
      </trkpt>
      <trkpt lat="46.11614" lon="6.27766">
        <ele>567</ele>
        <time>2018-05-11T06:59:39Z</time>
      </trkpt>
      <trkpt lat="46.1161" lon="6.27764">
        <ele>567</ele>
        <time>2018-05-11T06:59:40Z</time>
      </trkpt>
      <trkpt lat="46.11596" lon="6.27761">
        <ele>566</ele>
        <time>2018-05-11T06:59:44Z</time>
      </trkpt>
      <trkpt lat="46.1158" lon="6.27756">
        <ele>570</ele>
        <time>2018-05-11T06:59:48Z</time>
      </trkpt>
      <trkpt lat="46.11566" lon="6.2775">
        <ele>570</ele>
        <time>2018-05-11T06:59:52Z</time>
      </trkpt>
      <trkpt lat="46.11563" lon="6.27748">
        <ele>569</ele>
        <time>2018-05-11T06:59:53Z</time>
      </trkpt>
      <trkpt lat="46.11548" lon="6.27742">
        <ele>570</ele>
        <time>2018-05-11T06:59:57Z</time>
      </trkpt>
      <trkpt lat="46.11528" lon="6.27741">
        <ele>571</ele>
        <time>2018-05-11T07:00:02Z</time>
      </trkpt>
      <trkpt lat="46.11512" lon="6.27741">
        <ele>574</ele>
        <time>2018-05-11T07:00:06Z</time>
      </trkpt>
      <trkpt lat="46.11492" lon="6.27743">
        <ele>573</ele>
        <time>2018-05-11T07:00:11Z</time>
      </trkpt>
      <trkpt lat="46.11487" lon="6.27743">
        <ele>573</ele>
        <time>2018-05-11T07:00:12Z</time>
      </trkpt>
      <trkpt lat="46.1147" lon="6.27745">
        <ele>574</ele>
        <time>2018-05-11T07:00:16Z</time>
      </trkpt>
      <trkpt lat="46.11455" lon="6.27748">
        <ele>575</ele>
        <time>2018-05-11T07:00:19Z</time>
      </trkpt>
      <trkpt lat="46.11449" lon="6.27749">
        <ele>574</ele>
        <time>2018-05-11T07:00:20Z</time>
      </trkpt>
      <trkpt lat="46.11439" lon="6.27754">
        <ele>574</ele>
        <time>2018-05-11T07:00:22Z</time>
      </trkpt>
      <trkpt lat="46.11435" lon="6.27758">
        <ele>575</ele>
        <time>2018-05-11T07:00:23Z</time>
      </trkpt>
      <trkpt lat="46.11431" lon="6.2776">
        <ele>576</ele>
        <time>2018-05-11T07:00:24Z</time>
      </trkpt>
      <trkpt lat="46.11426" lon="6.27761">
        <ele>576</ele>
        <time>2018-05-11T07:00:25Z</time>
      </trkpt>
      <trkpt lat="46.11418" lon="6.27769">
        <ele>576</ele>
        <time>2018-05-11T07:00:27Z</time>
      </trkpt>
      <trkpt lat="46.1141" lon="6.27775">
        <ele>576</ele>
        <time>2018-05-11T07:00:29Z</time>
      </trkpt>
      <trkpt lat="46.114" lon="6.27785">
        <ele>575</ele>
        <time>2018-05-11T07:00:32Z</time>
      </trkpt>
      <trkpt lat="46.11385" lon="6.27794">
        <ele>574</ele>
        <time>2018-05-11T07:00:35Z</time>
      </trkpt>
      <trkpt lat="46.11381" lon="6.27799">
        <ele>575</ele>
        <time>2018-05-11T07:00:36Z</time>
      </trkpt>
      <trkpt lat="46.11365" lon="6.27819">
        <ele>577</ele>
        <time>2018-05-11T07:00:40Z</time>
      </trkpt>
      <trkpt lat="46.11351" lon="6.27836">
        <ele>576</ele>
        <time>2018-05-11T07:00:43Z</time>
      </trkpt>
      <trkpt lat="46.11342" lon="6.27846">
        <ele>576</ele>
        <time>2018-05-11T07:00:45Z</time>
      </trkpt>
      <trkpt lat="46.11331" lon="6.27856">
        <ele>577</ele>
        <time>2018-05-11T07:00:47Z</time>
      </trkpt>
      <trkpt lat="46.11326" lon="6.27858">
        <ele>576</ele>
        <time>2018-05-11T07:00:48Z</time>
      </trkpt>
      <trkpt lat="46.1132" lon="6.27864">
        <ele>575</ele>
        <time>2018-05-11T07:00:49Z</time>
      </trkpt>
      <trkpt lat="46.11308" lon="6.2787">
        <ele>575</ele>
        <time>2018-05-11T07:00:51Z</time>
      </trkpt>
      <trkpt lat="46.11295" lon="6.27873">
        <ele>573</ele>
        <time>2018-05-11T07:00:53Z</time>
      </trkpt>
      <trkpt lat="46.11284" lon="6.27879">
        <ele>579</ele>
        <time>2018-05-11T07:00:55Z</time>
      </trkpt>
      <trkpt lat="46.11279" lon="6.27884">
        <ele>577</ele>
        <time>2018-05-11T07:00:56Z</time>
      </trkpt>
      <trkpt lat="46.11275" lon="6.27889">
        <ele>578</ele>
        <time>2018-05-11T07:00:57Z</time>
      </trkpt>
      <trkpt lat="46.1127" lon="6.27892">
        <ele>578</ele>
        <time>2018-05-11T07:00:58Z</time>
      </trkpt>
      <trkpt lat="46.11266" lon="6.27898">
        <ele>579</ele>
        <time>2018-05-11T07:00:59Z</time>
      </trkpt>
      <trkpt lat="46.11252" lon="6.27912">
        <ele>580</ele>
        <time>2018-05-11T07:01:02Z</time>
      </trkpt>
      <trkpt lat="46.11246" lon="6.27917">
        <ele>580</ele>
        <time>2018-05-11T07:01:03Z</time>
      </trkpt>
      <trkpt lat="46.11242" lon="6.27923">
        <ele>579</ele>
        <time>2018-05-11T07:01:04Z</time>
      </trkpt>
      <trkpt lat="46.11226" lon="6.27935">
        <ele>579</ele>
        <time>2018-05-11T07:01:07Z</time>
      </trkpt>
      <trkpt lat="46.11213" lon="6.27942">
        <ele>579</ele>
        <time>2018-05-11T07:01:10Z</time>
      </trkpt>
      <trkpt lat="46.11209" lon="6.27944">
        <ele>579</ele>
        <time>2018-05-11T07:01:11Z</time>
      </trkpt>
      <trkpt lat="46.11208" lon="6.27946">
        <ele>579</ele>
        <time>2018-05-11T07:01:12Z</time>
      </trkpt>
      <trkpt lat="46.11206" lon="6.27948">
        <ele>579</ele>
        <time>2018-05-11T07:01:13Z</time>
      </trkpt>
      <trkpt lat="46.11208" lon="6.27982">
        <ele>576</ele>
        <time>2018-05-11T07:01:21Z</time>
      </trkpt>
      <trkpt lat="46.11228" lon="6.2798">
        <ele>574</ele>
        <time>2018-05-11T07:01:24Z</time>
      </trkpt>
      <trkpt lat="46.11238" lon="6.27981">
        <ele>573</ele>
        <time>2018-05-11T07:01:26Z</time>
      </trkpt>
      <trkpt lat="46.11241" lon="6.27985">
        <ele>574</ele>
        <time>2018-05-11T07:01:27Z</time>
      </trkpt>
      <trkpt lat="46.11242" lon="6.2799">
        <ele>573</ele>
        <time>2018-05-11T07:01:28Z</time>
      </trkpt>
      <trkpt lat="46.11243" lon="6.27995">
        <ele>572</ele>
        <time>2018-05-11T07:01:30Z</time>
      </trkpt>
      <trkpt lat="46.11228" lon="6.28014">
        <ele>575</ele>
        <time>2018-05-11T07:01:35Z</time>
      </trkpt>
      <trkpt lat="46.11224" lon="6.28014">
        <ele>574</ele>
        <time>2018-05-11T07:01:36Z</time>
      </trkpt>
      <trkpt lat="46.112" lon="6.28015">
        <ele>575</ele>
        <time>2018-05-11T07:01:41Z</time>
      </trkpt>
      <trkpt lat="46.11184" lon="6.28016">
        <ele>576</ele>
        <time>2018-05-11T07:01:44Z</time>
      </trkpt>
      <trkpt lat="46.11178" lon="6.28018">
        <ele>575</ele>
        <time>2018-05-11T07:01:45Z</time>
      </trkpt>
      <trkpt lat="46.11173" lon="6.28021">
        <ele>573</ele>
        <time>2018-05-11T07:01:46Z</time>
      </trkpt>
      <trkpt lat="46.11166" lon="6.28023">
        <ele>573</ele>
        <time>2018-05-11T07:01:47Z</time>
      </trkpt>
      <trkpt lat="46.11159" lon="6.28027">
        <ele>573</ele>
        <time>2018-05-11T07:01:48Z</time>
      </trkpt>
      <trkpt lat="46.11152" lon="6.28041">
        <ele>571</ele>
        <time>2018-05-11T07:01:50Z</time>
      </trkpt>
      <trkpt lat="46.11147" lon="6.28061">
        <ele>572</ele>
        <time>2018-05-11T07:01:52Z</time>
      </trkpt>
      <trkpt lat="46.11144" lon="6.28082">
        <ele>571</ele>
        <time>2018-05-11T07:01:54Z</time>
      </trkpt>
      <trkpt lat="46.11141" lon="6.28106">
        <ele>570</ele>
        <time>2018-05-11T07:01:56Z</time>
      </trkpt>
      <trkpt lat="46.1114" lon="6.28128">
        <ele>570</ele>
        <time>2018-05-11T07:01:58Z</time>
      </trkpt>
      <trkpt lat="46.11143" lon="6.28156">
        <ele>567</ele>
        <time>2018-05-11T07:02:01Z</time>
      </trkpt>
      <trkpt lat="46.11146" lon="6.28165">
        <ele>567</ele>
        <time>2018-05-11T07:02:02Z</time>
      </trkpt>
      <trkpt lat="46.11151" lon="6.28168">
        <ele>567</ele>
        <time>2018-05-11T07:02:03Z</time>
      </trkpt>
      <trkpt lat="46.1116" lon="6.2817">
        <ele>568</ele>
        <time>2018-05-11T07:02:04Z</time>
      </trkpt>
      <trkpt lat="46.11177" lon="6.28179">
        <ele>568</ele>
        <time>2018-05-11T07:02:06Z</time>
      </trkpt>
      <trkpt lat="46.11183" lon="6.28185">
        <ele>568</ele>
        <time>2018-05-11T07:02:07Z</time>
      </trkpt>
      <trkpt lat="46.11191" lon="6.28188">
        <ele>568</ele>
        <time>2018-05-11T07:02:08Z</time>
      </trkpt>
      <trkpt lat="46.11197" lon="6.28193">
        <ele>568</ele>
        <time>2018-05-11T07:02:09Z</time>
      </trkpt>
      <trkpt lat="46.11214" lon="6.28201">
        <ele>568</ele>
        <time>2018-05-11T07:02:11Z</time>
      </trkpt>
      <trkpt lat="46.1122" lon="6.2821">
        <ele>568</ele>
        <time>2018-05-11T07:02:12Z</time>
      </trkpt>
      <trkpt lat="46.11225" lon="6.2823">
        <ele>567</ele>
        <time>2018-05-11T07:02:14Z</time>
      </trkpt>
      <trkpt lat="46.11229" lon="6.28252">
        <ele>564</ele>
        <time>2018-05-11T07:02:16Z</time>
      </trkpt>
      <trkpt lat="46.11231" lon="6.28259">
        <ele>565</ele>
        <time>2018-05-11T07:02:17Z</time>
      </trkpt>
      <trkpt lat="46.11232" lon="6.28268">
        <ele>565</ele>
        <time>2018-05-11T07:02:18Z</time>
      </trkpt>
      <trkpt lat="46.11234" lon="6.28277">
        <ele>565</ele>
        <time>2018-05-11T07:02:19Z</time>
      </trkpt>
      <trkpt lat="46.11235" lon="6.28288">
        <ele>566</ele>
        <time>2018-05-11T07:02:20Z</time>
      </trkpt>
      <trkpt lat="46.11234" lon="6.28297">
        <ele>565</ele>
        <time>2018-05-11T07:02:21Z</time>
      </trkpt>
      <trkpt lat="46.11232" lon="6.28321">
        <ele>566</ele>
        <time>2018-05-11T07:02:24Z</time>
      </trkpt>
      <trkpt lat="46.11232" lon="6.2833">
        <ele>564</ele>
        <time>2018-05-11T07:02:25Z</time>
      </trkpt>
      <trkpt lat="46.11229" lon="6.28359">
        <ele>564</ele>
        <time>2018-05-11T07:02:28Z</time>
      </trkpt>
      <trkpt lat="46.11229" lon="6.28369">
        <ele>564</ele>
        <time>2018-05-11T07:02:29Z</time>
      </trkpt>
      <trkpt lat="46.11227" lon="6.28378">
        <ele>564</ele>
        <time>2018-05-11T07:02:30Z</time>
      </trkpt>
      <trkpt lat="46.11223" lon="6.28415">
        <ele>562</ele>
        <time>2018-05-11T07:02:34Z</time>
      </trkpt>
      <trkpt lat="46.11222" lon="6.28424">
        <ele>562</ele>
        <time>2018-05-11T07:02:35Z</time>
      </trkpt>
      <trkpt lat="46.11223" lon="6.28435">
        <ele>563</ele>
        <time>2018-05-11T07:02:36Z</time>
      </trkpt>
      <trkpt lat="46.11224" lon="6.28465">
        <ele>561</ele>
        <time>2018-05-11T07:02:39Z</time>
      </trkpt>
      <trkpt lat="46.11225" lon="6.28477">
        <ele>561</ele>
        <time>2018-05-11T07:02:40Z</time>
      </trkpt>
      <trkpt lat="46.11229" lon="6.28497">
        <ele>561</ele>
        <time>2018-05-11T07:02:42Z</time>
      </trkpt>
      <trkpt lat="46.1123" lon="6.28507">
        <ele>561</ele>
        <time>2018-05-11T07:02:43Z</time>
      </trkpt>
      <trkpt lat="46.11233" lon="6.28517">
        <ele>560</ele>
        <time>2018-05-11T07:02:44Z</time>
      </trkpt>
      <trkpt lat="46.11234" lon="6.28527">
        <ele>560</ele>
        <time>2018-05-11T07:02:45Z</time>
      </trkpt>
      <trkpt lat="46.11242" lon="6.28549">
        <ele>559</ele>
        <time>2018-05-11T07:02:47Z</time>
      </trkpt>
      <trkpt lat="46.1125" lon="6.2857">
        <ele>558</ele>
        <time>2018-05-11T07:02:49Z</time>
      </trkpt>
      <trkpt lat="46.11254" lon="6.28591">
        <ele>557</ele>
        <time>2018-05-11T07:02:51Z</time>
      </trkpt>
      <trkpt lat="46.11262" lon="6.28624">
        <ele>558</ele>
        <time>2018-05-11T07:02:54Z</time>
      </trkpt>
      <trkpt lat="46.11265" lon="6.28635">
        <ele>558</ele>
        <time>2018-05-11T07:02:55Z</time>
      </trkpt>
      <trkpt lat="46.11265" lon="6.28669">
        <ele>556</ele>
        <time>2018-05-11T07:02:58Z</time>
      </trkpt>
      <trkpt lat="46.1127" lon="6.28692">
        <ele>555</ele>
        <time>2018-05-11T07:03:00Z</time>
      </trkpt>
      <trkpt lat="46.11275" lon="6.28716">
        <ele>553</ele>
        <time>2018-05-11T07:03:02Z</time>
      </trkpt>
      <trkpt lat="46.11276" lon="6.28728">
        <ele>553</ele>
        <time>2018-05-11T07:03:03Z</time>
      </trkpt>
      <trkpt lat="46.1128" lon="6.28752">
        <ele>552</ele>
        <time>2018-05-11T07:03:05Z</time>
      </trkpt>
      <trkpt lat="46.11289" lon="6.28788">
        <ele>549</ele>
        <time>2018-05-11T07:03:08Z</time>
      </trkpt>
      <trkpt lat="46.11296" lon="6.28827">
        <ele>548</ele>
        <time>2018-05-11T07:03:11Z</time>
      </trkpt>
      <trkpt lat="46.11307" lon="6.2888">
        <ele>546</ele>
        <time>2018-05-11T07:03:15Z</time>
      </trkpt>
      <trkpt lat="46.11311" lon="6.28904">
        <ele>545</ele>
        <time>2018-05-11T07:03:17Z</time>
      </trkpt>
      <trkpt lat="46.11314" lon="6.28927">
        <ele>545</ele>
        <time>2018-05-11T07:03:19Z</time>
      </trkpt>
      <trkpt lat="46.11316" lon="6.28936">
        <ele>544</ele>
        <time>2018-05-11T07:03:20Z</time>
      </trkpt>
      <trkpt lat="46.11314" lon="6.28944">
        <ele>543</ele>
        <time>2018-05-11T07:03:21Z</time>
      </trkpt>
      <trkpt lat="46.11313" lon="6.28961">
        <ele>543</ele>
        <time>2018-05-11T07:03:23Z</time>
      </trkpt>
      <trkpt lat="46.11318" lon="6.28969">
        <ele>543</ele>
        <time>2018-05-11T07:03:24Z</time>
      </trkpt>
      <trkpt lat="46.11321" lon="6.28976">
        <ele>544</ele>
        <time>2018-05-11T07:03:25Z</time>
      </trkpt>
      <trkpt lat="46.11323" lon="6.28985">
        <ele>544</ele>
        <time>2018-05-11T07:03:26Z</time>
      </trkpt>
      <trkpt lat="46.11325" lon="6.28995">
        <ele>545</ele>
        <time>2018-05-11T07:03:27Z</time>
      </trkpt>
      <trkpt lat="46.11328" lon="6.29005">
        <ele>546</ele>
        <time>2018-05-11T07:03:28Z</time>
      </trkpt>
      <trkpt lat="46.1133" lon="6.29028">
        <ele>547</ele>
        <time>2018-05-11T07:03:30Z</time>
      </trkpt>
      <trkpt lat="46.11334" lon="6.29037">
        <ele>545</ele>
        <time>2018-05-11T07:03:31Z</time>
      </trkpt>
      <trkpt lat="46.11337" lon="6.29061">
        <ele>546</ele>
        <time>2018-05-11T07:03:33Z</time>
      </trkpt>
      <trkpt lat="46.1134" lon="6.29083">
        <ele>545</ele>
        <time>2018-05-11T07:03:35Z</time>
      </trkpt>
      <trkpt lat="46.11344" lon="6.29138">
        <ele>543</ele>
        <time>2018-05-11T07:03:40Z</time>
      </trkpt>
      <trkpt lat="46.11347" lon="6.2916">
        <ele>542</ele>
        <time>2018-05-11T07:03:42Z</time>
      </trkpt>
      <trkpt lat="46.11352" lon="6.29183">
        <ele>541</ele>
        <time>2018-05-11T07:03:44Z</time>
      </trkpt>
      <trkpt lat="46.11357" lon="6.29221">
        <ele>540</ele>
        <time>2018-05-11T07:03:47Z</time>
      </trkpt>
      <trkpt lat="46.1136" lon="6.29247">
        <ele>538</ele>
        <time>2018-05-11T07:03:49Z</time>
      </trkpt>
      <trkpt lat="46.11364" lon="6.29269">
        <ele>536</ele>
        <time>2018-05-11T07:03:51Z</time>
      </trkpt>
      <trkpt lat="46.11365" lon="6.29281">
        <ele>534</ele>
        <time>2018-05-11T07:03:52Z</time>
      </trkpt>
      <trkpt lat="46.11368" lon="6.29304">
        <ele>533</ele>
        <time>2018-05-11T07:03:54Z</time>
      </trkpt>
      <trkpt lat="46.11362" lon="6.29318">
        <ele>535</ele>
        <time>2018-05-11T07:03:55Z</time>
      </trkpt>
      <trkpt lat="46.11359" lon="6.2933">
        <ele>535</ele>
        <time>2018-05-11T07:03:56Z</time>
      </trkpt>
      <trkpt lat="46.11356" lon="6.29341">
        <ele>534</ele>
        <time>2018-05-11T07:03:57Z</time>
      </trkpt>
      <trkpt lat="46.11336" lon="6.2937">
        <ele>532</ele>
        <time>2018-05-11T07:04:01Z</time>
      </trkpt>
      <trkpt lat="46.11337" lon="6.29392">
        <ele>533</ele>
        <time>2018-05-11T07:04:03Z</time>
      </trkpt>
      <trkpt lat="46.1134" lon="6.29414">
        <ele>534</ele>
        <time>2018-05-11T07:04:05Z</time>
      </trkpt>
      <trkpt lat="46.11341" lon="6.2943">
        <ele>531</ele>
        <time>2018-05-11T07:04:07Z</time>
      </trkpt>
      <trkpt lat="46.11337" lon="6.29443">
        <ele>531</ele>
        <time>2018-05-11T07:04:09Z</time>
      </trkpt>
      <trkpt lat="46.11331" lon="6.29454">
        <ele>528</ele>
        <time>2018-05-11T07:04:11Z</time>
      </trkpt>
      <trkpt lat="46.11326" lon="6.29459">
        <ele>529</ele>
        <time>2018-05-11T07:04:12Z</time>
      </trkpt>
      <trkpt lat="46.11324" lon="6.29465">
        <ele>528</ele>
        <time>2018-05-11T07:04:13Z</time>
      </trkpt>
      <trkpt lat="46.11322" lon="6.29472">
        <ele>528</ele>
        <time>2018-05-11T07:04:14Z</time>
      </trkpt>
      <trkpt lat="46.11312" lon="6.29482">
        <ele>529</ele>
        <time>2018-05-11T07:04:16Z</time>
      </trkpt>
      <trkpt lat="46.11302" lon="6.2949">
        <ele>529</ele>
        <time>2018-05-11T07:04:18Z</time>
      </trkpt>
      <trkpt lat="46.11297" lon="6.29494">
        <ele>530</ele>
        <time>2018-05-11T07:04:19Z</time>
      </trkpt>
      <trkpt lat="46.1129" lon="6.29506">
        <ele>530</ele>
        <time>2018-05-11T07:04:21Z</time>
      </trkpt>
      <trkpt lat="46.11283" lon="6.29511">
        <ele>529</ele>
        <time>2018-05-11T07:04:22Z</time>
      </trkpt>
      <trkpt lat="46.11279" lon="6.29515">
        <ele>528</ele>
        <time>2018-05-11T07:04:23Z</time>
      </trkpt>
      <trkpt lat="46.11276" lon="6.29522">
        <ele>527</ele>
        <time>2018-05-11T07:04:24Z</time>
      </trkpt>
      <trkpt lat="46.11276" lon="6.29531">
        <ele>527</ele>
        <time>2018-05-11T07:04:25Z</time>
      </trkpt>
      <trkpt lat="46.11271" lon="6.29536">
        <ele>528</ele>
        <time>2018-05-11T07:04:26Z</time>
      </trkpt>
      <trkpt lat="46.11258" lon="6.29554">
        <ele>529</ele>
        <time>2018-05-11T07:04:29Z</time>
      </trkpt>
      <trkpt lat="46.11255" lon="6.2956">
        <ele>528</ele>
        <time>2018-05-11T07:04:30Z</time>
      </trkpt>
      <trkpt lat="46.11252" lon="6.29569">
        <ele>527</ele>
        <time>2018-05-11T07:04:31Z</time>
      </trkpt>
      <trkpt lat="46.11248" lon="6.29574">
        <ele>527</ele>
        <time>2018-05-11T07:04:32Z</time>
      </trkpt>
      <trkpt lat="46.11245" lon="6.29581">
        <ele>527</ele>
        <time>2018-05-11T07:04:33Z</time>
      </trkpt>
      <trkpt lat="46.1124" lon="6.29588">
        <ele>527</ele>
        <time>2018-05-11T07:04:34Z</time>
      </trkpt>
      <trkpt lat="46.11229" lon="6.29609">
        <ele>526</ele>
        <time>2018-05-11T07:04:37Z</time>
      </trkpt>
      <trkpt lat="46.11226" lon="6.29616">
        <ele>526</ele>
        <time>2018-05-11T07:04:38Z</time>
      </trkpt>
      <trkpt lat="46.11214" lon="6.29637">
        <ele>526</ele>
        <time>2018-05-11T07:04:41Z</time>
      </trkpt>
      <trkpt lat="46.11207" lon="6.29651">
        <ele>525</ele>
        <time>2018-05-11T07:04:43Z</time>
      </trkpt>
      <trkpt lat="46.11194" lon="6.29671">
        <ele>526</ele>
        <time>2018-05-11T07:04:46Z</time>
      </trkpt>
      <trkpt lat="46.11183" lon="6.29691">
        <ele>527</ele>
        <time>2018-05-11T07:04:49Z</time>
      </trkpt>
      <trkpt lat="46.11173" lon="6.29702">
        <ele>527</ele>
        <time>2018-05-11T07:04:51Z</time>
      </trkpt>
      <trkpt lat="46.11162" lon="6.29714">
        <ele>526</ele>
        <time>2018-05-11T07:04:53Z</time>
      </trkpt>
      <trkpt lat="46.11153" lon="6.29724">
        <ele>525</ele>
        <time>2018-05-11T07:04:55Z</time>
      </trkpt>
      <trkpt lat="46.11136" lon="6.29737">
        <ele>526</ele>
        <time>2018-05-11T07:04:58Z</time>
      </trkpt>
      <trkpt lat="46.1113" lon="6.29742">
        <ele>526</ele>
        <time>2018-05-11T07:04:59Z</time>
      </trkpt>
      <trkpt lat="46.11123" lon="6.29753">
        <ele>527</ele>
        <time>2018-05-11T07:05:01Z</time>
      </trkpt>
      <trkpt lat="46.11114" lon="6.2976">
        <ele>529</ele>
        <time>2018-05-11T07:05:03Z</time>
      </trkpt>
      <trkpt lat="46.11103" lon="6.29766">
        <ele>529</ele>
        <time>2018-05-11T07:05:05Z</time>
      </trkpt>
      <trkpt lat="46.11089" lon="6.29776">
        <ele>530</ele>
        <time>2018-05-11T07:05:08Z</time>
      </trkpt>
      <trkpt lat="46.11079" lon="6.29781">
        <ele>529</ele>
        <time>2018-05-11T07:05:10Z</time>
      </trkpt>
      <trkpt lat="46.11074" lon="6.29785">
        <ele>529</ele>
        <time>2018-05-11T07:05:11Z</time>
      </trkpt>
      <trkpt lat="46.11065" lon="6.29791">
        <ele>529</ele>
        <time>2018-05-11T07:05:13Z</time>
      </trkpt>
      <trkpt lat="46.1106" lon="6.29793">
        <ele>530</ele>
        <time>2018-05-11T07:05:14Z</time>
      </trkpt>
      <trkpt lat="46.11056" lon="6.29797">
        <ele>532</ele>
        <time>2018-05-11T07:05:15Z</time>
      </trkpt>
      <trkpt lat="46.11047" lon="6.29802">
        <ele>532</ele>
        <time>2018-05-11T07:05:17Z</time>
      </trkpt>
      <trkpt lat="46.11034" lon="6.29814">
        <ele>532</ele>
        <time>2018-05-11T07:05:20Z</time>
      </trkpt>
      <trkpt lat="46.1102" lon="6.29828">
        <ele>533</ele>
        <time>2018-05-11T07:05:23Z</time>
      </trkpt>
      <trkpt lat="46.11012" lon="6.29838">
        <ele>532</ele>
        <time>2018-05-11T07:05:25Z</time>
      </trkpt>
      <trkpt lat="46.10999" lon="6.29855">
        <ele>533</ele>
        <time>2018-05-11T07:05:28Z</time>
      </trkpt>
      <trkpt lat="46.10995" lon="6.29861">
        <ele>533</ele>
        <time>2018-05-11T07:05:29Z</time>
      </trkpt>
      <trkpt lat="46.1098" lon="6.29876">
        <ele>533</ele>
        <time>2018-05-11T07:05:32Z</time>
      </trkpt>
      <trkpt lat="46.10964" lon="6.29889">
        <ele>534</ele>
        <time>2018-05-11T07:05:35Z</time>
      </trkpt>
      <trkpt lat="46.10958" lon="6.29897">
        <ele>536</ele>
        <time>2018-05-11T07:05:37Z</time>
      </trkpt>
      <trkpt lat="46.10948" lon="6.29903">
        <ele>537</ele>
        <time>2018-05-11T07:05:39Z</time>
      </trkpt>
      <trkpt lat="46.10945" lon="6.29906">
        <ele>537</ele>
        <time>2018-05-11T07:05:40Z</time>
      </trkpt>
      <trkpt lat="46.1093" lon="6.29916">
        <ele>537</ele>
        <time>2018-05-11T07:05:43Z</time>
      </trkpt>
      <trkpt lat="46.10908" lon="6.29923">
        <ele>536</ele>
        <time>2018-05-11T07:05:47Z</time>
      </trkpt>
      <trkpt lat="46.10904" lon="6.29925">
        <ele>536</ele>
        <time>2018-05-11T07:05:48Z</time>
      </trkpt>
      <trkpt lat="46.109" lon="6.29927">
        <ele>537</ele>
        <time>2018-05-11T07:05:49Z</time>
      </trkpt>
      <trkpt lat="46.10893" lon="6.29932">
        <ele>537</ele>
        <time>2018-05-11T07:05:51Z</time>
      </trkpt>
      <trkpt lat="46.10878" lon="6.29936">
        <ele>540</ele>
        <time>2018-05-11T07:05:54Z</time>
      </trkpt>
      <trkpt lat="46.10872" lon="6.29938">
        <ele>539</ele>
        <time>2018-05-11T07:05:55Z</time>
      </trkpt>
      <trkpt lat="46.10856" lon="6.29939">
        <ele>539</ele>
        <time>2018-05-11T07:05:59Z</time>
      </trkpt>
      <trkpt lat="46.10849" lon="6.29944">
        <ele>537</ele>
        <time>2018-05-11T07:06:01Z</time>
      </trkpt>
      <trkpt lat="46.10838" lon="6.29949">
        <ele>537</ele>
        <time>2018-05-11T07:06:03Z</time>
      </trkpt>
      <trkpt lat="46.10833" lon="6.29949">
        <ele>537</ele>
        <time>2018-05-11T07:06:04Z</time>
      </trkpt>
      <trkpt lat="46.10824" lon="6.29953">
        <ele>537</ele>
        <time>2018-05-11T07:06:06Z</time>
      </trkpt>
      <trkpt lat="46.10819" lon="6.29956">
        <ele>536</ele>
        <time>2018-05-11T07:06:07Z</time>
      </trkpt>
      <trkpt lat="46.10815" lon="6.29957">
        <ele>537</ele>
        <time>2018-05-11T07:06:08Z</time>
      </trkpt>
      <trkpt lat="46.10811" lon="6.2996">
        <ele>537</ele>
        <time>2018-05-11T07:06:09Z</time>
      </trkpt>
      <trkpt lat="46.10796" lon="6.29973">
        <ele>536</ele>
        <time>2018-05-11T07:06:13Z</time>
      </trkpt>
      <trkpt lat="46.10793" lon="6.29973">
        <ele>536</ele>
        <time>2018-05-11T07:06:15Z</time>
      </trkpt>
      <trkpt lat="46.10792" lon="6.29975">
        <ele>537</ele>
        <time>2018-05-11T07:06:16Z</time>
      </trkpt>
      <trkpt lat="46.10779" lon="6.29985">
        <ele>536</ele>
        <time>2018-05-11T07:06:17Z</time>
      </trkpt>
      <trkpt lat="46.10769" lon="6.29994">
        <ele>536</ele>
        <time>2018-05-11T07:06:19Z</time>
      </trkpt>
      <trkpt lat="46.10757" lon="6.30006">
        <ele>533</ele>
        <time>2018-05-11T07:06:22Z</time>
      </trkpt>
      <trkpt lat="46.10752" lon="6.30011">
        <ele>534</ele>
        <time>2018-05-11T07:06:23Z</time>
      </trkpt>
      <trkpt lat="46.10739" lon="6.3003">
        <ele>535</ele>
        <time>2018-05-11T07:06:26Z</time>
      </trkpt>
      <trkpt lat="46.10735" lon="6.30034">
        <ele>535</ele>
        <time>2018-05-11T07:06:27Z</time>
      </trkpt>
      <trkpt lat="46.10723" lon="6.30044">
        <ele>535</ele>
        <time>2018-05-11T07:06:29Z</time>
      </trkpt>
      <trkpt lat="46.10711" lon="6.30052">
        <ele>536</ele>
        <time>2018-05-11T07:06:31Z</time>
      </trkpt>
      <trkpt lat="46.10696" lon="6.30067">
        <ele>539</ele>
        <time>2018-05-11T07:06:34Z</time>
      </trkpt>
      <trkpt lat="46.10693" lon="6.30073">
        <ele>539</ele>
        <time>2018-05-11T07:06:35Z</time>
      </trkpt>
      <trkpt lat="46.10687" lon="6.30078">
        <ele>539</ele>
        <time>2018-05-11T07:06:36Z</time>
      </trkpt>
      <trkpt lat="46.10677" lon="6.30084">
        <ele>541</ele>
        <time>2018-05-11T07:06:38Z</time>
      </trkpt>
      <trkpt lat="46.10673" lon="6.30092">
        <ele>540</ele>
        <time>2018-05-11T07:06:39Z</time>
      </trkpt>
      <trkpt lat="46.10662" lon="6.30101">
        <ele>540</ele>
        <time>2018-05-11T07:06:41Z</time>
      </trkpt>
      <trkpt lat="46.10658" lon="6.30107">
        <ele>539</ele>
        <time>2018-05-11T07:06:42Z</time>
      </trkpt>
      <trkpt lat="46.10649" lon="6.30114">
        <ele>540</ele>
        <time>2018-05-11T07:06:44Z</time>
      </trkpt>
      <trkpt lat="46.10645" lon="6.3012">
        <ele>540</ele>
        <time>2018-05-11T07:06:45Z</time>
      </trkpt>
      <trkpt lat="46.10627" lon="6.30124">
        <ele>540</ele>
        <time>2018-05-11T07:06:48Z</time>
      </trkpt>
      <trkpt lat="46.10617" lon="6.30127">
        <ele>542</ele>
        <time>2018-05-11T07:06:50Z</time>
      </trkpt>
      <trkpt lat="46.10599" lon="6.30144">
        <ele>542</ele>
        <time>2018-05-11T07:06:54Z</time>
      </trkpt>
      <trkpt lat="46.10595" lon="6.30147">
        <ele>542</ele>
        <time>2018-05-11T07:06:55Z</time>
      </trkpt>
      <trkpt lat="46.10588" lon="6.30164">
        <ele>546</ele>
        <time>2018-05-11T07:06:57Z</time>
      </trkpt>
      <trkpt lat="46.10583" lon="6.30172">
        <ele>547</ele>
        <time>2018-05-11T07:06:58Z</time>
      </trkpt>
      <trkpt lat="46.1058" lon="6.30182">
        <ele>545</ele>
        <time>2018-05-11T07:06:59Z</time>
      </trkpt>
      <trkpt lat="46.10576" lon="6.3019">
        <ele>544</ele>
        <time>2018-05-11T07:07:00Z</time>
      </trkpt>
      <trkpt lat="46.10573" lon="6.302">
        <ele>545</ele>
        <time>2018-05-11T07:07:01Z</time>
      </trkpt>
      <trkpt lat="46.10566" lon="6.3021">
        <ele>544</ele>
        <time>2018-05-11T07:07:02Z</time>
      </trkpt>
      <trkpt lat="46.10553" lon="6.30219">
        <ele>545</ele>
        <time>2018-05-11T07:07:04Z</time>
      </trkpt>
      <trkpt lat="46.10547" lon="6.30223">
        <ele>545</ele>
        <time>2018-05-11T07:07:05Z</time>
      </trkpt>
      <trkpt lat="46.10536" lon="6.30234">
        <ele>544</ele>
        <time>2018-05-11T07:07:07Z</time>
      </trkpt>
      <trkpt lat="46.10522" lon="6.30234">
        <ele>545</ele>
        <time>2018-05-11T07:07:09Z</time>
      </trkpt>
      <trkpt lat="46.10516" lon="6.30235">
        <ele>544</ele>
        <time>2018-05-11T07:07:10Z</time>
      </trkpt>
      <trkpt lat="46.10509" lon="6.30237">
        <ele>544</ele>
        <time>2018-05-11T07:07:11Z</time>
      </trkpt>
      <trkpt lat="46.1047" lon="6.30221">
        <ele>543</ele>
        <time>2018-05-11T07:07:18Z</time>
      </trkpt>
      <trkpt lat="46.10467" lon="6.30215">
        <ele>544</ele>
        <time>2018-05-11T07:07:19Z</time>
      </trkpt>
      <trkpt lat="46.10461" lon="6.30205">
        <ele>543</ele>
        <time>2018-05-11T07:07:21Z</time>
      </trkpt>
      <trkpt lat="46.10456" lon="6.302">
        <ele>541</ele>
        <time>2018-05-11T07:07:22Z</time>
      </trkpt>
      <trkpt lat="46.10448" lon="6.30189">
        <ele>540</ele>
        <time>2018-05-11T07:07:24Z</time>
      </trkpt>
      <trkpt lat="46.10443" lon="6.30185">
        <ele>541</ele>
        <time>2018-05-11T07:07:25Z</time>
      </trkpt>
      <trkpt lat="46.1044" lon="6.30179">
        <ele>542</ele>
        <time>2018-05-11T07:07:26Z</time>
      </trkpt>
      <trkpt lat="46.10434" lon="6.30169">
        <ele>541</ele>
        <time>2018-05-11T07:07:28Z</time>
      </trkpt>
      <trkpt lat="46.10425" lon="6.30161">
        <ele>539</ele>
        <time>2018-05-11T07:07:30Z</time>
      </trkpt>
      <trkpt lat="46.10421" lon="6.30155">
        <ele>538</ele>
        <time>2018-05-11T07:07:31Z</time>
      </trkpt>
      <trkpt lat="46.10418" lon="6.30148">
        <ele>539</ele>
        <time>2018-05-11T07:07:32Z</time>
      </trkpt>
      <trkpt lat="46.10418" lon="6.30141">
        <ele>541</ele>
        <time>2018-05-11T07:07:33Z</time>
      </trkpt>
      <trkpt lat="46.10415" lon="6.30128">
        <ele>541</ele>
        <time>2018-05-11T07:07:35Z</time>
      </trkpt>
      <trkpt lat="46.10409" lon="6.30115">
        <ele>542</ele>
        <time>2018-05-11T07:07:37Z</time>
      </trkpt>
      <trkpt lat="46.104" lon="6.30097">
        <ele>543</ele>
        <time>2018-05-11T07:07:40Z</time>
      </trkpt>
      <trkpt lat="46.10389" lon="6.30078">
        <ele>543</ele>
        <time>2018-05-11T07:07:43Z</time>
      </trkpt>
      <trkpt lat="46.10385" lon="6.30071">
        <ele>543</ele>
        <time>2018-05-11T07:07:44Z</time>
      </trkpt>
      <trkpt lat="46.10383" lon="6.30064">
        <ele>542</ele>
        <time>2018-05-11T07:07:45Z</time>
      </trkpt>
      <trkpt lat="46.10371" lon="6.30043">
        <ele>542</ele>
        <time>2018-05-11T07:07:48Z</time>
      </trkpt>
      <trkpt lat="46.10361" lon="6.30022">
        <ele>542</ele>
        <time>2018-05-11T07:07:51Z</time>
      </trkpt>
      <trkpt lat="46.10358" lon="6.30016">
        <ele>542</ele>
        <time>2018-05-11T07:07:52Z</time>
      </trkpt>
      <trkpt lat="46.10346" lon="6.29997">
        <ele>542</ele>
        <time>2018-05-11T07:07:55Z</time>
      </trkpt>
      <trkpt lat="46.10343" lon="6.29991">
        <ele>541</ele>
        <time>2018-05-11T07:07:56Z</time>
      </trkpt>
      <trkpt lat="46.10334" lon="6.29973">
        <ele>542</ele>
        <time>2018-05-11T07:07:59Z</time>
      </trkpt>
      <trkpt lat="46.10331" lon="6.29966">
        <ele>542</ele>
        <time>2018-05-11T07:08:00Z</time>
      </trkpt>
      <trkpt lat="46.10326" lon="6.29943">
        <ele>541</ele>
        <time>2018-05-11T07:08:03Z</time>
      </trkpt>
      <trkpt lat="46.1033" lon="6.29922">
        <ele>541</ele>
        <time>2018-05-11T07:08:06Z</time>
      </trkpt>
      <trkpt lat="46.10334" lon="6.29901">
        <ele>541</ele>
        <time>2018-05-11T07:08:09Z</time>
      </trkpt>
      <trkpt lat="46.10339" lon="6.29878">
        <ele>542</ele>
        <time>2018-05-11T07:08:12Z</time>
      </trkpt>
      <trkpt lat="46.10345" lon="6.29856">
        <ele>543</ele>
        <time>2018-05-11T07:08:15Z</time>
      </trkpt>
      <trkpt lat="46.10347" lon="6.29849">
        <ele>543</ele>
        <time>2018-05-11T07:08:16Z</time>
      </trkpt>
      <trkpt lat="46.1035" lon="6.29841">
        <ele>544</ele>
        <time>2018-05-11T07:08:17Z</time>
      </trkpt>
      <trkpt lat="46.10352" lon="6.29834">
        <ele>544</ele>
        <time>2018-05-11T07:08:18Z</time>
      </trkpt>
      <trkpt lat="46.10354" lon="6.29827">
        <ele>544</ele>
        <time>2018-05-11T07:08:19Z</time>
      </trkpt>
      <trkpt lat="46.10358" lon="6.29821">
        <ele>546</ele>
        <time>2018-05-11T07:08:20Z</time>
      </trkpt>
      <trkpt lat="46.1036" lon="6.29813">
        <ele>546</ele>
        <time>2018-05-11T07:08:21Z</time>
      </trkpt>
      <trkpt lat="46.10362" lon="6.29806">
        <ele>546</ele>
        <time>2018-05-11T07:08:22Z</time>
      </trkpt>
      <trkpt lat="46.10363" lon="6.29799">
        <ele>546</ele>
        <time>2018-05-11T07:08:23Z</time>
      </trkpt>
      <trkpt lat="46.10364" lon="6.29792">
        <ele>546</ele>
        <time>2018-05-11T07:08:24Z</time>
      </trkpt>
      <trkpt lat="46.10367" lon="6.29785">
        <ele>546</ele>
        <time>2018-05-11T07:08:25Z</time>
      </trkpt>
      <trkpt lat="46.10368" lon="6.29778">
        <ele>545</ele>
        <time>2018-05-11T07:08:26Z</time>
      </trkpt>
      <trkpt lat="46.10373" lon="6.29766">
        <ele>546</ele>
        <time>2018-05-11T07:08:28Z</time>
      </trkpt>
      <trkpt lat="46.10374" lon="6.29759">
        <ele>547</ele>
        <time>2018-05-11T07:08:29Z</time>
      </trkpt>
      <trkpt lat="46.10373" lon="6.29754">
        <ele>546</ele>
        <time>2018-05-11T07:08:30Z</time>
      </trkpt>
      <trkpt lat="46.10374" lon="6.29747">
        <ele>545</ele>
        <time>2018-05-11T07:08:31Z</time>
      </trkpt>
      <trkpt lat="46.10376" lon="6.29743">
        <ele>546</ele>
        <time>2018-05-11T07:08:32Z</time>
      </trkpt>
      <trkpt lat="46.10377" lon="6.29733">
        <ele>546</ele>
        <time>2018-05-11T07:08:34Z</time>
      </trkpt>
      <trkpt lat="46.10378" lon="6.29728">
        <ele>546</ele>
        <time>2018-05-11T07:08:35Z</time>
      </trkpt>
      <trkpt lat="46.10377" lon="6.29722">
        <ele>546</ele>
        <time>2018-05-11T07:08:36Z</time>
      </trkpt>
      <trkpt lat="46.10379" lon="6.29712">
        <ele>548</ele>
        <time>2018-05-11T07:08:38Z</time>
      </trkpt>
      <trkpt lat="46.10381" lon="6.29707">
        <ele>548</ele>
        <time>2018-05-11T07:08:39Z</time>
      </trkpt>
      <trkpt lat="46.10384" lon="6.29701">
        <ele>548</ele>
        <time>2018-05-11T07:08:40Z</time>
      </trkpt>
      <trkpt lat="46.10383" lon="6.29688">
        <ele>548</ele>
        <time>2018-05-11T07:08:43Z</time>
      </trkpt>
      <trkpt lat="46.10384" lon="6.29685">
        <ele>550</ele>
        <time>2018-05-11T07:08:44Z</time>
      </trkpt>
      <trkpt lat="46.10386" lon="6.29678">
        <ele>550</ele>
        <time>2018-05-11T07:08:46Z</time>
      </trkpt>
      <trkpt lat="46.10388" lon="6.29671">
        <ele>550</ele>
        <time>2018-05-11T07:08:48Z</time>
      </trkpt>
      <trkpt lat="46.10388" lon="6.29666">
        <ele>549</ele>
        <time>2018-05-11T07:08:49Z</time>
      </trkpt>
      <trkpt lat="46.10387" lon="6.29651">
        <ele>549</ele>
        <time>2018-05-11T07:08:50Z</time>
      </trkpt>
      <trkpt lat="46.1039" lon="6.29645">
        <ele>548</ele>
        <time>2018-05-11T07:08:52Z</time>
      </trkpt>
      <trkpt lat="46.10388" lon="6.29638">
        <ele>553</ele>
        <time>2018-05-11T07:08:54Z</time>
      </trkpt>
      <trkpt lat="46.10384" lon="6.2962">
        <ele>553</ele>
        <time>2018-05-11T07:08:57Z</time>
      </trkpt>
      <trkpt lat="46.10385" lon="6.29616">
        <ele>552</ele>
        <time>2018-05-11T07:08:58Z</time>
      </trkpt>
      <trkpt lat="46.10384" lon="6.29613">
        <ele>551</ele>
        <time>2018-05-11T07:08:59Z</time>
      </trkpt>
      <trkpt lat="46.10383" lon="6.29609">
        <ele>550</ele>
        <time>2018-05-11T07:09:00Z</time>
      </trkpt>
      <trkpt lat="46.10382" lon="6.29606">
        <ele>550</ele>
        <time>2018-05-11T07:09:01Z</time>
      </trkpt>
      <trkpt lat="46.10373" lon="6.29591">
        <ele>551</ele>
        <time>2018-05-11T07:09:03Z</time>
      </trkpt>
      <trkpt lat="46.10371" lon="6.29586">
        <ele>551</ele>
        <time>2018-05-11T07:09:04Z</time>
      </trkpt>
      <trkpt lat="46.10363" lon="6.29567">
        <ele>549</ele>
        <time>2018-05-11T07:09:07Z</time>
      </trkpt>
      <trkpt lat="46.10361" lon="6.2956">
        <ele>548</ele>
        <time>2018-05-11T07:09:08Z</time>
      </trkpt>
      <trkpt lat="46.10359" lon="6.29552">
        <ele>549</ele>
        <time>2018-05-11T07:09:09Z</time>
      </trkpt>
      <trkpt lat="46.10357" lon="6.29546">
        <ele>549</ele>
        <time>2018-05-11T07:09:10Z</time>
      </trkpt>
      <trkpt lat="46.10353" lon="6.2954">
        <ele>550</ele>
        <time>2018-05-11T07:09:11Z</time>
      </trkpt>
      <trkpt lat="46.10345" lon="6.29522">
        <ele>555</ele>
        <time>2018-05-11T07:09:14Z</time>
      </trkpt>
      <trkpt lat="46.10342" lon="6.29509">
        <ele>555</ele>
        <time>2018-05-11T07:09:16Z</time>
      </trkpt>
      <trkpt lat="46.10335" lon="6.29493">
        <ele>555</ele>
        <time>2018-05-11T07:09:19Z</time>
      </trkpt>
      <trkpt lat="46.10325" lon="6.29475">
        <ele>556</ele>
        <time>2018-05-11T07:09:23Z</time>
      </trkpt>
      <trkpt lat="46.10323" lon="6.29468">
        <ele>556</ele>
        <time>2018-05-11T07:09:24Z</time>
      </trkpt>
      <trkpt lat="46.10321" lon="6.29462">
        <ele>555</ele>
        <time>2018-05-11T07:09:25Z</time>
      </trkpt>
      <trkpt lat="46.10318" lon="6.29451">
        <ele>556</ele>
        <time>2018-05-11T07:09:27Z</time>
      </trkpt>
      <trkpt lat="46.10316" lon="6.29447">
        <ele>557</ele>
        <time>2018-05-11T07:09:28Z</time>
      </trkpt>
      <trkpt lat="46.10311" lon="6.29443">
        <ele>558</ele>
        <time>2018-05-11T07:09:29Z</time>
      </trkpt>
      <trkpt lat="46.10307" lon="6.2943">
        <ele>558</ele>
        <time>2018-05-11T07:09:31Z</time>
      </trkpt>
      <trkpt lat="46.10303" lon="6.29416">
        <ele>558</ele>
        <time>2018-05-11T07:09:33Z</time>
      </trkpt>
      <trkpt lat="46.10299" lon="6.2941">
        <ele>560</ele>
        <time>2018-05-11T07:09:34Z</time>
      </trkpt>
      <trkpt lat="46.10299" lon="6.29397">
        <ele>559</ele>
        <time>2018-05-11T07:09:36Z</time>
      </trkpt>
      <trkpt lat="46.103" lon="6.29391">
        <ele>558</ele>
        <time>2018-05-11T07:09:37Z</time>
      </trkpt>
      <trkpt lat="46.10301" lon="6.29364">
        <ele>558</ele>
        <time>2018-05-11T07:09:42Z</time>
      </trkpt>
      <trkpt lat="46.10305" lon="6.29345">
        <ele>557</ele>
        <time>2018-05-11T07:09:47Z</time>
      </trkpt>
      <trkpt lat="46.10306" lon="6.2934">
        <ele>558</ele>
        <time>2018-05-11T07:09:48Z</time>
      </trkpt>
      <trkpt lat="46.10307" lon="6.29328">
        <ele>559</ele>
        <time>2018-05-11T07:09:51Z</time>
      </trkpt>
      <trkpt lat="46.10307" lon="6.29313">
        <ele>560</ele>
        <time>2018-05-11T07:09:53Z</time>
      </trkpt>
      <trkpt lat="46.10307" lon="6.2931">
        <ele>559</ele>
        <time>2018-05-11T07:09:54Z</time>
      </trkpt>
      <trkpt lat="46.10308" lon="6.29297">
        <ele>560</ele>
        <time>2018-05-11T07:09:58Z</time>
      </trkpt>
      <trkpt lat="46.10308" lon="6.29292">
        <ele>560</ele>
        <time>2018-05-11T07:09:59Z</time>
      </trkpt>
      <trkpt lat="46.10307" lon="6.29284">
        <ele>559</ele>
        <time>2018-05-11T07:10:01Z</time>
      </trkpt>
      <trkpt lat="46.10306" lon="6.29279">
        <ele>560</ele>
        <time>2018-05-11T07:10:02Z</time>
      </trkpt>
      <trkpt lat="46.10305" lon="6.29275">
        <ele>561</ele>
        <time>2018-05-11T07:10:03Z</time>
      </trkpt>
      <trkpt lat="46.10302" lon="6.29267">
        <ele>561</ele>
        <time>2018-05-11T07:10:05Z</time>
      </trkpt>
      <trkpt lat="46.10297" lon="6.29253">
        <ele>561</ele>
        <time>2018-05-11T07:10:08Z</time>
      </trkpt>
      <trkpt lat="46.10287" lon="6.29236">
        <ele>562</ele>
        <time>2018-05-11T07:10:10Z</time>
      </trkpt>
      <trkpt lat="46.10284" lon="6.29232">
        <ele>563</ele>
        <time>2018-05-11T07:10:11Z</time>
      </trkpt>
      <trkpt lat="46.10276" lon="6.29217">
        <ele>564</ele>
        <time>2018-05-11T07:10:15Z</time>
      </trkpt>
      <trkpt lat="46.1027" lon="6.29206">
        <ele>565</ele>
        <time>2018-05-11T07:10:17Z</time>
      </trkpt>
      <trkpt lat="46.10264" lon="6.29188">
        <ele>566</ele>
        <time>2018-05-11T07:10:20Z</time>
      </trkpt>
      <trkpt lat="46.10257" lon="6.29172">
        <ele>565</ele>
        <time>2018-05-11T07:10:23Z</time>
      </trkpt>
      <trkpt lat="46.10252" lon="6.29154">
        <ele>564</ele>
        <time>2018-05-11T07:10:26Z</time>
      </trkpt>
      <trkpt lat="46.1025" lon="6.29133">
        <ele>565</ele>
        <time>2018-05-11T07:10:29Z</time>
      </trkpt>
      <trkpt lat="46.1025" lon="6.29126">
        <ele>565</ele>
        <time>2018-05-11T07:10:30Z</time>
      </trkpt>
      <trkpt lat="46.1025" lon="6.29113">
        <ele>565</ele>
        <time>2018-05-11T07:10:32Z</time>
      </trkpt>
      <trkpt lat="46.10251" lon="6.291">
        <ele>566</ele>
        <time>2018-05-11T07:10:34Z</time>
      </trkpt>
      <trkpt lat="46.10249" lon="6.29095">
        <ele>566</ele>
        <time>2018-05-11T07:10:35Z</time>
      </trkpt>
      <trkpt lat="46.10248" lon="6.29088">
        <ele>566</ele>
        <time>2018-05-11T07:10:36Z</time>
      </trkpt>
      <trkpt lat="46.10246" lon="6.29066">
        <ele>564</ele>
        <time>2018-05-11T07:10:39Z</time>
      </trkpt>
      <trkpt lat="46.10249" lon="6.2906">
        <ele>565</ele>
        <time>2018-05-11T07:10:40Z</time>
      </trkpt>
      <trkpt lat="46.10253" lon="6.2904">
        <ele>565</ele>
        <time>2018-05-11T07:10:43Z</time>
      </trkpt>
      <trkpt lat="46.10254" lon="6.29034">
        <ele>565</ele>
        <time>2018-05-11T07:10:44Z</time>
      </trkpt>
      <trkpt lat="46.10256" lon="6.29028">
        <ele>566</ele>
        <time>2018-05-11T07:10:45Z</time>
      </trkpt>
      <trkpt lat="46.10254" lon="6.29014">
        <ele>565</ele>
        <time>2018-05-11T07:10:47Z</time>
      </trkpt>
      <trkpt lat="46.10252" lon="6.29008">
        <ele>565</ele>
        <time>2018-05-11T07:10:48Z</time>
      </trkpt>
      <trkpt lat="46.10256" lon="6.29003">
        <ele>566</ele>
        <time>2018-05-11T07:10:49Z</time>
      </trkpt>
      <trkpt lat="46.10255" lon="6.28995">
        <ele>566</ele>
        <time>2018-05-11T07:10:50Z</time>
      </trkpt>
      <trkpt lat="46.10253" lon="6.28988">
        <ele>565</ele>
        <time>2018-05-11T07:10:51Z</time>
      </trkpt>
      <trkpt lat="46.10254" lon="6.28981">
        <ele>566</ele>
        <time>2018-05-11T07:10:52Z</time>
      </trkpt>
      <trkpt lat="46.10255" lon="6.28975">
        <ele>566</ele>
        <time>2018-05-11T07:10:53Z</time>
      </trkpt>
      <trkpt lat="46.10254" lon="6.28968">
        <ele>567</ele>
        <time>2018-05-11T07:10:54Z</time>
      </trkpt>
      <trkpt lat="46.10252" lon="6.28961">
        <ele>568</ele>
        <time>2018-05-11T07:10:55Z</time>
      </trkpt>
      <trkpt lat="46.10251" lon="6.28956">
        <ele>569</ele>
        <time>2018-05-11T07:10:56Z</time>
      </trkpt>
      <trkpt lat="46.10252" lon="6.2895">
        <ele>569</ele>
        <time>2018-05-11T07:10:57Z</time>
      </trkpt>
      <trkpt lat="46.1025" lon="6.28944">
        <ele>570</ele>
        <time>2018-05-11T07:10:58Z</time>
      </trkpt>
      <trkpt lat="46.10245" lon="6.28937">
        <ele>568</ele>
        <time>2018-05-11T07:10:59Z</time>
      </trkpt>
      <trkpt lat="46.10239" lon="6.28932">
        <ele>567</ele>
        <time>2018-05-11T07:11:00Z</time>
      </trkpt>
      <trkpt lat="46.10239" lon="6.28926">
        <ele>568</ele>
        <time>2018-05-11T07:11:01Z</time>
      </trkpt>
      <trkpt lat="46.10236" lon="6.28915">
        <ele>569</ele>
        <time>2018-05-11T07:11:03Z</time>
      </trkpt>
      <trkpt lat="46.1023" lon="6.28899">
        <ele>570</ele>
        <time>2018-05-11T07:11:06Z</time>
      </trkpt>
      <trkpt lat="46.10228" lon="6.28891">
        <ele>569</ele>
        <time>2018-05-11T07:11:07Z</time>
      </trkpt>
      <trkpt lat="46.10227" lon="6.28879">
        <ele>569</ele>
        <time>2018-05-11T07:11:09Z</time>
      </trkpt>
      <trkpt lat="46.10227" lon="6.28873">
        <ele>569</ele>
        <time>2018-05-11T07:11:10Z</time>
      </trkpt>
      <trkpt lat="46.10232" lon="6.28859">
        <ele>570</ele>
        <time>2018-05-11T07:11:12Z</time>
      </trkpt>
      <trkpt lat="46.10233" lon="6.28852">
        <ele>570</ele>
        <time>2018-05-11T07:11:13Z</time>
      </trkpt>
      <trkpt lat="46.1023" lon="6.28832">
        <ele>571</ele>
        <time>2018-05-11T07:11:16Z</time>
      </trkpt>
      <trkpt lat="46.10224" lon="6.28816">
        <ele>573</ele>
        <time>2018-05-11T07:11:19Z</time>
      </trkpt>
      <trkpt lat="46.10219" lon="6.28807">
        <ele>573</ele>
        <time>2018-05-11T07:11:21Z</time>
      </trkpt>
      <trkpt lat="46.10215" lon="6.28794">
        <ele>572</ele>
        <time>2018-05-11T07:11:25Z</time>
      </trkpt>
      <trkpt lat="46.10215" lon="6.28791">
        <ele>572</ele>
        <time>2018-05-11T07:11:26Z</time>
      </trkpt>
      <trkpt lat="46.10214" lon="6.28789">
        <ele>573</ele>
        <time>2018-05-11T07:11:27Z</time>
      </trkpt>
      <trkpt lat="46.10211" lon="6.28782">
        <ele>574</ele>
        <time>2018-05-11T07:11:29Z</time>
      </trkpt>
      <trkpt lat="46.10207" lon="6.28766">
        <ele>577</ele>
        <time>2018-05-11T07:11:33Z</time>
      </trkpt>
      <trkpt lat="46.10205" lon="6.28762">
        <ele>577</ele>
        <time>2018-05-11T07:11:34Z</time>
      </trkpt>
      <trkpt lat="46.102" lon="6.28744">
        <ele>576</ele>
        <time>2018-05-11T07:11:38Z</time>
      </trkpt>
      <trkpt lat="46.10197" lon="6.28723">
        <ele>576</ele>
        <time>2018-05-11T07:11:42Z</time>
      </trkpt>
      <trkpt lat="46.10196" lon="6.28718">
        <ele>576</ele>
        <time>2018-05-11T07:11:43Z</time>
      </trkpt>
      <trkpt lat="46.10192" lon="6.28708">
        <ele>577</ele>
        <time>2018-05-11T07:11:45Z</time>
      </trkpt>
      <trkpt lat="46.10188" lon="6.28689">
        <ele>578</ele>
        <time>2018-05-11T07:11:49Z</time>
      </trkpt>
      <trkpt lat="46.10187" lon="6.28684">
        <ele>579</ele>
        <time>2018-05-11T07:11:50Z</time>
      </trkpt>
      <trkpt lat="46.10186" lon="6.2868">
        <ele>579</ele>
        <time>2018-05-11T07:11:51Z</time>
      </trkpt>
      <trkpt lat="46.10184" lon="6.28675">
        <ele>579</ele>
        <time>2018-05-11T07:11:52Z</time>
      </trkpt>
      <trkpt lat="46.10183" lon="6.28671">
        <ele>581</ele>
        <time>2018-05-11T07:11:53Z</time>
      </trkpt>
      <trkpt lat="46.10182" lon="6.28667">
        <ele>580</ele>
        <time>2018-05-11T07:11:54Z</time>
      </trkpt>
      <trkpt lat="46.10173" lon="6.2865">
        <ele>580</ele>
        <time>2018-05-11T07:11:58Z</time>
      </trkpt>
      <trkpt lat="46.10171" lon="6.28647">
        <ele>580</ele>
        <time>2018-05-11T07:11:59Z</time>
      </trkpt>
      <trkpt lat="46.10169" lon="6.28644">
        <ele>578</ele>
        <time>2018-05-11T07:12:00Z</time>
      </trkpt>
      <trkpt lat="46.10163" lon="6.28631">
        <ele>580</ele>
        <time>2018-05-11T07:12:03Z</time>
      </trkpt>
      <trkpt lat="46.10156" lon="6.28624">
        <ele>579</ele>
        <time>2018-05-11T07:12:05Z</time>
      </trkpt>
      <trkpt lat="46.10144" lon="6.28611">
        <ele>577</ele>
        <time>2018-05-11T07:12:07Z</time>
      </trkpt>
      <trkpt lat="46.10142" lon="6.28606">
        <ele>578</ele>
        <time>2018-05-11T07:12:09Z</time>
      </trkpt>
      <trkpt lat="46.10137" lon="6.286">
        <ele>579</ele>
        <time>2018-05-11T07:12:10Z</time>
      </trkpt>
      <trkpt lat="46.10135" lon="6.28595">
        <ele>580</ele>
        <time>2018-05-11T07:12:11Z</time>
      </trkpt>
      <trkpt lat="46.10134" lon="6.28594">
        <ele>581</ele>
        <time>2018-05-11T07:12:12Z</time>
      </trkpt>
      <trkpt lat="46.10132" lon="6.28587">
        <ele>580</ele>
        <time>2018-05-11T07:12:14Z</time>
      </trkpt>
      <trkpt lat="46.1012" lon="6.2857">
        <ele>579</ele>
        <time>2018-05-11T07:12:17Z</time>
      </trkpt>
      <trkpt lat="46.10116" lon="6.28567">
        <ele>580</ele>
        <time>2018-05-11T07:12:18Z</time>
      </trkpt>
      <trkpt lat="46.10104" lon="6.28556">
        <ele>582</ele>
        <time>2018-05-11T07:12:21Z</time>
      </trkpt>
      <trkpt lat="46.10099" lon="6.28548">
        <ele>582</ele>
        <time>2018-05-11T07:12:23Z</time>
      </trkpt>
      <trkpt lat="46.10097" lon="6.28544">
        <ele>582</ele>
        <time>2018-05-11T07:12:24Z</time>
      </trkpt>
      <trkpt lat="46.10095" lon="6.28542">
        <ele>582</ele>
        <time>2018-05-11T07:12:25Z</time>
      </trkpt>
      <trkpt lat="46.10094" lon="6.28539">
        <ele>581</ele>
        <time>2018-05-11T07:12:26Z</time>
      </trkpt>
      <trkpt lat="46.10091" lon="6.28525">
        <ele>579</ele>
        <time>2018-05-11T07:12:30Z</time>
      </trkpt>
      <trkpt lat="46.1009" lon="6.28521">
        <ele>578</ele>
        <time>2018-05-11T07:12:31Z</time>
      </trkpt>
      <trkpt lat="46.10087" lon="6.28515">
        <ele>578</ele>
        <time>2018-05-11T07:12:33Z</time>
      </trkpt>
      <trkpt lat="46.1008" lon="6.28508">
        <ele>578</ele>
        <time>2018-05-11T07:12:34Z</time>
      </trkpt>
      <trkpt lat="46.10078" lon="6.28504">
        <ele>581</ele>
        <time>2018-05-11T07:12:36Z</time>
      </trkpt>
      <trkpt lat="46.10076" lon="6.285">
        <ele>582</ele>
        <time>2018-05-11T07:12:38Z</time>
      </trkpt>
      <trkpt lat="46.10074" lon="6.28495">
        <ele>584</ele>
        <time>2018-05-11T07:12:40Z</time>
      </trkpt>
      <trkpt lat="46.10073" lon="6.28492">
        <ele>583</ele>
        <time>2018-05-11T07:12:41Z</time>
      </trkpt>
      <trkpt lat="46.10067" lon="6.28484">
        <ele>586</ele>
        <time>2018-05-11T07:12:44Z</time>
      </trkpt>
      <trkpt lat="46.10065" lon="6.28482">
        <ele>585</ele>
        <time>2018-05-11T07:12:45Z</time>
      </trkpt>
      <trkpt lat="46.10063" lon="6.28479">
        <ele>586</ele>
        <time>2018-05-11T07:12:46Z</time>
      </trkpt>
      <trkpt lat="46.1006" lon="6.28478">
        <ele>587</ele>
        <time>2018-05-11T07:12:47Z</time>
      </trkpt>
      <trkpt lat="46.10051" lon="6.28478">
        <ele>587</ele>
        <time>2018-05-11T07:12:50Z</time>
      </trkpt>
      <trkpt lat="46.10045" lon="6.2848">
        <ele>586</ele>
        <time>2018-05-11T07:12:52Z</time>
      </trkpt>
      <trkpt lat="46.10034" lon="6.28488">
        <ele>586</ele>
        <time>2018-05-11T07:12:54Z</time>
      </trkpt>
      <trkpt lat="46.10028" lon="6.28492">
        <ele>585</ele>
        <time>2018-05-11T07:12:55Z</time>
      </trkpt>
      <trkpt lat="46.10023" lon="6.28494">
        <ele>585</ele>
        <time>2018-05-11T07:12:56Z</time>
      </trkpt>
      <trkpt lat="46.1001" lon="6.28493">
        <ele>584</ele>
        <time>2018-05-11T07:12:59Z</time>
      </trkpt>
      <trkpt lat="46.10002" lon="6.28489">
        <ele>583</ele>
        <time>2018-05-11T07:13:01Z</time>
      </trkpt>
      <trkpt lat="46.09998" lon="6.28486">
        <ele>584</ele>
        <time>2018-05-11T07:13:02Z</time>
      </trkpt>
      <trkpt lat="46.09987" lon="6.28474">
        <ele>584</ele>
        <time>2018-05-11T07:13:05Z</time>
      </trkpt>
      <trkpt lat="46.09972" lon="6.28456">
        <ele>580</ele>
        <time>2018-05-11T07:13:09Z</time>
      </trkpt>
      <trkpt lat="46.09969" lon="6.28449">
        <ele>581</ele>
        <time>2018-05-11T07:13:10Z</time>
      </trkpt>
      <trkpt lat="46.09982" lon="6.28418">
        <ele>586</ele>
        <time>2018-05-11T07:13:16Z</time>
      </trkpt>
      <trkpt lat="46.09988" lon="6.28404">
        <ele>586</ele>
        <time>2018-05-11T07:13:19Z</time>
      </trkpt>
      <trkpt lat="46.09991" lon="6.28401">
        <ele>586</ele>
        <time>2018-05-11T07:13:20Z</time>
      </trkpt>
      <trkpt lat="46.09994" lon="6.28392">
        <ele>587</ele>
        <time>2018-05-11T07:13:23Z</time>
      </trkpt>
      <trkpt lat="46.09996" lon="6.28383">
        <ele>590</ele>
        <time>2018-05-11T07:13:25Z</time>
      </trkpt>
      <trkpt lat="46.09996" lon="6.2838">
        <ele>590</ele>
        <time>2018-05-11T07:13:26Z</time>
      </trkpt>
      <trkpt lat="46.09997" lon="6.28367">
        <ele>591</ele>
        <time>2018-05-11T07:13:29Z</time>
      </trkpt>
      <trkpt lat="46.09998" lon="6.28353">
        <ele>591</ele>
        <time>2018-05-11T07:13:32Z</time>
      </trkpt>
      <trkpt lat="46.09997" lon="6.28345">
        <ele>591</ele>
        <time>2018-05-11T07:13:34Z</time>
      </trkpt>
      <trkpt lat="46.09997" lon="6.2834">
        <ele>591</ele>
        <time>2018-05-11T07:13:35Z</time>
      </trkpt>
      <trkpt lat="46.09993" lon="6.28327">
        <ele>591</ele>
        <time>2018-05-11T07:13:38Z</time>
      </trkpt>
      <trkpt lat="46.09984" lon="6.28311">
        <ele>590</ele>
        <time>2018-05-11T07:13:40Z</time>
      </trkpt>
      <trkpt lat="46.09978" lon="6.28303">
        <ele>589</ele>
        <time>2018-05-11T07:13:42Z</time>
      </trkpt>
      <trkpt lat="46.09976" lon="6.28298">
        <ele>588</ele>
        <time>2018-05-11T07:13:43Z</time>
      </trkpt>
      <trkpt lat="46.09975" lon="6.28293">
        <ele>588</ele>
        <time>2018-05-11T07:13:44Z</time>
      </trkpt>
      <trkpt lat="46.09972" lon="6.28289">
        <ele>589</ele>
        <time>2018-05-11T07:13:45Z</time>
      </trkpt>
      <trkpt lat="46.09968" lon="6.28285">
        <ele>590</ele>
        <time>2018-05-11T07:13:46Z</time>
      </trkpt>
      <trkpt lat="46.09962" lon="6.28282">
        <ele>591</ele>
        <time>2018-05-11T07:13:47Z</time>
      </trkpt>
      <trkpt lat="46.0996" lon="6.28278">
        <ele>592</ele>
        <time>2018-05-11T07:13:48Z</time>
      </trkpt>
      <trkpt lat="46.09946" lon="6.28266">
        <ele>592</ele>
        <time>2018-05-11T07:13:51Z</time>
      </trkpt>
      <trkpt lat="46.09943" lon="6.28261">
        <ele>593</ele>
        <time>2018-05-11T07:13:52Z</time>
      </trkpt>
      <trkpt lat="46.09934" lon="6.28243">
        <ele>593</ele>
        <time>2018-05-11T07:13:55Z</time>
      </trkpt>
      <trkpt lat="46.09929" lon="6.28237">
        <ele>592</ele>
        <time>2018-05-11T07:13:56Z</time>
      </trkpt>
      <trkpt lat="46.09925" lon="6.28228">
        <ele>592</ele>
        <time>2018-05-11T07:13:57Z</time>
      </trkpt>
      <trkpt lat="46.09921" lon="6.28224">
        <ele>591</ele>
        <time>2018-05-11T07:13:58Z</time>
      </trkpt>
      <trkpt lat="46.09921" lon="6.2822">
        <ele>591</ele>
        <time>2018-05-11T07:13:59Z</time>
      </trkpt>
      <trkpt lat="46.09923" lon="6.28213">
        <ele>590</ele>
        <time>2018-05-11T07:14:00Z</time>
      </trkpt>
      <trkpt lat="46.09922" lon="6.28207">
        <ele>589</ele>
        <time>2018-05-11T07:14:01Z</time>
      </trkpt>
      <trkpt lat="46.09922" lon="6.28201">
        <ele>590</ele>
        <time>2018-05-11T07:14:02Z</time>
      </trkpt>
      <trkpt lat="46.09929" lon="6.28187">
        <ele>591</ele>
        <time>2018-05-11T07:14:05Z</time>
      </trkpt>
      <trkpt lat="46.09944" lon="6.28179">
        <ele>590</ele>
        <time>2018-05-11T07:14:08Z</time>
      </trkpt>
      <trkpt lat="46.09953" lon="6.28174">
        <ele>589</ele>
        <time>2018-05-11T07:14:10Z</time>
      </trkpt>
      <trkpt lat="46.09965" lon="6.28164">
        <ele>589</ele>
        <time>2018-05-11T07:14:13Z</time>
      </trkpt>
      <trkpt lat="46.09973" lon="6.28159">
        <ele>589</ele>
        <time>2018-05-11T07:14:15Z</time>
      </trkpt>
      <trkpt lat="46.09985" lon="6.28157">
        <ele>591</ele>
        <time>2018-05-11T07:14:18Z</time>
      </trkpt>
      <trkpt lat="46.09989" lon="6.28157">
        <ele>592</ele>
        <time>2018-05-11T07:14:19Z</time>
      </trkpt>
      <trkpt lat="46.09993" lon="6.28159">
        <ele>594</ele>
        <time>2018-05-11T07:14:20Z</time>
      </trkpt>
      <trkpt lat="46.09998" lon="6.28159">
        <ele>594</ele>
        <time>2018-05-11T07:14:21Z</time>
      </trkpt>
      <trkpt lat="46.10002" lon="6.2816">
        <ele>595</ele>
        <time>2018-05-11T07:14:22Z</time>
      </trkpt>
      <trkpt lat="46.10006" lon="6.2816">
        <ele>593</ele>
        <time>2018-05-11T07:14:23Z</time>
      </trkpt>
      <trkpt lat="46.10014" lon="6.28156">
        <ele>594</ele>
        <time>2018-05-11T07:14:25Z</time>
      </trkpt>
      <trkpt lat="46.10018" lon="6.28153">
        <ele>594</ele>
        <time>2018-05-11T07:14:26Z</time>
      </trkpt>
      <trkpt lat="46.10022" lon="6.28145">
        <ele>596</ele>
        <time>2018-05-11T07:14:28Z</time>
      </trkpt>
      <trkpt lat="46.10025" lon="6.28134">
        <ele>596</ele>
        <time>2018-05-11T07:14:30Z</time>
      </trkpt>
      <trkpt lat="46.10027" lon="6.28129">
        <ele>596</ele>
        <time>2018-05-11T07:14:31Z</time>
      </trkpt>
      <trkpt lat="46.10039" lon="6.2811">
        <ele>599</ele>
        <time>2018-05-11T07:14:35Z</time>
      </trkpt>
      <trkpt lat="46.10044" lon="6.28101">
        <ele>599</ele>
        <time>2018-05-11T07:14:37Z</time>
      </trkpt>
      <trkpt lat="46.10044" lon="6.28095">
        <ele>599</ele>
        <time>2018-05-11T07:14:38Z</time>
      </trkpt>
      <trkpt lat="46.10045" lon="6.28089">
        <ele>599</ele>
        <time>2018-05-11T07:14:39Z</time>
      </trkpt>
      <trkpt lat="46.10044" lon="6.28077">
        <ele>599</ele>
        <time>2018-05-11T07:14:41Z</time>
      </trkpt>
      <trkpt lat="46.10041" lon="6.28068">
        <ele>600</ele>
        <time>2018-05-11T07:14:43Z</time>
      </trkpt>
      <trkpt lat="46.10038" lon="6.28061">
        <ele>600</ele>
        <time>2018-05-11T07:14:44Z</time>
      </trkpt>
      <trkpt lat="46.10037" lon="6.28056">
        <ele>600</ele>
        <time>2018-05-11T07:14:45Z</time>
      </trkpt>
      <trkpt lat="46.10039" lon="6.28037">
        <ele>599</ele>
        <time>2018-05-11T07:14:48Z</time>
      </trkpt>
      <trkpt lat="46.1004" lon="6.28025">
        <ele>601</ele>
        <time>2018-05-11T07:14:50Z</time>
      </trkpt>
      <trkpt lat="46.10042" lon="6.28012">
        <ele>600</ele>
        <time>2018-05-11T07:14:52Z</time>
      </trkpt>
      <trkpt lat="46.10043" lon="6.27991">
        <ele>602</ele>
        <time>2018-05-11T07:14:56Z</time>
      </trkpt>
      <trkpt lat="46.10046" lon="6.27977">
        <ele>604</ele>
        <time>2018-05-11T07:14:59Z</time>
      </trkpt>
      <trkpt lat="46.10047" lon="6.27966">
        <ele>606</ele>
        <time>2018-05-11T07:15:01Z</time>
      </trkpt>
      <trkpt lat="46.10048" lon="6.2796">
        <ele>606</ele>
        <time>2018-05-11T07:15:02Z</time>
      </trkpt>
      <trkpt lat="46.10049" lon="6.27955">
        <ele>606</ele>
        <time>2018-05-11T07:15:03Z</time>
      </trkpt>
      <trkpt lat="46.1005" lon="6.2795">
        <ele>606</ele>
        <time>2018-05-11T07:15:05Z</time>
      </trkpt>
      <trkpt lat="46.10053" lon="6.27939">
        <ele>606</ele>
        <time>2018-05-11T07:15:08Z</time>
      </trkpt>
      <trkpt lat="46.10055" lon="6.27935">
        <ele>606</ele>
        <time>2018-05-11T07:15:09Z</time>
      </trkpt>
      <trkpt lat="46.10054" lon="6.27931">
        <ele>607</ele>
        <time>2018-05-11T07:15:10Z</time>
      </trkpt>
      <trkpt lat="46.10056" lon="6.27927">
        <ele>606</ele>
        <time>2018-05-11T07:15:11Z</time>
      </trkpt>
      <trkpt lat="46.10056" lon="6.27923">
        <ele>607</ele>
        <time>2018-05-11T07:15:12Z</time>
      </trkpt>
      <trkpt lat="46.10059" lon="6.27912">
        <ele>606</ele>
        <time>2018-05-11T07:15:14Z</time>
      </trkpt>
      <trkpt lat="46.10063" lon="6.27903">
        <ele>606</ele>
        <time>2018-05-11T07:15:17Z</time>
      </trkpt>
      <trkpt lat="46.10065" lon="6.27899">
        <ele>607</ele>
        <time>2018-05-11T07:15:18Z</time>
      </trkpt>
      <trkpt lat="46.10069" lon="6.27887">
        <ele>607</ele>
        <time>2018-05-11T07:15:21Z</time>
      </trkpt>
      <trkpt lat="46.10071" lon="6.27874">
        <ele>608</ele>
        <time>2018-05-11T07:15:22Z</time>
      </trkpt>
      <trkpt lat="46.10072" lon="6.2787">
        <ele>608</ele>
        <time>2018-05-11T07:15:23Z</time>
      </trkpt>
      <trkpt lat="46.10072" lon="6.27858">
        <ele>607</ele>
        <time>2018-05-11T07:15:25Z</time>
      </trkpt>
      <trkpt lat="46.10071" lon="6.27852">
        <ele>608</ele>
        <time>2018-05-11T07:15:26Z</time>
      </trkpt>
      <trkpt lat="46.10072" lon="6.27841">
        <ele>608</ele>
        <time>2018-05-11T07:15:28Z</time>
      </trkpt>
      <trkpt lat="46.10072" lon="6.27835">
        <ele>608</ele>
        <time>2018-05-11T07:15:29Z</time>
      </trkpt>
      <trkpt lat="46.10074" lon="6.27829">
        <ele>609</ele>
        <time>2018-05-11T07:15:30Z</time>
      </trkpt>
      <trkpt lat="46.10075" lon="6.27823">
        <ele>608</ele>
        <time>2018-05-11T07:15:31Z</time>
      </trkpt>
      <trkpt lat="46.10074" lon="6.27812">
        <ele>610</ele>
        <time>2018-05-11T07:15:33Z</time>
      </trkpt>
      <trkpt lat="46.10072" lon="6.27806">
        <ele>610</ele>
        <time>2018-05-11T07:15:34Z</time>
      </trkpt>
      <trkpt lat="46.10073" lon="6.27794">
        <ele>611</ele>
        <time>2018-05-11T07:15:36Z</time>
      </trkpt>
      <trkpt lat="46.10073" lon="6.27776">
        <ele>611</ele>
        <time>2018-05-11T07:15:39Z</time>
      </trkpt>
      <trkpt lat="46.10075" lon="6.27771">
        <ele>611</ele>
        <time>2018-05-11T07:15:40Z</time>
      </trkpt>
      <trkpt lat="46.10076" lon="6.27765">
        <ele>611</ele>
        <time>2018-05-11T07:15:41Z</time>
      </trkpt>
      <trkpt lat="46.10077" lon="6.27737">
        <ele>610</ele>
        <time>2018-05-11T07:15:46Z</time>
      </trkpt>
      <trkpt lat="46.10078" lon="6.27731">
        <ele>611</ele>
        <time>2018-05-11T07:15:47Z</time>
      </trkpt>
      <trkpt lat="46.10079" lon="6.27714">
        <ele>611</ele>
        <time>2018-05-11T07:15:50Z</time>
      </trkpt>
      <trkpt lat="46.10081" lon="6.27709">
        <ele>611</ele>
        <time>2018-05-11T07:15:51Z</time>
      </trkpt>
      <trkpt lat="46.10087" lon="6.27699">
        <ele>611</ele>
        <time>2018-05-11T07:15:53Z</time>
      </trkpt>
      <trkpt lat="46.10089" lon="6.27695">
        <ele>609</ele>
        <time>2018-05-11T07:15:54Z</time>
      </trkpt>
      <trkpt lat="46.10091" lon="6.27692">
        <ele>609</ele>
        <time>2018-05-11T07:15:55Z</time>
      </trkpt>
      <trkpt lat="46.10096" lon="6.27683">
        <ele>610</ele>
        <time>2018-05-11T07:15:57Z</time>
      </trkpt>
      <trkpt lat="46.10096" lon="6.27681">
        <ele>611</ele>
        <time>2018-05-11T07:15:58Z</time>
      </trkpt>
      <trkpt lat="46.10096" lon="6.27674">
        <ele>611</ele>
        <time>2018-05-11T07:15:59Z</time>
      </trkpt>
      <trkpt lat="46.101" lon="6.27653">
        <ele>613</ele>
        <time>2018-05-11T07:16:03Z</time>
      </trkpt>
      <trkpt lat="46.10102" lon="6.27648">
        <ele>613</ele>
        <time>2018-05-11T07:16:04Z</time>
      </trkpt>
      <trkpt lat="46.10103" lon="6.27639">
        <ele>613</ele>
        <time>2018-05-11T07:16:06Z</time>
      </trkpt>
      <trkpt lat="46.10106" lon="6.27623">
        <ele>614</ele>
        <time>2018-05-11T07:16:09Z</time>
      </trkpt>
      <trkpt lat="46.10107" lon="6.27607">
        <ele>614</ele>
        <time>2018-05-11T07:16:12Z</time>
      </trkpt>
      <trkpt lat="46.10108" lon="6.27597">
        <ele>614</ele>
        <time>2018-05-11T07:16:14Z</time>
      </trkpt>
      <trkpt lat="46.10108" lon="6.27595">
        <ele>615</ele>
        <time>2018-05-11T07:16:15Z</time>
      </trkpt>
      <trkpt lat="46.10109" lon="6.27587">
        <ele>616</ele>
        <time>2018-05-11T07:16:17Z</time>
      </trkpt>
      <trkpt lat="46.10109" lon="6.27579">
        <ele>616</ele>
        <time>2018-05-11T07:16:19Z</time>
      </trkpt>
      <trkpt lat="46.1011" lon="6.27574">
        <ele>616</ele>
        <time>2018-05-11T07:16:20Z</time>
      </trkpt>
      <trkpt lat="46.10116" lon="6.27556">
        <ele>618</ele>
        <time>2018-05-11T07:16:24Z</time>
      </trkpt>
      <trkpt lat="46.10117" lon="6.27552">
        <ele>618</ele>
        <time>2018-05-11T07:16:25Z</time>
      </trkpt>
      <trkpt lat="46.10117" lon="6.27543">
        <ele>619</ele>
        <time>2018-05-11T07:16:27Z</time>
      </trkpt>
      <trkpt lat="46.10118" lon="6.27538">
        <ele>619</ele>
        <time>2018-05-11T07:16:28Z</time>
      </trkpt>
      <trkpt lat="46.10119" lon="6.27529">
        <ele>621</ele>
        <time>2018-05-11T07:16:30Z</time>
      </trkpt>
      <trkpt lat="46.10117" lon="6.27514">
        <ele>622</ele>
        <time>2018-05-11T07:16:33Z</time>
      </trkpt>
      <trkpt lat="46.10113" lon="6.27496">
        <ele>622</ele>
        <time>2018-05-11T07:16:36Z</time>
      </trkpt>
      <trkpt lat="46.10111" lon="6.2749">
        <ele>623</ele>
        <time>2018-05-11T07:16:38Z</time>
      </trkpt>
      <trkpt lat="46.10109" lon="6.27486">
        <ele>623</ele>
        <time>2018-05-11T07:16:39Z</time>
      </trkpt>
      <trkpt lat="46.10106" lon="6.2748">
        <ele>625</ele>
        <time>2018-05-11T07:16:41Z</time>
      </trkpt>
      <trkpt lat="46.10105" lon="6.27476">
        <ele>626</ele>
        <time>2018-05-11T07:16:42Z</time>
      </trkpt>
      <trkpt lat="46.10103" lon="6.27468">
        <ele>624</ele>
        <time>2018-05-11T07:16:44Z</time>
      </trkpt>
      <trkpt lat="46.10102" lon="6.27452">
        <ele>626</ele>
        <time>2018-05-11T07:16:48Z</time>
      </trkpt>
      <trkpt lat="46.10101" lon="6.27448">
        <ele>626</ele>
        <time>2018-05-11T07:16:49Z</time>
      </trkpt>
      <trkpt lat="46.10101" lon="6.27444">
        <ele>626</ele>
        <time>2018-05-11T07:16:50Z</time>
      </trkpt>
      <trkpt lat="46.101" lon="6.2744">
        <ele>627</ele>
        <time>2018-05-11T07:16:51Z</time>
      </trkpt>
      <trkpt lat="46.101" lon="6.27431">
        <ele>627</ele>
        <time>2018-05-11T07:16:53Z</time>
      </trkpt>
      <trkpt lat="46.101" lon="6.27421">
        <ele>627</ele>
        <time>2018-05-11T07:16:55Z</time>
      </trkpt>
      <trkpt lat="46.10097" lon="6.27409">
        <ele>627</ele>
        <time>2018-05-11T07:16:56Z</time>
      </trkpt>
      <trkpt lat="46.10097" lon="6.27406">
        <ele>627</ele>
        <time>2018-05-11T07:16:57Z</time>
      </trkpt>
      <trkpt lat="46.10097" lon="6.27403">
        <ele>627</ele>
        <time>2018-05-11T07:16:58Z</time>
      </trkpt>
      <trkpt lat="46.10097" lon="6.27399">
        <ele>627</ele>
        <time>2018-05-11T07:16:59Z</time>
      </trkpt>
      <trkpt lat="46.10097" lon="6.27395">
        <ele>628</ele>
        <time>2018-05-11T07:17:00Z</time>
      </trkpt>
      <trkpt lat="46.10095" lon="6.27392">
        <ele>629</ele>
        <time>2018-05-11T07:17:01Z</time>
      </trkpt>
      <trkpt lat="46.10092" lon="6.27371">
        <ele>629</ele>
        <time>2018-05-11T07:17:06Z</time>
      </trkpt>
      <trkpt lat="46.1009" lon="6.27361">
        <ele>629</ele>
        <time>2018-05-11T07:17:08Z</time>
      </trkpt>
      <trkpt lat="46.10089" lon="6.27357">
        <ele>628</ele>
        <time>2018-05-11T07:17:09Z</time>
      </trkpt>
      <trkpt lat="46.10087" lon="6.27347">
        <ele>627</ele>
        <time>2018-05-11T07:17:11Z</time>
      </trkpt>
      <trkpt lat="46.10081" lon="6.27332">
        <ele>628</ele>
        <time>2018-05-11T07:17:15Z</time>
      </trkpt>
      <trkpt lat="46.1008" lon="6.27329">
        <ele>629</ele>
        <time>2018-05-11T07:17:16Z</time>
      </trkpt>
      <trkpt lat="46.10077" lon="6.27317">
        <ele>629</ele>
        <time>2018-05-11T07:17:19Z</time>
      </trkpt>
      <trkpt lat="46.10075" lon="6.27314">
        <ele>628</ele>
        <time>2018-05-11T07:17:20Z</time>
      </trkpt>
      <trkpt lat="46.10074" lon="6.27306">
        <ele>629</ele>
        <time>2018-05-11T07:17:22Z</time>
      </trkpt>
      <trkpt lat="46.10073" lon="6.27302">
        <ele>629</ele>
        <time>2018-05-11T07:17:23Z</time>
      </trkpt>
      <trkpt lat="46.10071" lon="6.27299">
        <ele>629</ele>
        <time>2018-05-11T07:17:24Z</time>
      </trkpt>
      <trkpt lat="46.10069" lon="6.27288">
        <ele>629</ele>
        <time>2018-05-11T07:17:27Z</time>
      </trkpt>
      <trkpt lat="46.10068" lon="6.27281">
        <ele>628</ele>
        <time>2018-05-11T07:17:29Z</time>
      </trkpt>
      <trkpt lat="46.10066" lon="6.27275">
        <ele>628</ele>
        <time>2018-05-11T07:17:31Z</time>
      </trkpt>
      <trkpt lat="46.10064" lon="6.27273">
        <ele>629</ele>
        <time>2018-05-11T07:17:32Z</time>
      </trkpt>
      <trkpt lat="46.1006" lon="6.27271">
        <ele>629</ele>
        <time>2018-05-11T07:17:34Z</time>
      </trkpt>
      <trkpt lat="46.10058" lon="6.2727">
        <ele>629</ele>
        <time>2018-05-11T07:17:35Z</time>
      </trkpt>
      <trkpt lat="46.10052" lon="6.27268">
        <ele>629</ele>
        <time>2018-05-11T07:17:42Z</time>
      </trkpt>
      <trkpt lat="46.10035" lon="6.27268">
        <ele>631</ele>
        <time>2018-05-11T07:19:44Z</time>
      </trkpt>
      <trkpt lat="46.10029" lon="6.27269">
        <ele>633</ele>
        <time>2018-05-11T07:19:46Z</time>
      </trkpt>
      <trkpt lat="46.10023" lon="6.2727">
        <ele>633</ele>
        <time>2018-05-11T07:19:48Z</time>
      </trkpt>
      <trkpt lat="46.10018" lon="6.27272">
        <ele>633</ele>
        <time>2018-05-11T07:19:49Z</time>
      </trkpt>
      <trkpt lat="46.10016" lon="6.27273">
        <ele>633</ele>
        <time>2018-05-11T07:19:50Z</time>
      </trkpt>
      <trkpt lat="46.10003" lon="6.27281">
        <ele>635</ele>
        <time>2018-05-11T07:19:55Z</time>
      </trkpt>
      <trkpt lat="46.09995" lon="6.27286">
        <ele>634</ele>
        <time>2018-05-11T07:19:58Z</time>
      </trkpt>
      <trkpt lat="46.09981" lon="6.27291">
        <ele>638</ele>
        <time>2018-05-11T07:20:02Z</time>
      </trkpt>
      <trkpt lat="46.09971" lon="6.27296">
        <ele>638</ele>
        <time>2018-05-11T07:20:03Z</time>
      </trkpt>
      <trkpt lat="46.09961" lon="6.27297">
        <ele>637</ele>
        <time>2018-05-11T07:20:08Z</time>
      </trkpt>
      <trkpt lat="46.09959" lon="6.27297">
        <ele>638</ele>
        <time>2018-05-11T07:20:09Z</time>
      </trkpt>
      <trkpt lat="46.09942" lon="6.2731">
        <ele>638</ele>
        <time>2018-05-11T07:20:12Z</time>
      </trkpt>
      <trkpt lat="46.09933" lon="6.27324">
        <ele>639</ele>
        <time>2018-05-11T07:20:16Z</time>
      </trkpt>
      <trkpt lat="46.09904" lon="6.27323">
        <ele>639</ele>
        <time>2018-05-11T07:20:25Z</time>
      </trkpt>
      <trkpt lat="46.09899" lon="6.27318">
        <ele>640</ele>
        <time>2018-05-11T07:20:27Z</time>
      </trkpt>
      <trkpt lat="46.09889" lon="6.27313">
        <ele>640</ele>
        <time>2018-05-11T07:20:29Z</time>
      </trkpt>
      <trkpt lat="46.09887" lon="6.27311">
        <ele>640</ele>
        <time>2018-05-11T07:20:30Z</time>
      </trkpt>
      <trkpt lat="46.09886" lon="6.27308">
        <ele>640</ele>
        <time>2018-05-11T07:20:31Z</time>
      </trkpt>
      <trkpt lat="46.09882" lon="6.27303">
        <ele>640</ele>
        <time>2018-05-11T07:20:33Z</time>
      </trkpt>
      <trkpt lat="46.09879" lon="6.27297">
        <ele>640</ele>
        <time>2018-05-11T07:20:35Z</time>
      </trkpt>
      <trkpt lat="46.09877" lon="6.27295">
        <ele>640</ele>
        <time>2018-05-11T07:20:36Z</time>
      </trkpt>
      <trkpt lat="46.09873" lon="6.27292">
        <ele>640</ele>
        <time>2018-05-11T07:20:38Z</time>
      </trkpt>
      <trkpt lat="46.09867" lon="6.2729">
        <ele>640</ele>
        <time>2018-05-11T07:20:40Z</time>
      </trkpt>
      <trkpt lat="46.09857" lon="6.27289">
        <ele>639</ele>
        <time>2018-05-11T07:20:42Z</time>
      </trkpt>
      <trkpt lat="46.09856" lon="6.27288">
        <ele>638</ele>
        <time>2018-05-11T07:20:43Z</time>
      </trkpt>
      <trkpt lat="46.09851" lon="6.27288">
        <ele>639</ele>
        <time>2018-05-11T07:20:45Z</time>
      </trkpt>
      <trkpt lat="46.09839" lon="6.27286">
        <ele>639</ele>
        <time>2018-05-11T07:20:50Z</time>
      </trkpt>
      <trkpt lat="46.09827" lon="6.27286">
        <ele>639</ele>
        <time>2018-05-11T07:20:54Z</time>
      </trkpt>
      <trkpt lat="46.09802" lon="6.27288">
        <ele>643</ele>
        <time>2018-05-11T07:21:03Z</time>
      </trkpt>
      <trkpt lat="46.09797" lon="6.27289">
        <ele>643</ele>
        <time>2018-05-11T07:21:05Z</time>
      </trkpt>
      <trkpt lat="46.09792" lon="6.27292">
        <ele>645</ele>
        <time>2018-05-11T07:21:07Z</time>
      </trkpt>
      <trkpt lat="46.09785" lon="6.27298">
        <ele>645</ele>
        <time>2018-05-11T07:21:10Z</time>
      </trkpt>
      <trkpt lat="46.09782" lon="6.27303">
        <ele>646</ele>
        <time>2018-05-11T07:21:12Z</time>
      </trkpt>
      <trkpt lat="46.09781" lon="6.27304">
        <ele>645</ele>
        <time>2018-05-11T07:21:13Z</time>
      </trkpt>
      <trkpt lat="46.09778" lon="6.27303">
        <ele>647</ele>
        <time>2018-05-11T07:21:17Z</time>
      </trkpt>
      <trkpt lat="46.09778" lon="6.27298">
        <ele>647</ele>
        <time>2018-05-11T07:21:19Z</time>
      </trkpt>
      <trkpt lat="46.09778" lon="6.27295">
        <ele>647</ele>
        <time>2018-05-11T07:21:20Z</time>
      </trkpt>
      <trkpt lat="46.09779" lon="6.27292">
        <ele>647</ele>
        <time>2018-05-11T07:21:21Z</time>
      </trkpt>
      <trkpt lat="46.09777" lon="6.27281">
        <ele>647</ele>
        <time>2018-05-11T07:21:23Z</time>
      </trkpt>
      <trkpt lat="46.09778" lon="6.27277">
        <ele>647</ele>
        <time>2018-05-11T07:21:24Z</time>
      </trkpt>
      <trkpt lat="46.09781" lon="6.27258">
        <ele>650</ele>
        <time>2018-05-11T07:21:28Z</time>
      </trkpt>
      <trkpt lat="46.09781" lon="6.27254">
        <ele>650</ele>
        <time>2018-05-11T07:21:29Z</time>
      </trkpt>
      <trkpt lat="46.09783" lon="6.2725">
        <ele>650</ele>
        <time>2018-05-11T07:21:30Z</time>
      </trkpt>
      <trkpt lat="46.09786" lon="6.27237">
        <ele>651</ele>
        <time>2018-05-11T07:21:33Z</time>
      </trkpt>
      <trkpt lat="46.09788" lon="6.27233">
        <ele>651</ele>
        <time>2018-05-11T07:21:34Z</time>
      </trkpt>
      <trkpt lat="46.0979" lon="6.27228">
        <ele>652</ele>
        <time>2018-05-11T07:21:35Z</time>
      </trkpt>
      <trkpt lat="46.09792" lon="6.27224">
        <ele>652</ele>
        <time>2018-05-11T07:21:36Z</time>
      </trkpt>
      <trkpt lat="46.09802" lon="6.27209">
        <ele>654</ele>
        <time>2018-05-11T07:21:40Z</time>
      </trkpt>
      <trkpt lat="46.09814" lon="6.27193">
        <ele>655</ele>
        <time>2018-05-11T07:21:43Z</time>
      </trkpt>
      <trkpt lat="46.09816" lon="6.27192">
        <ele>655</ele>
        <time>2018-05-11T07:21:44Z</time>
      </trkpt>
      <trkpt lat="46.09831" lon="6.27175">
        <ele>655</ele>
        <time>2018-05-11T07:21:49Z</time>
      </trkpt>
      <trkpt lat="46.0984" lon="6.27166">
        <ele>654</ele>
        <time>2018-05-11T07:21:52Z</time>
      </trkpt>
      <trkpt lat="46.09852" lon="6.27155">
        <ele>655</ele>
        <time>2018-05-11T07:21:56Z</time>
      </trkpt>
      <trkpt lat="46.09863" lon="6.27146">
        <ele>656</ele>
        <time>2018-05-11T07:22:01Z</time>
      </trkpt>
      <trkpt lat="46.09876" lon="6.27133">
        <ele>658</ele>
        <time>2018-05-11T07:22:05Z</time>
      </trkpt>
      <trkpt lat="46.09882" lon="6.27125">
        <ele>658</ele>
        <time>2018-05-11T07:22:08Z</time>
      </trkpt>
      <trkpt lat="46.09893" lon="6.27107">
        <ele>659</ele>
        <time>2018-05-11T07:22:13Z</time>
      </trkpt>
      <trkpt lat="46.09896" lon="6.27099">
        <ele>661</ele>
        <time>2018-05-11T07:22:15Z</time>
      </trkpt>
      <trkpt lat="46.09903" lon="6.27077">
        <ele>661</ele>
        <time>2018-05-11T07:22:20Z</time>
      </trkpt>
      <trkpt lat="46.09909" lon="6.27063">
        <ele>662</ele>
        <time>2018-05-11T07:22:23Z</time>
      </trkpt>
      <trkpt lat="46.09911" lon="6.27052">
        <ele>662</ele>
        <time>2018-05-11T07:22:24Z</time>
      </trkpt>
      <trkpt lat="46.09918" lon="6.27027">
        <ele>664</ele>
        <time>2018-05-11T07:22:29Z</time>
      </trkpt>
      <trkpt lat="46.09918" lon="6.27022">
        <ele>663</ele>
        <time>2018-05-11T07:22:30Z</time>
      </trkpt>
      <trkpt lat="46.09921" lon="6.27013">
        <ele>663</ele>
        <time>2018-05-11T07:22:32Z</time>
      </trkpt>
      <trkpt lat="46.09928" lon="6.26996">
        <ele>664</ele>
        <time>2018-05-11T07:22:37Z</time>
      </trkpt>
      <trkpt lat="46.0993" lon="6.26992">
        <ele>665</ele>
        <time>2018-05-11T07:22:38Z</time>
      </trkpt>
      <trkpt lat="46.09932" lon="6.26989">
        <ele>667</ele>
        <time>2018-05-11T07:22:39Z</time>
      </trkpt>
      <trkpt lat="46.09933" lon="6.26985">
        <ele>666</ele>
        <time>2018-05-11T07:22:40Z</time>
      </trkpt>
      <trkpt lat="46.09935" lon="6.26981">
        <ele>668</ele>
        <time>2018-05-11T07:22:41Z</time>
      </trkpt>
      <trkpt lat="46.09934" lon="6.26972">
        <ele>667</ele>
        <time>2018-05-11T07:22:43Z</time>
      </trkpt>
      <trkpt lat="46.09935" lon="6.26962">
        <ele>665</ele>
        <time>2018-05-11T07:22:45Z</time>
      </trkpt>
      <trkpt lat="46.09936" lon="6.26957">
        <ele>666</ele>
        <time>2018-05-11T07:22:46Z</time>
      </trkpt>
      <trkpt lat="46.09936" lon="6.26952">
        <ele>666</ele>
        <time>2018-05-11T07:22:47Z</time>
      </trkpt>
      <trkpt lat="46.09935" lon="6.26946">
        <ele>636</ele>
        <time>2018-05-11T07:22:49Z</time>
      </trkpt>
      <trkpt lat="46.09935" lon="6.26942">
        <ele>647</ele>
        <time>2018-05-11T07:22:50Z</time>
      </trkpt>
      <trkpt lat="46.0994" lon="6.26905">
        <ele>663</ele>
        <time>2018-05-11T07:22:55Z</time>
      </trkpt>
      <trkpt lat="46.0994" lon="6.26902">
        <ele>665</ele>
        <time>2018-05-11T07:22:56Z</time>
      </trkpt>
      <trkpt lat="46.09941" lon="6.26899">
        <ele>667</ele>
        <time>2018-05-11T07:22:57Z</time>
      </trkpt>
      <trkpt lat="46.09945" lon="6.26891">
        <ele>665</ele>
        <time>2018-05-11T07:23:00Z</time>
      </trkpt>
      <trkpt lat="46.09946" lon="6.26888">
        <ele>665</ele>
        <time>2018-05-11T07:23:01Z</time>
      </trkpt>
      <trkpt lat="46.09953" lon="6.26877">
        <ele>666</ele>
        <time>2018-05-11T07:23:03Z</time>
      </trkpt>
      <trkpt lat="46.09955" lon="6.26875">
        <ele>668</ele>
        <time>2018-05-11T07:23:04Z</time>
      </trkpt>
      <trkpt lat="46.09964" lon="6.26874">
        <ele>667</ele>
        <time>2018-05-11T07:23:06Z</time>
      </trkpt>
      <trkpt lat="46.09966" lon="6.26873">
        <ele>668</ele>
        <time>2018-05-11T07:23:07Z</time>
      </trkpt>
      <trkpt lat="46.09968" lon="6.26873">
        <ele>669</ele>
        <time>2018-05-11T07:23:08Z</time>
      </trkpt>
      <trkpt lat="46.0997" lon="6.26873">
        <ele>669</ele>
        <time>2018-05-11T07:23:09Z</time>
      </trkpt>
      <trkpt lat="46.09978" lon="6.26874">
        <ele>673</ele>
        <time>2018-05-11T07:23:13Z</time>
      </trkpt>
      <trkpt lat="46.0998" lon="6.26875">
        <ele>674</ele>
        <time>2018-05-11T07:23:14Z</time>
      </trkpt>
      <trkpt lat="46.09984" lon="6.26876">
        <ele>672</ele>
        <time>2018-05-11T07:23:17Z</time>
      </trkpt>
      <trkpt lat="46.09986" lon="6.26877">
        <ele>673</ele>
        <time>2018-05-11T07:23:18Z</time>
      </trkpt>
      <trkpt lat="46.09993" lon="6.2688">
        <ele>674</ele>
        <time>2018-05-11T07:23:21Z</time>
      </trkpt>
      <trkpt lat="46.09998" lon="6.26883">
        <ele>675</ele>
        <time>2018-05-11T07:23:23Z</time>
      </trkpt>
      <trkpt lat="46.10012" lon="6.26886">
        <ele>677</ele>
        <time>2018-05-11T07:23:28Z</time>
      </trkpt>
      <trkpt lat="46.10018" lon="6.26888">
        <ele>679</ele>
        <time>2018-05-11T07:23:30Z</time>
      </trkpt>
      <trkpt lat="46.10024" lon="6.26888">
        <ele>677</ele>
        <time>2018-05-11T07:23:32Z</time>
      </trkpt>
      <trkpt lat="46.10032" lon="6.26885">
        <ele>676</ele>
        <time>2018-05-11T07:23:35Z</time>
      </trkpt>
      <trkpt lat="46.10035" lon="6.26883">
        <ele>675</ele>
        <time>2018-05-11T07:23:36Z</time>
      </trkpt>
      <trkpt lat="46.10049" lon="6.26875">
        <ele>674</ele>
        <time>2018-05-11T07:23:41Z</time>
      </trkpt>
      <trkpt lat="46.10063" lon="6.26866">
        <ele>674</ele>
        <time>2018-05-11T07:23:46Z</time>
      </trkpt>
      <trkpt lat="46.10075" lon="6.26857">
        <ele>675</ele>
        <time>2018-05-11T07:23:49Z</time>
      </trkpt>
      <trkpt lat="46.10088" lon="6.26847">
        <ele>679</ele>
        <time>2018-05-11T07:23:54Z</time>
      </trkpt>
      <trkpt lat="46.10109" lon="6.26832">
        <ele>676</ele>
        <time>2018-05-11T07:23:59Z</time>
      </trkpt>
      <trkpt lat="46.10125" lon="6.26817">
        <ele>676</ele>
        <time>2018-05-11T07:24:04Z</time>
      </trkpt>
      <trkpt lat="46.10133" lon="6.26808">
        <ele>677</ele>
        <time>2018-05-11T07:24:07Z</time>
      </trkpt>
      <trkpt lat="46.10141" lon="6.26798">
        <ele>676</ele>
        <time>2018-05-11T07:24:08Z</time>
      </trkpt>
      <trkpt lat="46.10153" lon="6.26789">
        <ele>675</ele>
        <time>2018-05-11T07:24:13Z</time>
      </trkpt>
      <trkpt lat="46.10159" lon="6.26783">
        <ele>678</ele>
        <time>2018-05-11T07:24:16Z</time>
      </trkpt>
      <trkpt lat="46.10173" lon="6.26773">
        <ele>682</ele>
        <time>2018-05-11T07:24:21Z</time>
      </trkpt>
      <trkpt lat="46.10176" lon="6.2677">
        <ele>682</ele>
        <time>2018-05-11T07:24:22Z</time>
      </trkpt>
      <trkpt lat="46.10183" lon="6.26762">
        <ele>685</ele>
        <time>2018-05-11T07:24:25Z</time>
      </trkpt>
      <trkpt lat="46.10192" lon="6.26752">
        <ele>688</ele>
        <time>2018-05-11T07:24:29Z</time>
      </trkpt>
      <trkpt lat="46.10199" lon="6.26747">
        <ele>687</ele>
        <time>2018-05-11T07:24:31Z</time>
      </trkpt>
      <trkpt lat="46.1021" lon="6.26736">
        <ele>689</ele>
        <time>2018-05-11T07:24:35Z</time>
      </trkpt>
      <trkpt lat="46.1022" lon="6.26722">
        <ele>689</ele>
        <time>2018-05-11T07:24:39Z</time>
      </trkpt>
      <trkpt lat="46.10225" lon="6.26715">
        <ele>688</ele>
        <time>2018-05-11T07:24:41Z</time>
      </trkpt>
      <trkpt lat="46.10237" lon="6.26695">
        <ele>687</ele>
        <time>2018-05-11T07:24:46Z</time>
      </trkpt>
      <trkpt lat="46.1025" lon="6.26675">
        <ele>688</ele>
        <time>2018-05-11T07:24:51Z</time>
      </trkpt>
      <trkpt lat="46.10258" lon="6.26661">
        <ele>689</ele>
        <time>2018-05-11T07:24:55Z</time>
      </trkpt>
      <trkpt lat="46.10268" lon="6.26643">
        <ele>688</ele>
        <time>2018-05-11T07:25:00Z</time>
      </trkpt>
      <trkpt lat="46.1028" lon="6.26623">
        <ele>686</ele>
        <time>2018-05-11T07:25:04Z</time>
      </trkpt>
      <trkpt lat="46.10287" lon="6.26615">
        <ele>684</ele>
        <time>2018-05-11T07:25:07Z</time>
      </trkpt>
      <trkpt lat="46.10297" lon="6.26599">
        <ele>684</ele>
        <time>2018-05-11T07:25:12Z</time>
      </trkpt>
      <trkpt lat="46.10305" lon="6.26586">
        <ele>686</ele>
        <time>2018-05-11T07:25:16Z</time>
      </trkpt>
      <trkpt lat="46.10318" lon="6.26572">
        <ele>688</ele>
        <time>2018-05-11T07:25:21Z</time>
      </trkpt>
      <trkpt lat="46.1032" lon="6.26568">
        <ele>688</ele>
        <time>2018-05-11T07:25:22Z</time>
      </trkpt>
      <trkpt lat="46.10323" lon="6.26557">
        <ele>688</ele>
        <time>2018-05-11T07:25:25Z</time>
      </trkpt>
      <trkpt lat="46.10325" lon="6.26542">
        <ele>689</ele>
        <time>2018-05-11T07:25:27Z</time>
      </trkpt>
      <trkpt lat="46.10329" lon="6.26529">
        <ele>690</ele>
        <time>2018-05-11T07:25:31Z</time>
      </trkpt>
      <trkpt lat="46.10331" lon="6.26525">
        <ele>690</ele>
        <time>2018-05-11T07:25:32Z</time>
      </trkpt>
      <trkpt lat="46.10336" lon="6.26511">
        <ele>691</ele>
        <time>2018-05-11T07:25:36Z</time>
      </trkpt>
      <trkpt lat="46.10338" lon="6.26507">
        <ele>691</ele>
        <time>2018-05-11T07:25:37Z</time>
      </trkpt>
      <trkpt lat="46.10349" lon="6.26492">
        <ele>693</ele>
        <time>2018-05-11T07:25:41Z</time>
      </trkpt>
      <trkpt lat="46.10351" lon="6.26489">
        <ele>693</ele>
        <time>2018-05-11T07:25:42Z</time>
      </trkpt>
      <trkpt lat="46.10359" lon="6.26481">
        <ele>693</ele>
        <time>2018-05-11T07:25:45Z</time>
      </trkpt>
      <trkpt lat="46.10369" lon="6.26473">
        <ele>693</ele>
        <time>2018-05-11T07:25:48Z</time>
      </trkpt>
      <trkpt lat="46.10376" lon="6.26468">
        <ele>693</ele>
        <time>2018-05-11T07:25:51Z</time>
      </trkpt>
      <trkpt lat="46.10391" lon="6.2646">
        <ele>693</ele>
        <time>2018-05-11T07:25:56Z</time>
      </trkpt>
      <trkpt lat="46.10398" lon="6.26456">
        <ele>693</ele>
        <time>2018-05-11T07:25:58Z</time>
      </trkpt>
      <trkpt lat="46.10403" lon="6.2645">
        <ele>693</ele>
        <time>2018-05-11T07:26:00Z</time>
      </trkpt>
      <trkpt lat="46.10412" lon="6.26441">
        <ele>692</ele>
        <time>2018-05-11T07:26:03Z</time>
      </trkpt>
      <trkpt lat="46.10419" lon="6.26432">
        <ele>695</ele>
        <time>2018-05-11T07:26:06Z</time>
      </trkpt>
      <trkpt lat="46.10423" lon="6.26425">
        <ele>696</ele>
        <time>2018-05-11T07:26:08Z</time>
      </trkpt>
      <trkpt lat="46.10424" lon="6.26422">
        <ele>698</ele>
        <time>2018-05-11T07:26:09Z</time>
      </trkpt>
      <trkpt lat="46.10424" lon="6.26418">
        <ele>698</ele>
        <time>2018-05-11T07:26:10Z</time>
      </trkpt>
      <trkpt lat="46.10424" lon="6.26415">
        <ele>698</ele>
        <time>2018-05-11T07:26:11Z</time>
      </trkpt>
      <trkpt lat="46.10422" lon="6.26412">
        <ele>697</ele>
        <time>2018-05-11T07:26:12Z</time>
      </trkpt>
      <trkpt lat="46.1042" lon="6.2641">
        <ele>697</ele>
        <time>2018-05-11T07:26:13Z</time>
      </trkpt>
      <trkpt lat="46.10414" lon="6.26407">
        <ele>697</ele>
        <time>2018-05-11T07:26:15Z</time>
      </trkpt>
      <trkpt lat="46.10402" lon="6.26406">
        <ele>702</ele>
        <time>2018-05-11T07:26:20Z</time>
      </trkpt>
      <trkpt lat="46.10375" lon="6.26407">
        <ele>705</ele>
        <time>2018-05-11T07:26:30Z</time>
      </trkpt>
      <trkpt lat="46.10365" lon="6.26407">
        <ele>705</ele>
        <time>2018-05-11T07:26:35Z</time>
      </trkpt>
      <trkpt lat="46.10357" lon="6.26407">
        <ele>707</ele>
        <time>2018-05-11T07:26:38Z</time>
      </trkpt>
      <trkpt lat="46.10352" lon="6.26408">
        <ele>709</ele>
        <time>2018-05-11T07:26:40Z</time>
      </trkpt>
      <trkpt lat="46.10343" lon="6.26408">
        <ele>710</ele>
        <time>2018-05-11T07:26:44Z</time>
      </trkpt>
      <trkpt lat="46.10327" lon="6.26407">
        <ele>709</ele>
        <time>2018-05-11T07:26:50Z</time>
      </trkpt>
      <trkpt lat="46.10316" lon="6.26406">
        <ele>709</ele>
        <time>2018-05-11T07:26:55Z</time>
      </trkpt>
      <trkpt lat="46.10303" lon="6.26406">
        <ele>712</ele>
        <time>2018-05-11T07:27:00Z</time>
      </trkpt>
      <trkpt lat="46.10291" lon="6.26407">
        <ele>714</ele>
        <time>2018-05-11T07:27:06Z</time>
      </trkpt>
      <trkpt lat="46.10271" lon="6.26407">
        <ele>711</ele>
        <time>2018-05-11T07:27:12Z</time>
      </trkpt>
      <trkpt lat="46.10265" lon="6.26403">
        <ele>713</ele>
        <time>2018-05-11T07:27:15Z</time>
      </trkpt>
      <trkpt lat="46.10261" lon="6.26402">
        <ele>709</ele>
        <time>2018-05-11T07:27:16Z</time>
      </trkpt>
      <trkpt lat="46.10258" lon="6.264">
        <ele>708</ele>
        <time>2018-05-11T07:27:17Z</time>
      </trkpt>
      <trkpt lat="46.10253" lon="6.26399">
        <ele>710</ele>
        <time>2018-05-11T07:27:19Z</time>
      </trkpt>
      <trkpt lat="46.1023" lon="6.264">
        <ele>715</ele>
        <time>2018-05-11T07:27:28Z</time>
      </trkpt>
      <trkpt lat="46.10215" lon="6.26401">
        <ele>715</ele>
        <time>2018-05-11T07:27:34Z</time>
      </trkpt>
      <trkpt lat="46.10197" lon="6.26401">
        <ele>718</ele>
        <time>2018-05-11T07:27:41Z</time>
      </trkpt>
      <trkpt lat="46.10184" lon="6.26401">
        <ele>721</ele>
        <time>2018-05-11T07:27:47Z</time>
      </trkpt>
      <trkpt lat="46.10178" lon="6.26402">
        <ele>721</ele>
        <time>2018-05-11T07:27:49Z</time>
      </trkpt>
      <trkpt lat="46.10176" lon="6.26403">
        <ele>722</ele>
        <time>2018-05-11T07:27:50Z</time>
      </trkpt>
      <trkpt lat="46.10165" lon="6.26412">
        <ele>722</ele>
        <time>2018-05-11T07:27:55Z</time>
      </trkpt>
      <trkpt lat="46.10161" lon="6.26417">
        <ele>722</ele>
        <time>2018-05-11T07:27:57Z</time>
      </trkpt>
      <trkpt lat="46.10159" lon="6.26418">
        <ele>722</ele>
        <time>2018-05-11T07:27:58Z</time>
      </trkpt>
      <trkpt lat="46.10152" lon="6.26424">
        <ele>722</ele>
        <time>2018-05-11T07:28:01Z</time>
      </trkpt>
      <trkpt lat="46.10149" lon="6.26426">
        <ele>722</ele>
        <time>2018-05-11T07:28:02Z</time>
      </trkpt>
      <trkpt lat="46.10146" lon="6.26428">
        <ele>723</ele>
        <time>2018-05-11T07:28:03Z</time>
      </trkpt>
      <trkpt lat="46.10143" lon="6.2643">
        <ele>724</ele>
        <time>2018-05-11T07:28:04Z</time>
      </trkpt>
      <trkpt lat="46.10141" lon="6.26432">
        <ele>724</ele>
        <time>2018-05-11T07:28:05Z</time>
      </trkpt>
      <trkpt lat="46.10133" lon="6.26435">
        <ele>727</ele>
        <time>2018-05-11T07:28:08Z</time>
      </trkpt>
      <trkpt lat="46.1013" lon="6.26438">
        <ele>727</ele>
        <time>2018-05-11T07:28:09Z</time>
      </trkpt>
      <trkpt lat="46.10124" lon="6.26443">
        <ele>728</ele>
        <time>2018-05-11T07:28:12Z</time>
      </trkpt>
      <trkpt lat="46.1012" lon="6.26445">
        <ele>730</ele>
        <time>2018-05-11T07:28:14Z</time>
      </trkpt>
      <trkpt lat="46.10114" lon="6.26449">
        <ele>731</ele>
        <time>2018-05-11T07:28:16Z</time>
      </trkpt>
      <trkpt lat="46.10112" lon="6.2645">
        <ele>730</ele>
        <time>2018-05-11T07:28:17Z</time>
      </trkpt>
      <trkpt lat="46.10105" lon="6.26455">
        <ele>730</ele>
        <time>2018-05-11T07:28:20Z</time>
      </trkpt>
      <trkpt lat="46.10103" lon="6.26456">
        <ele>731</ele>
        <time>2018-05-11T07:28:21Z</time>
      </trkpt>
      <trkpt lat="46.10101" lon="6.26458">
        <ele>732</ele>
        <time>2018-05-11T07:28:22Z</time>
      </trkpt>
      <trkpt lat="46.10096" lon="6.2646">
        <ele>733</ele>
        <time>2018-05-11T07:28:24Z</time>
      </trkpt>
      <trkpt lat="46.10089" lon="6.26465">
        <ele>734</ele>
        <time>2018-05-11T07:28:27Z</time>
      </trkpt>
      <trkpt lat="46.10084" lon="6.26465">
        <ele>734</ele>
        <time>2018-05-11T07:28:29Z</time>
      </trkpt>
      <trkpt lat="46.10079" lon="6.26467">
        <ele>732</ele>
        <time>2018-05-11T07:28:31Z</time>
      </trkpt>
      <trkpt lat="46.10074" lon="6.26467">
        <ele>730</ele>
        <time>2018-05-11T07:28:33Z</time>
      </trkpt>
      <trkpt lat="46.10063" lon="6.26468">
        <ele>730</ele>
        <time>2018-05-11T07:28:38Z</time>
      </trkpt>
      <trkpt lat="46.10049" lon="6.26467">
        <ele>732</ele>
        <time>2018-05-11T07:28:44Z</time>
      </trkpt>
      <trkpt lat="46.10042" lon="6.26466">
        <ele>733</ele>
        <time>2018-05-11T07:28:47Z</time>
      </trkpt>
      <trkpt lat="46.10039" lon="6.26465">
        <ele>734</ele>
        <time>2018-05-11T07:28:48Z</time>
      </trkpt>
      <trkpt lat="46.1003" lon="6.26462">
        <ele>731</ele>
        <time>2018-05-11T07:28:52Z</time>
      </trkpt>
      <trkpt lat="46.10018" lon="6.26462">
        <ele>731</ele>
        <time>2018-05-11T07:28:57Z</time>
      </trkpt>
      <trkpt lat="46.10016" lon="6.26461">
        <ele>732</ele>
        <time>2018-05-11T07:28:58Z</time>
      </trkpt>
      <trkpt lat="46.10005" lon="6.26457">
        <ele>733</ele>
        <time>2018-05-11T07:29:03Z</time>
      </trkpt>
      <trkpt lat="46.09994" lon="6.26455">
        <ele>734</ele>
        <time>2018-05-11T07:29:07Z</time>
      </trkpt>
      <trkpt lat="46.09991" lon="6.26453">
        <ele>734</ele>
        <time>2018-05-11T07:29:08Z</time>
      </trkpt>
      <trkpt lat="46.09987" lon="6.26451">
        <ele>735</ele>
        <time>2018-05-11T07:29:10Z</time>
      </trkpt>
      <trkpt lat="46.09979" lon="6.26449">
        <ele>736</ele>
        <time>2018-05-11T07:29:13Z</time>
      </trkpt>
      <trkpt lat="46.09974" lon="6.26446">
        <ele>738</ele>
        <time>2018-05-11T07:29:15Z</time>
      </trkpt>
      <trkpt lat="46.09969" lon="6.26445">
        <ele>738</ele>
        <time>2018-05-11T07:29:17Z</time>
      </trkpt>
      <trkpt lat="46.09959" lon="6.26441">
        <ele>739</ele>
        <time>2018-05-11T07:29:21Z</time>
      </trkpt>
      <trkpt lat="46.09956" lon="6.26439">
        <ele>739</ele>
        <time>2018-05-11T07:29:22Z</time>
      </trkpt>
      <trkpt lat="46.09954" lon="6.26438">
        <ele>740</ele>
        <time>2018-05-11T07:29:23Z</time>
      </trkpt>
      <trkpt lat="46.09949" lon="6.26436">
        <ele>740</ele>
        <time>2018-05-11T07:29:25Z</time>
      </trkpt>
      <trkpt lat="46.09947" lon="6.26435">
        <ele>741</ele>
        <time>2018-05-11T07:29:26Z</time>
      </trkpt>
      <trkpt lat="46.09944" lon="6.26433">
        <ele>741</ele>
        <time>2018-05-11T07:29:27Z</time>
      </trkpt>
      <trkpt lat="46.09942" lon="6.26433">
        <ele>742</ele>
        <time>2018-05-11T07:29:28Z</time>
      </trkpt>
      <trkpt lat="46.09933" lon="6.2643">
        <ele>743</ele>
        <time>2018-05-11T07:29:31Z</time>
      </trkpt>
      <trkpt lat="46.09926" lon="6.26427">
        <ele>745</ele>
        <time>2018-05-11T07:29:34Z</time>
      </trkpt>
      <trkpt lat="46.09923" lon="6.26425">
        <ele>744</ele>
        <time>2018-05-11T07:29:35Z</time>
      </trkpt>
      <trkpt lat="46.09918" lon="6.26423">
        <ele>745</ele>
        <time>2018-05-11T07:29:37Z</time>
      </trkpt>
      <trkpt lat="46.09912" lon="6.26421">
        <ele>745</ele>
        <time>2018-05-11T07:29:39Z</time>
      </trkpt>
      <trkpt lat="46.09904" lon="6.26417">
        <ele>745</ele>
        <time>2018-05-11T07:29:42Z</time>
      </trkpt>
      <trkpt lat="46.09902" lon="6.26416">
        <ele>745</ele>
        <time>2018-05-11T07:29:43Z</time>
      </trkpt>
      <trkpt lat="46.09899" lon="6.26415">
        <ele>745</ele>
        <time>2018-05-11T07:29:44Z</time>
      </trkpt>
      <trkpt lat="46.09892" lon="6.2641">
        <ele>746</ele>
        <time>2018-05-11T07:29:47Z</time>
      </trkpt>
      <trkpt lat="46.09889" lon="6.26409">
        <ele>748</ele>
        <time>2018-05-11T07:29:48Z</time>
      </trkpt>
      <trkpt lat="46.09875" lon="6.26404">
        <ele>750</ele>
        <time>2018-05-11T07:29:53Z</time>
      </trkpt>
      <trkpt lat="46.09869" lon="6.26402">
        <ele>751</ele>
        <time>2018-05-11T07:29:55Z</time>
      </trkpt>
      <trkpt lat="46.09863" lon="6.26398">
        <ele>752</ele>
        <time>2018-05-11T07:29:57Z</time>
      </trkpt>
      <trkpt lat="46.09855" lon="6.26392">
        <ele>752</ele>
        <time>2018-05-11T07:30:00Z</time>
      </trkpt>
      <trkpt lat="46.09853" lon="6.26391">
        <ele>751</ele>
        <time>2018-05-11T07:30:01Z</time>
      </trkpt>
      <trkpt lat="46.0985" lon="6.26389">
        <ele>751</ele>
        <time>2018-05-11T07:30:02Z</time>
      </trkpt>
      <trkpt lat="46.09844" lon="6.26387">
        <ele>749</ele>
        <time>2018-05-11T07:30:04Z</time>
      </trkpt>
      <trkpt lat="46.09841" lon="6.26385">
        <ele>751</ele>
        <time>2018-05-11T07:30:05Z</time>
      </trkpt>
      <trkpt lat="46.09839" lon="6.26383">
        <ele>752</ele>
        <time>2018-05-11T07:30:06Z</time>
      </trkpt>
      <trkpt lat="46.09837" lon="6.26381">
        <ele>752</ele>
        <time>2018-05-11T07:30:07Z</time>
      </trkpt>
      <trkpt lat="46.09834" lon="6.2638">
        <ele>751</ele>
        <time>2018-05-11T07:30:08Z</time>
      </trkpt>
      <trkpt lat="46.09832" lon="6.26378">
        <ele>750</ele>
        <time>2018-05-11T07:30:09Z</time>
      </trkpt>
      <trkpt lat="46.0982" lon="6.26371">
        <ele>751</ele>
        <time>2018-05-11T07:30:12Z</time>
      </trkpt>
      <trkpt lat="46.09819" lon="6.26369">
        <ele>751</ele>
        <time>2018-05-11T07:30:13Z</time>
      </trkpt>
      <trkpt lat="46.09813" lon="6.26361">
        <ele>750</ele>
        <time>2018-05-11T07:30:17Z</time>
      </trkpt>
      <trkpt lat="46.09811" lon="6.26359">
        <ele>749</ele>
        <time>2018-05-11T07:30:18Z</time>
      </trkpt>
      <trkpt lat="46.09801" lon="6.26347">
        <ele>749</ele>
        <time>2018-05-11T07:30:23Z</time>
      </trkpt>
      <trkpt lat="46.09798" lon="6.26345">
        <ele>750</ele>
        <time>2018-05-11T07:30:24Z</time>
      </trkpt>
      <trkpt lat="46.09796" lon="6.26343">
        <ele>751</ele>
        <time>2018-05-11T07:30:25Z</time>
      </trkpt>
      <trkpt lat="46.09793" lon="6.26342">
        <ele>752</ele>
        <time>2018-05-11T07:30:26Z</time>
      </trkpt>
      <trkpt lat="46.09791" lon="6.26339">
        <ele>752</ele>
        <time>2018-05-11T07:30:27Z</time>
      </trkpt>
      <trkpt lat="46.09789" lon="6.26338">
        <ele>751</ele>
        <time>2018-05-11T07:30:28Z</time>
      </trkpt>
      <trkpt lat="46.09779" lon="6.26331">
        <ele>752</ele>
        <time>2018-05-11T07:30:30Z</time>
      </trkpt>
      <trkpt lat="46.09776" lon="6.26328">
        <ele>754</ele>
        <time>2018-05-11T07:30:32Z</time>
      </trkpt>
      <trkpt lat="46.09773" lon="6.26324">
        <ele>755</ele>
        <time>2018-05-11T07:30:34Z</time>
      </trkpt>
      <trkpt lat="46.09769" lon="6.2632">
        <ele>758</ele>
        <time>2018-05-11T07:30:36Z</time>
      </trkpt>
      <trkpt lat="46.09767" lon="6.26318">
        <ele>758</ele>
        <time>2018-05-11T07:30:37Z</time>
      </trkpt>
      <trkpt lat="46.09764" lon="6.26316">
        <ele>760</ele>
        <time>2018-05-11T07:30:38Z</time>
      </trkpt>
      <trkpt lat="46.09762" lon="6.26315">
        <ele>760</ele>
        <time>2018-05-11T07:30:39Z</time>
      </trkpt>
      <trkpt lat="46.0976" lon="6.26313">
        <ele>760</ele>
        <time>2018-05-11T07:30:40Z</time>
      </trkpt>
      <trkpt lat="46.09758" lon="6.26311">
        <ele>760</ele>
        <time>2018-05-11T07:30:41Z</time>
      </trkpt>
      <trkpt lat="46.09749" lon="6.26303">
        <ele>761</ele>
        <time>2018-05-11T07:30:45Z</time>
      </trkpt>
      <trkpt lat="46.09746" lon="6.26299">
        <ele>761</ele>
        <time>2018-05-11T07:30:47Z</time>
      </trkpt>
      <trkpt lat="46.09742" lon="6.26295">
        <ele>762</ele>
        <time>2018-05-11T07:30:49Z</time>
      </trkpt>
      <trkpt lat="46.09739" lon="6.26293">
        <ele>762</ele>
        <time>2018-05-11T07:30:50Z</time>
      </trkpt>
      <trkpt lat="46.09735" lon="6.26289">
        <ele>763</ele>
        <time>2018-05-11T07:30:52Z</time>
      </trkpt>
      <trkpt lat="46.09734" lon="6.26287">
        <ele>763</ele>
        <time>2018-05-11T07:30:53Z</time>
      </trkpt>
      <trkpt lat="46.0973" lon="6.26284">
        <ele>762</ele>
        <time>2018-05-11T07:30:55Z</time>
      </trkpt>
      <trkpt lat="46.09728" lon="6.26281">
        <ele>763</ele>
        <time>2018-05-11T07:30:56Z</time>
      </trkpt>
      <trkpt lat="46.09726" lon="6.2628">
        <ele>763</ele>
        <time>2018-05-11T07:30:57Z</time>
      </trkpt>
      <trkpt lat="46.09719" lon="6.26274">
        <ele>763</ele>
        <time>2018-05-11T07:31:00Z</time>
      </trkpt>
      <trkpt lat="46.09717" lon="6.26272">
        <ele>763</ele>
        <time>2018-05-11T07:31:01Z</time>
      </trkpt>
      <trkpt lat="46.09714" lon="6.2627">
        <ele>764</ele>
        <time>2018-05-11T07:31:02Z</time>
      </trkpt>
      <trkpt lat="46.09712" lon="6.26267">
        <ele>765</ele>
        <time>2018-05-11T07:31:03Z</time>
      </trkpt>
      <trkpt lat="46.0971" lon="6.26265">
        <ele>765</ele>
        <time>2018-05-11T07:31:04Z</time>
      </trkpt>
      <trkpt lat="46.09708" lon="6.26263">
        <ele>765</ele>
        <time>2018-05-11T07:31:05Z</time>
      </trkpt>
      <trkpt lat="46.09706" lon="6.26262">
        <ele>765</ele>
        <time>2018-05-11T07:31:06Z</time>
      </trkpt>
      <trkpt lat="46.09704" lon="6.26259">
        <ele>765</ele>
        <time>2018-05-11T07:31:07Z</time>
      </trkpt>
      <trkpt lat="46.09702" lon="6.26258">
        <ele>765</ele>
        <time>2018-05-11T07:31:08Z</time>
      </trkpt>
      <trkpt lat="46.09692" lon="6.26249">
        <ele>765</ele>
        <time>2018-05-11T07:31:12Z</time>
      </trkpt>
      <trkpt lat="46.09691" lon="6.26247">
        <ele>766</ele>
        <time>2018-05-11T07:31:13Z</time>
      </trkpt>
      <trkpt lat="46.09688" lon="6.26245">
        <ele>766</ele>
        <time>2018-05-11T07:31:14Z</time>
      </trkpt>
      <trkpt lat="46.09681" lon="6.26239">
        <ele>765</ele>
        <time>2018-05-11T07:31:17Z</time>
      </trkpt>
      <trkpt lat="46.09678" lon="6.26236">
        <ele>766</ele>
        <time>2018-05-11T07:31:18Z</time>
      </trkpt>
      <trkpt lat="46.09676" lon="6.26235">
        <ele>767</ele>
        <time>2018-05-11T07:31:19Z</time>
      </trkpt>
      <trkpt lat="46.09673" lon="6.26232">
        <ele>767</ele>
        <time>2018-05-11T07:31:20Z</time>
      </trkpt>
      <trkpt lat="46.09661" lon="6.26227">
        <ele>766</ele>
        <time>2018-05-11T07:31:24Z</time>
      </trkpt>
      <trkpt lat="46.09659" lon="6.26225">
        <ele>766</ele>
        <time>2018-05-11T07:31:25Z</time>
      </trkpt>
      <trkpt lat="46.0965" lon="6.26223">
        <ele>767</ele>
        <time>2018-05-11T07:31:28Z</time>
      </trkpt>
      <trkpt lat="46.09641" lon="6.2622">
        <ele>767</ele>
        <time>2018-05-11T07:31:31Z</time>
      </trkpt>
      <trkpt lat="46.09637" lon="6.26219">
        <ele>767</ele>
        <time>2018-05-11T07:31:32Z</time>
      </trkpt>
      <trkpt lat="46.09634" lon="6.26218">
        <ele>767</ele>
        <time>2018-05-11T07:31:33Z</time>
      </trkpt>
      <trkpt lat="46.09631" lon="6.26217">
        <ele>767</ele>
        <time>2018-05-11T07:31:34Z</time>
      </trkpt>
      <trkpt lat="46.09629" lon="6.26216">
        <ele>767</ele>
        <time>2018-05-11T07:31:35Z</time>
      </trkpt>
      <trkpt lat="46.09624" lon="6.26215">
        <ele>768</ele>
        <time>2018-05-11T07:31:37Z</time>
      </trkpt>
      <trkpt lat="46.09621" lon="6.26213">
        <ele>768</ele>
        <time>2018-05-11T07:31:38Z</time>
      </trkpt>
      <trkpt lat="46.09616" lon="6.26212">
        <ele>768</ele>
        <time>2018-05-11T07:31:40Z</time>
      </trkpt>
      <trkpt lat="46.09603" lon="6.26206">
        <ele>768</ele>
        <time>2018-05-11T07:31:45Z</time>
      </trkpt>
      <trkpt lat="46.09593" lon="6.26203">
        <ele>767</ele>
        <time>2018-05-11T07:31:49Z</time>
      </trkpt>
      <trkpt lat="46.09591" lon="6.26201">
        <ele>768</ele>
        <time>2018-05-11T07:31:50Z</time>
      </trkpt>
      <trkpt lat="46.09586" lon="6.26201">
        <ele>769</ele>
        <time>2018-05-11T07:31:52Z</time>
      </trkpt>
      <trkpt lat="46.0958" lon="6.26198">
        <ele>767</ele>
        <time>2018-05-11T07:31:54Z</time>
      </trkpt>
      <trkpt lat="46.09577" lon="6.26198">
        <ele>768</ele>
        <time>2018-05-11T07:31:55Z</time>
      </trkpt>
      <trkpt lat="46.09575" lon="6.26197">
        <ele>768</ele>
        <time>2018-05-11T07:31:56Z</time>
      </trkpt>
      <trkpt lat="46.09572" lon="6.26195">
        <ele>768</ele>
        <time>2018-05-11T07:31:57Z</time>
      </trkpt>
      <trkpt lat="46.09566" lon="6.26192">
        <ele>769</ele>
        <time>2018-05-11T07:32:00Z</time>
      </trkpt>
      <trkpt lat="46.09564" lon="6.2619">
        <ele>769</ele>
        <time>2018-05-11T07:32:01Z</time>
      </trkpt>
      <trkpt lat="46.09562" lon="6.26189">
        <ele>769</ele>
        <time>2018-05-11T07:32:02Z</time>
      </trkpt>
      <trkpt lat="46.0956" lon="6.26187">
        <ele>769</ele>
        <time>2018-05-11T07:32:03Z</time>
      </trkpt>
      <trkpt lat="46.09558" lon="6.26186">
        <ele>771</ele>
        <time>2018-05-11T07:32:04Z</time>
      </trkpt>
      <trkpt lat="46.09554" lon="6.2618">
        <ele>772</ele>
        <time>2018-05-11T07:32:07Z</time>
      </trkpt>
      <trkpt lat="46.09552" lon="6.26178">
        <ele>772</ele>
        <time>2018-05-11T07:32:08Z</time>
      </trkpt>
      <trkpt lat="46.09551" lon="6.26175">
        <ele>773</ele>
        <time>2018-05-11T07:32:09Z</time>
      </trkpt>
      <trkpt lat="46.09549" lon="6.26173">
        <ele>774</ele>
        <time>2018-05-11T07:32:10Z</time>
      </trkpt>
      <trkpt lat="46.09548" lon="6.2617">
        <ele>774</ele>
        <time>2018-05-11T07:32:11Z</time>
      </trkpt>
      <trkpt lat="46.09547" lon="6.26167">
        <ele>775</ele>
        <time>2018-05-11T07:32:12Z</time>
      </trkpt>
      <trkpt lat="46.09546" lon="6.26164">
        <ele>776</ele>
        <time>2018-05-11T07:32:13Z</time>
      </trkpt>
      <trkpt lat="46.09543" lon="6.26158">
        <ele>776</ele>
        <time>2018-05-11T07:32:15Z</time>
      </trkpt>
      <trkpt lat="46.09542" lon="6.26155">
        <ele>777</ele>
        <time>2018-05-11T07:32:16Z</time>
      </trkpt>
      <trkpt lat="46.09542" lon="6.26152">
        <ele>778</ele>
        <time>2018-05-11T07:32:17Z</time>
      </trkpt>
      <trkpt lat="46.09539" lon="6.26143">
        <ele>779</ele>
        <time>2018-05-11T07:32:20Z</time>
      </trkpt>
      <trkpt lat="46.09537" lon="6.26133">
        <ele>779</ele>
        <time>2018-05-11T07:32:23Z</time>
      </trkpt>
      <trkpt lat="46.09537" lon="6.2613">
        <ele>780</ele>
        <time>2018-05-11T07:32:24Z</time>
      </trkpt>
      <trkpt lat="46.09536" lon="6.26127">
        <ele>780</ele>
        <time>2018-05-11T07:32:25Z</time>
      </trkpt>
      <trkpt lat="46.09537" lon="6.26119">
        <ele>780</ele>
        <time>2018-05-11T07:32:28Z</time>
      </trkpt>
      <trkpt lat="46.09538" lon="6.26115">
        <ele>779</ele>
        <time>2018-05-11T07:32:30Z</time>
      </trkpt>
      <trkpt lat="46.09544" lon="6.26113">
        <ele>780</ele>
        <time>2018-05-11T07:32:34Z</time>
      </trkpt>
      <trkpt lat="46.09546" lon="6.26113">
        <ele>780</ele>
        <time>2018-05-11T07:32:35Z</time>
      </trkpt>
      <trkpt lat="46.09548" lon="6.26112">
        <ele>780</ele>
        <time>2018-05-11T07:32:36Z</time>
      </trkpt>
      <trkpt lat="46.09549" lon="6.2611">
        <ele>780</ele>
        <time>2018-05-11T07:32:37Z</time>
      </trkpt>
      <trkpt lat="46.09551" lon="6.26111">
        <ele>781</ele>
        <time>2018-05-11T07:32:38Z</time>
      </trkpt>
      <trkpt lat="46.09554" lon="6.26111">
        <ele>780</ele>
        <time>2018-05-11T07:32:39Z</time>
      </trkpt>
      <trkpt lat="46.09563" lon="6.26107">
        <ele>778</ele>
        <time>2018-05-11T07:32:43Z</time>
      </trkpt>
      <trkpt lat="46.09567" lon="6.26108">
        <ele>779</ele>
        <time>2018-05-11T07:32:45Z</time>
      </trkpt>
      <trkpt lat="46.09573" lon="6.2611">
        <ele>780</ele>
        <time>2018-05-11T07:32:47Z</time>
      </trkpt>
      <trkpt lat="46.09577" lon="6.2611">
        <ele>781</ele>
        <time>2018-05-11T07:32:49Z</time>
      </trkpt>
      <trkpt lat="46.0958" lon="6.26111">
        <ele>781</ele>
        <time>2018-05-11T07:32:50Z</time>
      </trkpt>
      <trkpt lat="46.09582" lon="6.26111">
        <ele>781</ele>
        <time>2018-05-11T07:32:51Z</time>
      </trkpt>
      <trkpt lat="46.09593" lon="6.26112">
        <ele>780</ele>
        <time>2018-05-11T07:32:56Z</time>
      </trkpt>
      <trkpt lat="46.09599" lon="6.26111">
        <ele>780</ele>
        <time>2018-05-11T07:32:59Z</time>
      </trkpt>
      <trkpt lat="46.0961" lon="6.2611">
        <ele>784</ele>
        <time>2018-05-11T07:33:04Z</time>
      </trkpt>
      <trkpt lat="46.09622" lon="6.26107">
        <ele>786</ele>
        <time>2018-05-11T07:33:09Z</time>
      </trkpt>
      <trkpt lat="46.09624" lon="6.26106">
        <ele>785</ele>
        <time>2018-05-11T07:33:10Z</time>
      </trkpt>
      <trkpt lat="46.09631" lon="6.26101">
        <ele>789</ele>
        <time>2018-05-11T07:33:14Z</time>
      </trkpt>
      <trkpt lat="46.0964" lon="6.26093">
        <ele>788</ele>
        <time>2018-05-11T07:33:19Z</time>
      </trkpt>
      <trkpt lat="46.09643" lon="6.26091">
        <ele>791</ele>
        <time>2018-05-11T07:33:21Z</time>
      </trkpt>
      <trkpt lat="46.09656" lon="6.26084">
        <ele>794</ele>
        <time>2018-05-11T07:33:26Z</time>
      </trkpt>
      <trkpt lat="46.09664" lon="6.26076">
        <ele>794</ele>
        <time>2018-05-11T07:33:30Z</time>
      </trkpt>
      <trkpt lat="46.09674" lon="6.26072">
        <ele>795</ele>
        <time>2018-05-11T07:33:34Z</time>
      </trkpt>
      <trkpt lat="46.0968" lon="6.26067">
        <ele>795</ele>
        <time>2018-05-11T07:33:37Z</time>
      </trkpt>
      <trkpt lat="46.09685" lon="6.26065">
        <ele>794</ele>
        <time>2018-05-11T07:33:39Z</time>
      </trkpt>
      <trkpt lat="46.09687" lon="6.26063">
        <ele>794</ele>
        <time>2018-05-11T07:33:40Z</time>
      </trkpt>
      <trkpt lat="46.0969" lon="6.26062">
        <ele>795</ele>
        <time>2018-05-11T07:33:41Z</time>
      </trkpt>
      <trkpt lat="46.09695" lon="6.2606">
        <ele>797</ele>
        <time>2018-05-11T07:33:44Z</time>
      </trkpt>
      <trkpt lat="46.09701" lon="6.26061">
        <ele>803</ele>
        <time>2018-05-11T07:33:47Z</time>
      </trkpt>
      <trkpt lat="46.09712" lon="6.26059">
        <ele>803</ele>
        <time>2018-05-11T07:33:52Z</time>
      </trkpt>
      <trkpt lat="46.09718" lon="6.26058">
        <ele>804</ele>
        <time>2018-05-11T07:33:55Z</time>
      </trkpt>
      <trkpt lat="46.09731" lon="6.26055">
        <ele>802</ele>
        <time>2018-05-11T07:34:00Z</time>
      </trkpt>
      <trkpt lat="46.09739" lon="6.26052">
        <ele>800</ele>
        <time>2018-05-11T07:34:03Z</time>
      </trkpt>
      <trkpt lat="46.09742" lon="6.26052">
        <ele>799</ele>
        <time>2018-05-11T07:34:04Z</time>
      </trkpt>
      <trkpt lat="46.09755" lon="6.26044">
        <ele>798</ele>
        <time>2018-05-11T07:34:09Z</time>
      </trkpt>
      <trkpt lat="46.09761" lon="6.2604">
        <ele>799</ele>
        <time>2018-05-11T07:34:12Z</time>
      </trkpt>
      <trkpt lat="46.0977" lon="6.26031">
        <ele>801</ele>
        <time>2018-05-11T07:34:17Z</time>
      </trkpt>
      <trkpt lat="46.09782" lon="6.26018">
        <ele>799</ele>
        <time>2018-05-11T07:34:22Z</time>
      </trkpt>
      <trkpt lat="46.09789" lon="6.26008">
        <ele>801</ele>
        <time>2018-05-11T07:34:26Z</time>
      </trkpt>
      <trkpt lat="46.09796" lon="6.25995">
        <ele>799</ele>
        <time>2018-05-11T07:34:30Z</time>
      </trkpt>
      <trkpt lat="46.09802" lon="6.25983">
        <ele>800</ele>
        <time>2018-05-11T07:34:35Z</time>
      </trkpt>
      <trkpt lat="46.09807" lon="6.25972">
        <ele>800</ele>
        <time>2018-05-11T07:34:39Z</time>
      </trkpt>
      <trkpt lat="46.09812" lon="6.25962">
        <ele>803</ele>
        <time>2018-05-11T07:34:43Z</time>
      </trkpt>
      <trkpt lat="46.09817" lon="6.25955">
        <ele>805</ele>
        <time>2018-05-11T07:34:46Z</time>
      </trkpt>
      <trkpt lat="46.0982" lon="6.25951">
        <ele>804</ele>
        <time>2018-05-11T07:34:48Z</time>
      </trkpt>
      <trkpt lat="46.09825" lon="6.25943">
        <ele>804</ele>
        <time>2018-05-11T07:34:51Z</time>
      </trkpt>
      <trkpt lat="46.09832" lon="6.2593">
        <ele>806</ele>
        <time>2018-05-11T07:34:56Z</time>
      </trkpt>
      <trkpt lat="46.09836" lon="6.25922">
        <ele>808</ele>
        <time>2018-05-11T07:34:59Z</time>
      </trkpt>
      <trkpt lat="46.09839" lon="6.25915">
        <ele>810</ele>
        <time>2018-05-11T07:35:02Z</time>
      </trkpt>
      <trkpt lat="46.0984" lon="6.25906">
        <ele>812</ele>
        <time>2018-05-11T07:35:05Z</time>
      </trkpt>
      <trkpt lat="46.0984" lon="6.25897">
        <ele>811</ele>
        <time>2018-05-11T07:35:08Z</time>
      </trkpt>
      <trkpt lat="46.09838" lon="6.25887">
        <ele>812</ele>
        <time>2018-05-11T07:35:11Z</time>
      </trkpt>
      <trkpt lat="46.09837" lon="6.25884">
        <ele>811</ele>
        <time>2018-05-11T07:35:12Z</time>
      </trkpt>
      <trkpt lat="46.09832" lon="6.25875">
        <ele>810</ele>
        <time>2018-05-11T07:35:15Z</time>
      </trkpt>
      <trkpt lat="46.09827" lon="6.2587">
        <ele>810</ele>
        <time>2018-05-11T07:35:17Z</time>
      </trkpt>
      <trkpt lat="46.09825" lon="6.25868">
        <ele>814</ele>
        <time>2018-05-11T07:35:19Z</time>
      </trkpt>
      <trkpt lat="46.09814" lon="6.25869">
        <ele>815</ele>
        <time>2018-05-11T07:35:24Z</time>
      </trkpt>
      <trkpt lat="46.09801" lon="6.25871">
        <ele>816</ele>
        <time>2018-05-11T07:35:29Z</time>
      </trkpt>
      <trkpt lat="46.09791" lon="6.25874">
        <ele>815</ele>
        <time>2018-05-11T07:35:33Z</time>
      </trkpt>
      <trkpt lat="46.09788" lon="6.25875">
        <ele>815</ele>
        <time>2018-05-11T07:35:34Z</time>
      </trkpt>
      <trkpt lat="46.09784" lon="6.25878">
        <ele>817</ele>
        <time>2018-05-11T07:35:36Z</time>
      </trkpt>
      <trkpt lat="46.09778" lon="6.25883">
        <ele>817</ele>
        <time>2018-05-11T07:35:39Z</time>
      </trkpt>
      <trkpt lat="46.09771" lon="6.25886">
        <ele>818</ele>
        <time>2018-05-11T07:35:42Z</time>
      </trkpt>
      <trkpt lat="46.09762" lon="6.25891">
        <ele>819</ele>
        <time>2018-05-11T07:35:47Z</time>
      </trkpt>
      <trkpt lat="46.09754" lon="6.25895">
        <ele>820</ele>
        <time>2018-05-11T07:35:51Z</time>
      </trkpt>
      <trkpt lat="46.09751" lon="6.25896">
        <ele>819</ele>
        <time>2018-05-11T07:35:52Z</time>
      </trkpt>
      <trkpt lat="46.09742" lon="6.25895">
        <ele>825</ele>
        <time>2018-05-11T07:35:57Z</time>
      </trkpt>
      <trkpt lat="46.09737" lon="6.25894">
        <ele>825</ele>
        <time>2018-05-11T07:35:59Z</time>
      </trkpt>
      <trkpt lat="46.09725" lon="6.25888">
        <ele>825</ele>
        <time>2018-05-11T07:36:04Z</time>
      </trkpt>
      <trkpt lat="46.09718" lon="6.25883">
        <ele>824</ele>
        <time>2018-05-11T07:36:07Z</time>
      </trkpt>
      <trkpt lat="46.0971" lon="6.25874">
        <ele>826</ele>
        <time>2018-05-11T07:36:11Z</time>
      </trkpt>
      <trkpt lat="46.09703" lon="6.25863">
        <ele>829</ele>
        <time>2018-05-11T07:36:16Z</time>
      </trkpt>
      <trkpt lat="46.09695" lon="6.25853">
        <ele>829</ele>
        <time>2018-05-11T07:36:19Z</time>
      </trkpt>
      <trkpt lat="46.09693" lon="6.25848">
        <ele>828</ele>
        <time>2018-05-11T07:36:21Z</time>
      </trkpt>
      <trkpt lat="46.09692" lon="6.25847">
        <ele>828</ele>
        <time>2018-05-11T07:36:22Z</time>
      </trkpt>
      <trkpt lat="46.09687" lon="6.25838">
        <ele>829</ele>
        <time>2018-05-11T07:36:26Z</time>
      </trkpt>
      <trkpt lat="46.09684" lon="6.25833">
        <ele>830</ele>
        <time>2018-05-11T07:36:28Z</time>
      </trkpt>
      <trkpt lat="46.09679" lon="6.25824">
        <ele>829</ele>
        <time>2018-05-11T07:36:32Z</time>
      </trkpt>
      <trkpt lat="46.09672" lon="6.25812">
        <ele>828</ele>
        <time>2018-05-11T07:36:37Z</time>
      </trkpt>
      <trkpt lat="46.0967" lon="6.2581">
        <ele>828</ele>
        <time>2018-05-11T07:36:38Z</time>
      </trkpt>
      <trkpt lat="46.09669" lon="6.25808">
        <ele>828</ele>
        <time>2018-05-11T07:36:39Z</time>
      </trkpt>
      <trkpt lat="46.09667" lon="6.258">
        <ele>830</ele>
        <time>2018-05-11T07:36:41Z</time>
      </trkpt>
      <trkpt lat="46.09666" lon="6.25798">
        <ele>831</ele>
        <time>2018-05-11T07:36:42Z</time>
      </trkpt>
      <trkpt lat="46.09665" lon="6.25796">
        <ele>833</ele>
        <time>2018-05-11T07:36:43Z</time>
      </trkpt>
      <trkpt lat="46.09666" lon="6.25793">
        <ele>838</ele>
        <time>2018-05-11T07:36:44Z</time>
      </trkpt>
      <trkpt lat="46.09666" lon="6.25791">
        <ele>838</ele>
        <time>2018-05-11T07:36:45Z</time>
      </trkpt>
      <trkpt lat="46.09665" lon="6.25786">
        <ele>838</ele>
        <time>2018-05-11T07:36:47Z</time>
      </trkpt>
      <trkpt lat="46.09664" lon="6.25783">
        <ele>838</ele>
        <time>2018-05-11T07:36:48Z</time>
      </trkpt>
      <trkpt lat="46.0966" lon="6.25775">
        <ele>838</ele>
        <time>2018-05-11T07:36:51Z</time>
      </trkpt>
      <trkpt lat="46.09659" lon="6.25773">
        <ele>838</ele>
        <time>2018-05-11T07:36:52Z</time>
      </trkpt>
      <trkpt lat="46.09657" lon="6.25768">
        <ele>837</ele>
        <time>2018-05-11T07:36:54Z</time>
      </trkpt>
      <trkpt lat="46.09655" lon="6.25766">
        <ele>838</ele>
        <time>2018-05-11T07:36:55Z</time>
      </trkpt>
      <trkpt lat="46.09654" lon="6.25763">
        <ele>839</ele>
        <time>2018-05-11T07:36:56Z</time>
      </trkpt>
      <trkpt lat="46.09653" lon="6.25761">
        <ele>839</ele>
        <time>2018-05-11T07:36:57Z</time>
      </trkpt>
      <trkpt lat="46.09651" lon="6.25758">
        <ele>839</ele>
        <time>2018-05-11T07:36:58Z</time>
      </trkpt>
      <trkpt lat="46.09644" lon="6.25745">
        <ele>841</ele>
        <time>2018-05-11T07:37:03Z</time>
      </trkpt>
      <trkpt lat="46.09643" lon="6.25742">
        <ele>841</ele>
        <time>2018-05-11T07:37:04Z</time>
      </trkpt>
      <trkpt lat="46.09642" lon="6.2574">
        <ele>841</ele>
        <time>2018-05-11T07:37:05Z</time>
      </trkpt>
      <trkpt lat="46.09637" lon="6.2573">
        <ele>843</ele>
        <time>2018-05-11T07:37:09Z</time>
      </trkpt>
      <trkpt lat="46.09635" lon="6.25724">
        <ele>844</ele>
        <time>2018-05-11T07:37:11Z</time>
      </trkpt>
      <trkpt lat="46.09632" lon="6.2572">
        <ele>844</ele>
        <time>2018-05-11T07:37:13Z</time>
      </trkpt>
      <trkpt lat="46.09631" lon="6.25717">
        <ele>845</ele>
        <time>2018-05-11T07:37:14Z</time>
      </trkpt>
      <trkpt lat="46.0963" lon="6.25714">
        <ele>845</ele>
        <time>2018-05-11T07:37:15Z</time>
      </trkpt>
      <trkpt lat="46.09629" lon="6.25712">
        <ele>845</ele>
        <time>2018-05-11T07:37:16Z</time>
      </trkpt>
      <trkpt lat="46.09627" lon="6.2571">
        <ele>845</ele>
        <time>2018-05-11T07:37:17Z</time>
      </trkpt>
      <trkpt lat="46.09626" lon="6.25708">
        <ele>845</ele>
        <time>2018-05-11T07:37:18Z</time>
      </trkpt>
      <trkpt lat="46.0962" lon="6.25694">
        <ele>846</ele>
        <time>2018-05-11T07:37:23Z</time>
      </trkpt>
      <trkpt lat="46.09619" lon="6.25691">
        <ele>846</ele>
        <time>2018-05-11T07:37:24Z</time>
      </trkpt>
      <trkpt lat="46.09616" lon="6.25684">
        <ele>845</ele>
        <time>2018-05-11T07:37:27Z</time>
      </trkpt>
      <trkpt lat="46.09614" lon="6.25681">
        <ele>845</ele>
        <time>2018-05-11T07:37:28Z</time>
      </trkpt>
      <trkpt lat="46.09613" lon="6.25679">
        <ele>845</ele>
        <time>2018-05-11T07:37:29Z</time>
      </trkpt>
      <trkpt lat="46.09612" lon="6.25676">
        <ele>845</ele>
        <time>2018-05-11T07:37:30Z</time>
      </trkpt>
      <trkpt lat="46.09612" lon="6.25673">
        <ele>845</ele>
        <time>2018-05-11T07:37:31Z</time>
      </trkpt>
      <trkpt lat="46.09611" lon="6.25671">
        <ele>846</ele>
        <time>2018-05-11T07:37:32Z</time>
      </trkpt>
      <trkpt lat="46.0961" lon="6.25669">
        <ele>846</ele>
        <time>2018-05-11T07:37:33Z</time>
      </trkpt>
      <trkpt lat="46.09609" lon="6.25667">
        <ele>847</ele>
        <time>2018-05-11T07:37:34Z</time>
      </trkpt>
      <trkpt lat="46.09608" lon="6.25664">
        <ele>847</ele>
        <time>2018-05-11T07:37:35Z</time>
      </trkpt>
      <trkpt lat="46.09607" lon="6.25662">
        <ele>848</ele>
        <time>2018-05-11T07:37:36Z</time>
      </trkpt>
      <trkpt lat="46.09606" lon="6.25659">
        <ele>848</ele>
        <time>2018-05-11T07:37:37Z</time>
      </trkpt>
      <trkpt lat="46.09605" lon="6.25656">
        <ele>848</ele>
        <time>2018-05-11T07:37:38Z</time>
      </trkpt>
      <trkpt lat="46.09603" lon="6.2565">
        <ele>849</ele>
        <time>2018-05-11T07:37:40Z</time>
      </trkpt>
      <trkpt lat="46.09602" lon="6.25646">
        <ele>849</ele>
        <time>2018-05-11T07:37:41Z</time>
      </trkpt>
      <trkpt lat="46.09601" lon="6.25641">
        <ele>850</ele>
        <time>2018-05-11T07:37:43Z</time>
      </trkpt>
      <trkpt lat="46.096" lon="6.25639">
        <ele>851</ele>
        <time>2018-05-11T07:37:44Z</time>
      </trkpt>
      <trkpt lat="46.09599" lon="6.25635">
        <ele>851</ele>
        <time>2018-05-11T07:37:45Z</time>
      </trkpt>
      <trkpt lat="46.09593" lon="6.25623">
        <ele>850</ele>
        <time>2018-05-11T07:37:50Z</time>
      </trkpt>
      <trkpt lat="46.09592" lon="6.25619">
        <ele>850</ele>
        <time>2018-05-11T07:37:51Z</time>
      </trkpt>
      <trkpt lat="46.0959" lon="6.25614">
        <ele>851</ele>
        <time>2018-05-11T07:37:53Z</time>
      </trkpt>
      <trkpt lat="46.09589" lon="6.25611">
        <ele>851</ele>
        <time>2018-05-11T07:37:54Z</time>
      </trkpt>
      <trkpt lat="46.09588" lon="6.25608">
        <ele>851</ele>
        <time>2018-05-11T07:37:55Z</time>
      </trkpt>
      <trkpt lat="46.09587" lon="6.25605">
        <ele>851</ele>
        <time>2018-05-11T07:37:56Z</time>
      </trkpt>
      <trkpt lat="46.09586" lon="6.25603">
        <ele>852</ele>
        <time>2018-05-11T07:37:57Z</time>
      </trkpt>
      <trkpt lat="46.09585" lon="6.25599">
        <ele>853</ele>
        <time>2018-05-11T07:37:58Z</time>
      </trkpt>
      <trkpt lat="46.09581" lon="6.25592">
        <ele>855</ele>
        <time>2018-05-11T07:38:01Z</time>
      </trkpt>
      <trkpt lat="46.0958" lon="6.25589">
        <ele>854</ele>
        <time>2018-05-11T07:38:02Z</time>
      </trkpt>
      <trkpt lat="46.09579" lon="6.25586">
        <ele>854</ele>
        <time>2018-05-11T07:38:03Z</time>
      </trkpt>
      <trkpt lat="46.09578" lon="6.25584">
        <ele>855</ele>
        <time>2018-05-11T07:38:04Z</time>
      </trkpt>
      <trkpt lat="46.09577" lon="6.25582">
        <ele>855</ele>
        <time>2018-05-11T07:38:05Z</time>
      </trkpt>
      <trkpt lat="46.09577" lon="6.25579">
        <ele>855</ele>
        <time>2018-05-11T07:38:06Z</time>
      </trkpt>
      <trkpt lat="46.09573" lon="6.25567">
        <ele>853</ele>
        <time>2018-05-11T07:38:10Z</time>
      </trkpt>
      <trkpt lat="46.09572" lon="6.25561">
        <ele>854</ele>
        <time>2018-05-11T07:38:12Z</time>
      </trkpt>
      <trkpt lat="46.09571" lon="6.25558">
        <ele>854</ele>
        <time>2018-05-11T07:38:13Z</time>
      </trkpt>
      <trkpt lat="46.0957" lon="6.25555">
        <ele>854</ele>
        <time>2018-05-11T07:38:14Z</time>
      </trkpt>
      <trkpt lat="46.09568" lon="6.25553">
        <ele>855</ele>
        <time>2018-05-11T07:38:15Z</time>
      </trkpt>
      <trkpt lat="46.09567" lon="6.2555">
        <ele>854</ele>
        <time>2018-05-11T07:38:16Z</time>
      </trkpt>
      <trkpt lat="46.09565" lon="6.25548">
        <ele>854</ele>
        <time>2018-05-11T07:38:17Z</time>
      </trkpt>
      <trkpt lat="46.09563" lon="6.25539">
        <ele>854</ele>
        <time>2018-05-11T07:38:20Z</time>
      </trkpt>
      <trkpt lat="46.0956" lon="6.25527">
        <ele>856</ele>
        <time>2018-05-11T07:38:24Z</time>
      </trkpt>
      <trkpt lat="46.09558" lon="6.25522">
        <ele>857</ele>
        <time>2018-05-11T07:38:26Z</time>
      </trkpt>
      <trkpt lat="46.09557" lon="6.25519">
        <ele>857</ele>
        <time>2018-05-11T07:38:27Z</time>
      </trkpt>
      <trkpt lat="46.09554" lon="6.25513">
        <ele>860</ele>
        <time>2018-05-11T07:38:29Z</time>
      </trkpt>
      <trkpt lat="46.09553" lon="6.25511">
        <ele>860</ele>
        <time>2018-05-11T07:38:30Z</time>
      </trkpt>
      <trkpt lat="46.0955" lon="6.25505">
        <ele>859</ele>
        <time>2018-05-11T07:38:32Z</time>
      </trkpt>
      <trkpt lat="46.09546" lon="6.25498">
        <ele>861</ele>
        <time>2018-05-11T07:38:35Z</time>
      </trkpt>
      <trkpt lat="46.09544" lon="6.25492">
        <ele>861</ele>
        <time>2018-05-11T07:38:37Z</time>
      </trkpt>
      <trkpt lat="46.09543" lon="6.2549">
        <ele>860</ele>
        <time>2018-05-11T07:38:38Z</time>
      </trkpt>
      <trkpt lat="46.09542" lon="6.25488">
        <ele>860</ele>
        <time>2018-05-11T07:38:39Z</time>
      </trkpt>
      <trkpt lat="46.09538" lon="6.25482">
        <ele>861</ele>
        <time>2018-05-11T07:38:41Z</time>
      </trkpt>
      <trkpt lat="46.09537" lon="6.25479">
        <ele>861</ele>
        <time>2018-05-11T07:38:42Z</time>
      </trkpt>
      <trkpt lat="46.09535" lon="6.25478">
        <ele>861</ele>
        <time>2018-05-11T07:38:43Z</time>
      </trkpt>
      <trkpt lat="46.09534" lon="6.25475">
        <ele>862</ele>
        <time>2018-05-11T07:38:44Z</time>
      </trkpt>
      <trkpt lat="46.09532" lon="6.2547">
        <ele>862</ele>
        <time>2018-05-11T07:38:46Z</time>
      </trkpt>
      <trkpt lat="46.09531" lon="6.25468">
        <ele>862</ele>
        <time>2018-05-11T07:38:47Z</time>
      </trkpt>
      <trkpt lat="46.09529" lon="6.25464">
        <ele>866</ele>
        <time>2018-05-11T07:38:49Z</time>
      </trkpt>
      <trkpt lat="46.09528" lon="6.25459">
        <ele>866</ele>
        <time>2018-05-11T07:38:51Z</time>
      </trkpt>
      <trkpt lat="46.09526" lon="6.25454">
        <ele>866</ele>
        <time>2018-05-11T07:38:53Z</time>
      </trkpt>
      <trkpt lat="46.09524" lon="6.25453">
        <ele>867</ele>
        <time>2018-05-11T07:38:54Z</time>
      </trkpt>
      <trkpt lat="46.09523" lon="6.2545">
        <ele>866</ele>
        <time>2018-05-11T07:38:55Z</time>
      </trkpt>
      <trkpt lat="46.09519" lon="6.25447">
        <ele>866</ele>
        <time>2018-05-11T07:38:57Z</time>
      </trkpt>
      <trkpt lat="46.09517" lon="6.25444">
        <ele>867</ele>
        <time>2018-05-11T07:38:58Z</time>
      </trkpt>
      <trkpt lat="46.09509" lon="6.25437">
        <ele>867</ele>
        <time>2018-05-11T07:39:00Z</time>
      </trkpt>
      <trkpt lat="46.09507" lon="6.2543">
        <ele>867</ele>
        <time>2018-05-11T07:39:03Z</time>
      </trkpt>
      <trkpt lat="46.09506" lon="6.25428">
        <ele>868</ele>
        <time>2018-05-11T07:39:04Z</time>
      </trkpt>
      <trkpt lat="46.09505" lon="6.25425">
        <ele>868</ele>
        <time>2018-05-11T07:39:05Z</time>
      </trkpt>
      <trkpt lat="46.09503" lon="6.25423">
        <ele>868</ele>
        <time>2018-05-11T07:39:06Z</time>
      </trkpt>
      <trkpt lat="46.09502" lon="6.2542">
        <ele>868</ele>
        <time>2018-05-11T07:39:07Z</time>
      </trkpt>
      <trkpt lat="46.095" lon="6.25418">
        <ele>867</ele>
        <time>2018-05-11T07:39:08Z</time>
      </trkpt>
      <trkpt lat="46.09491" lon="6.25407">
        <ele>867</ele>
        <time>2018-05-11T07:39:13Z</time>
      </trkpt>
      <trkpt lat="46.09488" lon="6.25401">
        <ele>867</ele>
        <time>2018-05-11T07:39:15Z</time>
      </trkpt>
      <trkpt lat="46.09484" lon="6.25396">
        <ele>867</ele>
        <time>2018-05-11T07:39:17Z</time>
      </trkpt>
      <trkpt lat="46.09482" lon="6.25393">
        <ele>867</ele>
        <time>2018-05-11T07:39:18Z</time>
      </trkpt>
      <trkpt lat="46.0948" lon="6.25391">
        <ele>867</ele>
        <time>2018-05-11T07:39:19Z</time>
      </trkpt>
      <trkpt lat="46.09478" lon="6.25388">
        <ele>868</ele>
        <time>2018-05-11T07:39:20Z</time>
      </trkpt>
      <trkpt lat="46.09476" lon="6.25385">
        <ele>868</ele>
        <time>2018-05-11T07:39:21Z</time>
      </trkpt>
      <trkpt lat="46.09473" lon="6.25379">
        <ele>868</ele>
        <time>2018-05-11T07:39:23Z</time>
      </trkpt>
      <trkpt lat="46.09469" lon="6.25372">
        <ele>871</ele>
        <time>2018-05-11T07:39:26Z</time>
      </trkpt>
      <trkpt lat="46.09462" lon="6.25365">
        <ele>874</ele>
        <time>2018-05-11T07:39:29Z</time>
      </trkpt>
      <trkpt lat="46.09461" lon="6.25362">
        <ele>875</ele>
        <time>2018-05-11T07:39:30Z</time>
      </trkpt>
      <trkpt lat="46.09458" lon="6.25361">
        <ele>876</ele>
        <time>2018-05-11T07:39:31Z</time>
      </trkpt>
      <trkpt lat="46.09453" lon="6.25356">
        <ele>876</ele>
        <time>2018-05-11T07:39:33Z</time>
      </trkpt>
      <trkpt lat="46.09449" lon="6.2535">
        <ele>877</ele>
        <time>2018-05-11T07:39:35Z</time>
      </trkpt>
      <trkpt lat="46.09448" lon="6.25347">
        <ele>878</ele>
        <time>2018-05-11T07:39:36Z</time>
      </trkpt>
      <trkpt lat="46.09445" lon="6.25344">
        <ele>878</ele>
        <time>2018-05-11T07:39:38Z</time>
      </trkpt>
      <trkpt lat="46.09443" lon="6.25341">
        <ele>877</ele>
        <time>2018-05-11T07:39:39Z</time>
      </trkpt>
      <trkpt lat="46.09432" lon="6.25329">
        <ele>878</ele>
        <time>2018-05-11T07:39:44Z</time>
      </trkpt>
      <trkpt lat="46.09431" lon="6.25327">
        <ele>878</ele>
        <time>2018-05-11T07:39:45Z</time>
      </trkpt>
      <trkpt lat="46.09429" lon="6.25325">
        <ele>878</ele>
        <time>2018-05-11T07:39:46Z</time>
      </trkpt>
      <trkpt lat="46.09425" lon="6.25322">
        <ele>879</ele>
        <time>2018-05-11T07:39:48Z</time>
      </trkpt>
      <trkpt lat="46.09424" lon="6.25319">
        <ele>879</ele>
        <time>2018-05-11T07:39:49Z</time>
      </trkpt>
      <trkpt lat="46.09422" lon="6.25317">
        <ele>879</ele>
        <time>2018-05-11T07:39:50Z</time>
      </trkpt>
      <trkpt lat="46.09421" lon="6.25315">
        <ele>879</ele>
        <time>2018-05-11T07:39:51Z</time>
      </trkpt>
      <trkpt lat="46.09419" lon="6.25313">
        <ele>878</ele>
        <time>2018-05-11T07:39:52Z</time>
      </trkpt>
      <trkpt lat="46.09417" lon="6.25311">
        <ele>878</ele>
        <time>2018-05-11T07:39:53Z</time>
      </trkpt>
      <trkpt lat="46.09415" lon="6.25309">
        <ele>878</ele>
        <time>2018-05-11T07:39:54Z</time>
      </trkpt>
      <trkpt lat="46.09413" lon="6.25306">
        <ele>878</ele>
        <time>2018-05-11T07:39:55Z</time>
      </trkpt>
      <trkpt lat="46.09411" lon="6.25304">
        <ele>878</ele>
        <time>2018-05-11T07:39:56Z</time>
      </trkpt>
      <trkpt lat="46.09409" lon="6.25301">
        <ele>879</ele>
        <time>2018-05-11T07:39:57Z</time>
      </trkpt>
      <trkpt lat="46.09407" lon="6.253">
        <ele>878</ele>
        <time>2018-05-11T07:39:58Z</time>
      </trkpt>
      <trkpt lat="46.09403" lon="6.25295">
        <ele>879</ele>
        <time>2018-05-11T07:40:00Z</time>
      </trkpt>
      <trkpt lat="46.09399" lon="6.25292">
        <ele>879</ele>
        <time>2018-05-11T07:40:01Z</time>
      </trkpt>
      <trkpt lat="46.09397" lon="6.2529">
        <ele>880</ele>
        <time>2018-05-11T07:40:02Z</time>
      </trkpt>
      <trkpt lat="46.09396" lon="6.25288">
        <ele>880</ele>
        <time>2018-05-11T07:40:03Z</time>
      </trkpt>
      <trkpt lat="46.09395" lon="6.25287">
        <ele>880</ele>
        <time>2018-05-11T07:40:04Z</time>
      </trkpt>
      <trkpt lat="46.09388" lon="6.25275">
        <ele>882</ele>
        <time>2018-05-11T07:40:09Z</time>
      </trkpt>
      <trkpt lat="46.09386" lon="6.25273">
        <ele>883</ele>
        <time>2018-05-11T07:40:10Z</time>
      </trkpt>
      <trkpt lat="46.09385" lon="6.25271">
        <ele>884</ele>
        <time>2018-05-11T07:40:11Z</time>
      </trkpt>
      <trkpt lat="46.09383" lon="6.25269">
        <ele>884</ele>
        <time>2018-05-11T07:40:12Z</time>
      </trkpt>
      <trkpt lat="46.09382" lon="6.25267">
        <ele>884</ele>
        <time>2018-05-11T07:40:13Z</time>
      </trkpt>
      <trkpt lat="46.09378" lon="6.25263">
        <ele>885</ele>
        <time>2018-05-11T07:40:15Z</time>
      </trkpt>
      <trkpt lat="46.09377" lon="6.2526">
        <ele>886</ele>
        <time>2018-05-11T07:40:16Z</time>
      </trkpt>
      <trkpt lat="46.09372" lon="6.25255">
        <ele>887</ele>
        <time>2018-05-11T07:40:19Z</time>
      </trkpt>
      <trkpt lat="46.09363" lon="6.25251">
        <ele>888</ele>
        <time>2018-05-11T07:40:21Z</time>
      </trkpt>
      <trkpt lat="46.09361" lon="6.2525">
        <ele>886</ele>
        <time>2018-05-11T07:40:22Z</time>
      </trkpt>
      <trkpt lat="46.09359" lon="6.25245">
        <ele>886</ele>
        <time>2018-05-11T07:40:24Z</time>
      </trkpt>
      <trkpt lat="46.09358" lon="6.25243">
        <ele>886</ele>
        <time>2018-05-11T07:40:25Z</time>
      </trkpt>
      <trkpt lat="46.09357" lon="6.25241">
        <ele>885</ele>
        <time>2018-05-11T07:40:26Z</time>
      </trkpt>
      <trkpt lat="46.09354" lon="6.25237">
        <ele>887</ele>
        <time>2018-05-11T07:40:28Z</time>
      </trkpt>
      <trkpt lat="46.09353" lon="6.25235">
        <ele>888</ele>
        <time>2018-05-11T07:40:29Z</time>
      </trkpt>
      <trkpt lat="46.09352" lon="6.25233">
        <ele>888</ele>
        <time>2018-05-11T07:40:30Z</time>
      </trkpt>
      <trkpt lat="46.09349" lon="6.25228">
        <ele>889</ele>
        <time>2018-05-11T07:40:32Z</time>
      </trkpt>
      <trkpt lat="46.09347" lon="6.25226">
        <ele>889</ele>
        <time>2018-05-11T07:40:33Z</time>
      </trkpt>
      <trkpt lat="46.09346" lon="6.25224">
        <ele>890</ele>
        <time>2018-05-11T07:40:34Z</time>
      </trkpt>
      <trkpt lat="46.09344" lon="6.25218">
        <ele>890</ele>
        <time>2018-05-11T07:40:36Z</time>
      </trkpt>
      <trkpt lat="46.09343" lon="6.25216">
        <ele>891</ele>
        <time>2018-05-11T07:40:37Z</time>
      </trkpt>
      <trkpt lat="46.09341" lon="6.25214">
        <ele>890</ele>
        <time>2018-05-11T07:40:38Z</time>
      </trkpt>
      <trkpt lat="46.09334" lon="6.25204">
        <ele>890</ele>
        <time>2018-05-11T07:40:42Z</time>
      </trkpt>
      <trkpt lat="46.09332" lon="6.25202">
        <ele>890</ele>
        <time>2018-05-11T07:40:43Z</time>
      </trkpt>
      <trkpt lat="46.09322" lon="6.25187">
        <ele>889</ele>
        <time>2018-05-11T07:40:48Z</time>
      </trkpt>
      <trkpt lat="46.09318" lon="6.25182">
        <ele>889</ele>
        <time>2018-05-11T07:40:50Z</time>
      </trkpt>
      <trkpt lat="46.09309" lon="6.2517">
        <ele>889</ele>
        <time>2018-05-11T07:40:54Z</time>
      </trkpt>
      <trkpt lat="46.09308" lon="6.25166">
        <ele>890</ele>
        <time>2018-05-11T07:40:55Z</time>
      </trkpt>
      <trkpt lat="46.09305" lon="6.25163">
        <ele>890</ele>
        <time>2018-05-11T07:40:56Z</time>
      </trkpt>
      <trkpt lat="46.09302" lon="6.25156">
        <ele>889</ele>
        <time>2018-05-11T07:40:58Z</time>
      </trkpt>
      <trkpt lat="46.093" lon="6.25154">
        <ele>889</ele>
        <time>2018-05-11T07:40:59Z</time>
      </trkpt>
      <trkpt lat="46.09296" lon="6.25149">
        <ele>889</ele>
        <time>2018-05-11T07:41:01Z</time>
      </trkpt>
      <trkpt lat="46.09289" lon="6.25145">
        <ele>889</ele>
        <time>2018-05-11T07:41:02Z</time>
      </trkpt>
      <trkpt lat="46.09287" lon="6.25144">
        <ele>889</ele>
        <time>2018-05-11T07:41:03Z</time>
      </trkpt>
      <trkpt lat="46.09286" lon="6.25141">
        <ele>891</ele>
        <time>2018-05-11T07:41:04Z</time>
      </trkpt>
      <trkpt lat="46.09285" lon="6.25139">
        <ele>891</ele>
        <time>2018-05-11T07:41:05Z</time>
      </trkpt>
      <trkpt lat="46.09283" lon="6.25137">
        <ele>889</ele>
        <time>2018-05-11T07:41:06Z</time>
      </trkpt>
      <trkpt lat="46.09277" lon="6.25133">
        <ele>890</ele>
        <time>2018-05-11T07:41:08Z</time>
      </trkpt>
      <trkpt lat="46.09275" lon="6.25131">
        <ele>891</ele>
        <time>2018-05-11T07:41:09Z</time>
      </trkpt>
      <trkpt lat="46.09271" lon="6.25129">
        <ele>891</ele>
        <time>2018-05-11T07:41:10Z</time>
      </trkpt>
      <trkpt lat="46.09259" lon="6.25119">
        <ele>890</ele>
        <time>2018-05-11T07:41:14Z</time>
      </trkpt>
      <trkpt lat="46.09248" lon="6.2511">
        <ele>892</ele>
        <time>2018-05-11T07:41:18Z</time>
      </trkpt>
      <trkpt lat="46.09245" lon="6.25107">
        <ele>893</ele>
        <time>2018-05-11T07:41:19Z</time>
      </trkpt>
      <trkpt lat="46.09242" lon="6.25106">
        <ele>894</ele>
        <time>2018-05-11T07:41:20Z</time>
      </trkpt>
      <trkpt lat="46.09239" lon="6.25103">
        <ele>894</ele>
        <time>2018-05-11T07:41:21Z</time>
      </trkpt>
      <trkpt lat="46.09236" lon="6.25102">
        <ele>894</ele>
        <time>2018-05-11T07:41:22Z</time>
      </trkpt>
      <trkpt lat="46.09234" lon="6.25099">
        <ele>894</ele>
        <time>2018-05-11T07:41:23Z</time>
      </trkpt>
      <trkpt lat="46.09226" lon="6.25097">
        <ele>895</ele>
        <time>2018-05-11T07:41:24Z</time>
      </trkpt>
      <trkpt lat="46.09223" lon="6.25092">
        <ele>893</ele>
        <time>2018-05-11T07:41:27Z</time>
      </trkpt>
      <trkpt lat="46.09219" lon="6.25089">
        <ele>894</ele>
        <time>2018-05-11T07:41:29Z</time>
      </trkpt>
      <trkpt lat="46.09217" lon="6.25086">
        <ele>894</ele>
        <time>2018-05-11T07:41:30Z</time>
      </trkpt>
      <trkpt lat="46.09215" lon="6.25085">
        <ele>895</ele>
        <time>2018-05-11T07:41:31Z</time>
      </trkpt>
      <trkpt lat="46.09211" lon="6.25081">
        <ele>895</ele>
        <time>2018-05-11T07:41:33Z</time>
      </trkpt>
      <trkpt lat="46.09208" lon="6.25081">
        <ele>896</ele>
        <time>2018-05-11T07:41:34Z</time>
      </trkpt>
      <trkpt lat="46.09206" lon="6.25079">
        <ele>896</ele>
        <time>2018-05-11T07:41:35Z</time>
      </trkpt>
      <trkpt lat="46.09204" lon="6.25077">
        <ele>897</ele>
        <time>2018-05-11T07:41:36Z</time>
      </trkpt>
      <trkpt lat="46.09199" lon="6.25074">
        <ele>897</ele>
        <time>2018-05-11T07:41:38Z</time>
      </trkpt>
      <trkpt lat="46.0919" lon="6.25067">
        <ele>898</ele>
        <time>2018-05-11T07:41:42Z</time>
      </trkpt>
      <trkpt lat="46.09185" lon="6.25065">
        <ele>899</ele>
        <time>2018-05-11T07:41:44Z</time>
      </trkpt>
      <trkpt lat="46.09183" lon="6.25064">
        <ele>899</ele>
        <time>2018-05-11T07:41:45Z</time>
      </trkpt>
      <trkpt lat="46.09181" lon="6.25063">
        <ele>900</ele>
        <time>2018-05-11T07:41:46Z</time>
      </trkpt>
      <trkpt lat="46.09179" lon="6.25061">
        <ele>900</ele>
        <time>2018-05-11T07:41:47Z</time>
      </trkpt>
      <trkpt lat="46.09166" lon="6.25052">
        <ele>900</ele>
        <time>2018-05-11T07:41:52Z</time>
      </trkpt>
      <trkpt lat="46.09162" lon="6.25049">
        <ele>901</ele>
        <time>2018-05-11T07:41:54Z</time>
      </trkpt>
      <trkpt lat="46.09156" lon="6.25041">
        <ele>903</ele>
        <time>2018-05-11T07:41:58Z</time>
      </trkpt>
      <trkpt lat="46.09153" lon="6.25039">
        <ele>904</ele>
        <time>2018-05-11T07:41:59Z</time>
      </trkpt>
      <trkpt lat="46.09149" lon="6.25034">
        <ele>904</ele>
        <time>2018-05-11T07:42:01Z</time>
      </trkpt>
      <trkpt lat="46.09147" lon="6.25032">
        <ele>903</ele>
        <time>2018-05-11T07:42:02Z</time>
      </trkpt>
      <trkpt lat="46.09143" lon="6.25026">
        <ele>904</ele>
        <time>2018-05-11T07:42:04Z</time>
      </trkpt>
      <trkpt lat="46.09132" lon="6.25016">
        <ele>905</ele>
        <time>2018-05-11T07:42:07Z</time>
      </trkpt>
      <trkpt lat="46.09131" lon="6.25014">
        <ele>904</ele>
        <time>2018-05-11T07:42:08Z</time>
      </trkpt>
      <trkpt lat="46.0913" lon="6.25012">
        <ele>905</ele>
        <time>2018-05-11T07:42:09Z</time>
      </trkpt>
      <trkpt lat="46.09129" lon="6.25009">
        <ele>904</ele>
        <time>2018-05-11T07:42:10Z</time>
      </trkpt>
      <trkpt lat="46.09127" lon="6.25006">
        <ele>904</ele>
        <time>2018-05-11T07:42:11Z</time>
      </trkpt>
      <trkpt lat="46.09126" lon="6.25004">
        <ele>903</ele>
        <time>2018-05-11T07:42:12Z</time>
      </trkpt>
      <trkpt lat="46.09124" lon="6.25001">
        <ele>904</ele>
        <time>2018-05-11T07:42:13Z</time>
      </trkpt>
      <trkpt lat="46.09121" lon="6.24996">
        <ele>904</ele>
        <time>2018-05-11T07:42:15Z</time>
      </trkpt>
      <trkpt lat="46.09119" lon="6.24993">
        <ele>904</ele>
        <time>2018-05-11T07:42:16Z</time>
      </trkpt>
      <trkpt lat="46.09117" lon="6.24991">
        <ele>903</ele>
        <time>2018-05-11T07:42:17Z</time>
      </trkpt>
      <trkpt lat="46.09116" lon="6.24987">
        <ele>903</ele>
        <time>2018-05-11T07:42:18Z</time>
      </trkpt>
      <trkpt lat="46.09114" lon="6.24985">
        <ele>903</ele>
        <time>2018-05-11T07:42:19Z</time>
      </trkpt>
      <trkpt lat="46.09108" lon="6.24972">
        <ele>904</ele>
        <time>2018-05-11T07:42:23Z</time>
      </trkpt>
      <trkpt lat="46.09107" lon="6.24968">
        <ele>903</ele>
        <time>2018-05-11T07:42:24Z</time>
      </trkpt>
      <trkpt lat="46.09096" lon="6.24952">
        <ele>905</ele>
        <time>2018-05-11T07:42:26Z</time>
      </trkpt>
      <trkpt lat="46.0909" lon="6.24943">
        <ele>902</ele>
        <time>2018-05-11T07:42:28Z</time>
      </trkpt>
      <trkpt lat="46.0909" lon="6.24937">
        <ele>902</ele>
        <time>2018-05-11T07:42:30Z</time>
      </trkpt>
      <trkpt lat="46.0909" lon="6.24934">
        <ele>902</ele>
        <time>2018-05-11T07:42:31Z</time>
      </trkpt>
      <trkpt lat="46.0909" lon="6.24931">
        <ele>902</ele>
        <time>2018-05-11T07:42:32Z</time>
      </trkpt>
      <trkpt lat="46.0909" lon="6.24927">
        <ele>902</ele>
        <time>2018-05-11T07:42:33Z</time>
      </trkpt>
      <trkpt lat="46.0909" lon="6.24923">
        <ele>902</ele>
        <time>2018-05-11T07:42:34Z</time>
      </trkpt>
      <trkpt lat="46.09088" lon="6.24905">
        <ele>903</ele>
        <time>2018-05-11T07:42:38Z</time>
      </trkpt>
      <trkpt lat="46.09084" lon="6.24888">
        <ele>903</ele>
        <time>2018-05-11T07:42:42Z</time>
      </trkpt>
      <trkpt lat="46.09084" lon="6.24883">
        <ele>903</ele>
        <time>2018-05-11T07:42:43Z</time>
      </trkpt>
      <trkpt lat="46.09074" lon="6.24864">
        <ele>904</ele>
        <time>2018-05-11T07:42:48Z</time>
      </trkpt>
      <trkpt lat="46.09073" lon="6.2486">
        <ele>905</ele>
        <time>2018-05-11T07:42:49Z</time>
      </trkpt>
      <trkpt lat="46.09062" lon="6.24848">
        <ele>905</ele>
        <time>2018-05-11T07:42:50Z</time>
      </trkpt>
      <trkpt lat="46.09061" lon="6.24846">
        <ele>905</ele>
        <time>2018-05-11T07:42:51Z</time>
      </trkpt>
      <trkpt lat="46.09059" lon="6.2484">
        <ele>906</ele>
        <time>2018-05-11T07:42:53Z</time>
      </trkpt>
      <trkpt lat="46.09054" lon="6.24828">
        <ele>906</ele>
        <time>2018-05-11T07:42:57Z</time>
      </trkpt>
      <trkpt lat="46.09053" lon="6.24825">
        <ele>906</ele>
        <time>2018-05-11T07:42:58Z</time>
      </trkpt>
      <trkpt lat="46.09048" lon="6.24817">
        <ele>906</ele>
        <time>2018-05-11T07:43:01Z</time>
      </trkpt>
      <trkpt lat="46.09046" lon="6.2481">
        <ele>907</ele>
        <time>2018-05-11T07:43:03Z</time>
      </trkpt>
      <trkpt lat="46.09044" lon="6.24806">
        <ele>908</ele>
        <time>2018-05-11T07:43:04Z</time>
      </trkpt>
      <trkpt lat="46.09037" lon="6.24796">
        <ele>910</ele>
        <time>2018-05-11T07:43:06Z</time>
      </trkpt>
      <trkpt lat="46.09032" lon="6.24785">
        <ele>912</ele>
        <time>2018-05-11T07:43:10Z</time>
      </trkpt>
      <trkpt lat="46.09031" lon="6.24782">
        <ele>912</ele>
        <time>2018-05-11T07:43:11Z</time>
      </trkpt>
      <trkpt lat="46.0903" lon="6.24779">
        <ele>912</ele>
        <time>2018-05-11T07:43:12Z</time>
      </trkpt>
      <trkpt lat="46.09027" lon="6.24774">
        <ele>912</ele>
        <time>2018-05-11T07:43:14Z</time>
      </trkpt>
      <trkpt lat="46.09026" lon="6.2477">
        <ele>912</ele>
        <time>2018-05-11T07:43:15Z</time>
      </trkpt>
      <trkpt lat="46.09022" lon="6.24764">
        <ele>911</ele>
        <time>2018-05-11T07:43:17Z</time>
      </trkpt>
      <trkpt lat="46.0902" lon="6.24762">
        <ele>912</ele>
        <time>2018-05-11T07:43:18Z</time>
      </trkpt>
      <trkpt lat="46.09018" lon="6.24759">
        <ele>912</ele>
        <time>2018-05-11T07:43:19Z</time>
      </trkpt>
      <trkpt lat="46.09016" lon="6.24756">
        <ele>913</ele>
        <time>2018-05-11T07:43:20Z</time>
      </trkpt>
      <trkpt lat="46.09014" lon="6.24749">
        <ele>912</ele>
        <time>2018-05-11T07:43:22Z</time>
      </trkpt>
      <trkpt lat="46.09013" lon="6.24746">
        <ele>912</ele>
        <time>2018-05-11T07:43:23Z</time>
      </trkpt>
      <trkpt lat="46.09012" lon="6.24743">
        <ele>913</ele>
        <time>2018-05-11T07:43:24Z</time>
      </trkpt>
      <trkpt lat="46.09012" lon="6.2474">
        <ele>913</ele>
        <time>2018-05-11T07:43:25Z</time>
      </trkpt>
      <trkpt lat="46.0901" lon="6.24736">
        <ele>914</ele>
        <time>2018-05-11T07:43:27Z</time>
      </trkpt>
      <trkpt lat="46.09005" lon="6.24727">
        <ele>914</ele>
        <time>2018-05-11T07:43:30Z</time>
      </trkpt>
      <trkpt lat="46.09004" lon="6.24724">
        <ele>914</ele>
        <time>2018-05-11T07:43:31Z</time>
      </trkpt>
      <trkpt lat="46.09003" lon="6.24722">
        <ele>915</ele>
        <time>2018-05-11T07:43:32Z</time>
      </trkpt>
      <trkpt lat="46.08998" lon="6.24713">
        <ele>915</ele>
        <time>2018-05-11T07:43:35Z</time>
      </trkpt>
      <trkpt lat="46.08993" lon="6.24705">
        <ele>915</ele>
        <time>2018-05-11T07:43:38Z</time>
      </trkpt>
      <trkpt lat="46.08985" lon="6.24695">
        <ele>917</ele>
        <time>2018-05-11T07:43:42Z</time>
      </trkpt>
      <trkpt lat="46.08983" lon="6.24692">
        <ele>917</ele>
        <time>2018-05-11T07:43:43Z</time>
      </trkpt>
      <trkpt lat="46.08981" lon="6.2469">
        <ele>917</ele>
        <time>2018-05-11T07:43:44Z</time>
      </trkpt>
      <trkpt lat="46.08979" lon="6.24687">
        <ele>917</ele>
        <time>2018-05-11T07:43:45Z</time>
      </trkpt>
      <trkpt lat="46.08971" lon="6.24683">
        <ele>918</ele>
        <time>2018-05-11T07:43:46Z</time>
      </trkpt>
      <trkpt lat="46.08964" lon="6.24675">
        <ele>918</ele>
        <time>2018-05-11T07:43:51Z</time>
      </trkpt>
      <trkpt lat="46.08955" lon="6.2467">
        <ele>918</ele>
        <time>2018-05-11T07:43:56Z</time>
      </trkpt>
      <trkpt lat="46.08953" lon="6.24669">
        <ele>919</ele>
        <time>2018-05-11T07:43:57Z</time>
      </trkpt>
      <trkpt lat="46.0894" lon="6.24665">
        <ele>919</ele>
        <time>2018-05-11T07:44:02Z</time>
      </trkpt>
      <trkpt lat="46.08934" lon="6.24662">
        <ele>918</ele>
        <time>2018-05-11T07:44:04Z</time>
      </trkpt>
      <trkpt lat="46.0893" lon="6.24661">
        <ele>918</ele>
        <time>2018-05-11T07:44:05Z</time>
      </trkpt>
      <trkpt lat="46.08927" lon="6.24659">
        <ele>920</ele>
        <time>2018-05-11T07:44:06Z</time>
      </trkpt>
      <trkpt lat="46.08917" lon="6.24657">
        <ele>922</ele>
        <time>2018-05-11T07:44:09Z</time>
      </trkpt>
      <trkpt lat="46.08912" lon="6.24653">
        <ele>925</ele>
        <time>2018-05-11T07:44:11Z</time>
      </trkpt>
      <trkpt lat="46.0891" lon="6.24652">
        <ele>925</ele>
        <time>2018-05-11T07:44:12Z</time>
      </trkpt>
      <trkpt lat="46.08907" lon="6.2465">
        <ele>925</ele>
        <time>2018-05-11T07:44:13Z</time>
      </trkpt>
      <trkpt lat="46.08905" lon="6.2465">
        <ele>925</ele>
        <time>2018-05-11T07:44:14Z</time>
      </trkpt>
      <trkpt lat="46.08902" lon="6.24648">
        <ele>925</ele>
        <time>2018-05-11T07:44:15Z</time>
      </trkpt>
      <trkpt lat="46.089" lon="6.24647">
        <ele>926</ele>
        <time>2018-05-11T07:44:16Z</time>
      </trkpt>
      <trkpt lat="46.08894" lon="6.24644">
        <ele>926</ele>
        <time>2018-05-11T07:44:18Z</time>
      </trkpt>
      <trkpt lat="46.08881" lon="6.24637">
        <ele>930</ele>
        <time>2018-05-11T07:44:23Z</time>
      </trkpt>
      <trkpt lat="46.08877" lon="6.24635">
        <ele>930</ele>
        <time>2018-05-11T07:44:25Z</time>
      </trkpt>
      <trkpt lat="46.08875" lon="6.24633">
        <ele>930</ele>
        <time>2018-05-11T07:44:26Z</time>
      </trkpt>
      <trkpt lat="46.08872" lon="6.24632">
        <ele>930</ele>
        <time>2018-05-11T07:44:27Z</time>
      </trkpt>
      <trkpt lat="46.08858" lon="6.24629">
        <ele>928</ele>
        <time>2018-05-11T07:44:30Z</time>
      </trkpt>
      <trkpt lat="46.08856" lon="6.24624">
        <ele>926</ele>
        <time>2018-05-11T07:44:32Z</time>
      </trkpt>
      <trkpt lat="46.08853" lon="6.24621">
        <ele>927</ele>
        <time>2018-05-11T07:44:34Z</time>
      </trkpt>
      <trkpt lat="46.08851" lon="6.24618">
        <ele>928</ele>
        <time>2018-05-11T07:44:35Z</time>
      </trkpt>
      <trkpt lat="46.08847" lon="6.24614">
        <ele>928</ele>
        <time>2018-05-11T07:44:37Z</time>
      </trkpt>
      <trkpt lat="46.08842" lon="6.24608">
        <ele>928</ele>
        <time>2018-05-11T07:44:39Z</time>
      </trkpt>
      <trkpt lat="46.08837" lon="6.24603">
        <ele>928</ele>
        <time>2018-05-11T07:44:41Z</time>
      </trkpt>
      <trkpt lat="46.08831" lon="6.24598">
        <ele>928</ele>
        <time>2018-05-11T07:44:43Z</time>
      </trkpt>
      <trkpt lat="46.08829" lon="6.24596">
        <ele>928</ele>
        <time>2018-05-11T07:44:44Z</time>
      </trkpt>
      <trkpt lat="46.08828" lon="6.24593">
        <ele>928</ele>
        <time>2018-05-11T07:44:45Z</time>
      </trkpt>
      <trkpt lat="46.08826" lon="6.2459">
        <ele>928</ele>
        <time>2018-05-11T07:44:46Z</time>
      </trkpt>
      <trkpt lat="46.08823" lon="6.24589">
        <ele>927</ele>
        <time>2018-05-11T07:44:47Z</time>
      </trkpt>
      <trkpt lat="46.08821" lon="6.24586">
        <ele>928</ele>
        <time>2018-05-11T07:44:48Z</time>
      </trkpt>
      <trkpt lat="46.0882" lon="6.24584">
        <ele>928</ele>
        <time>2018-05-11T07:44:49Z</time>
      </trkpt>
      <trkpt lat="46.08814" lon="6.24575">
        <ele>929</ele>
        <time>2018-05-11T07:44:51Z</time>
      </trkpt>
      <trkpt lat="46.08803" lon="6.24558">
        <ele>929</ele>
        <time>2018-05-11T07:44:54Z</time>
      </trkpt>
      <trkpt lat="46.08799" lon="6.24552">
        <ele>928</ele>
        <time>2018-05-11T07:44:55Z</time>
      </trkpt>
      <trkpt lat="46.08796" lon="6.24548">
        <ele>926</ele>
        <time>2018-05-11T07:44:56Z</time>
      </trkpt>
      <trkpt lat="46.08794" lon="6.24544">
        <ele>927</ele>
        <time>2018-05-11T07:44:57Z</time>
      </trkpt>
      <trkpt lat="46.08792" lon="6.24542">
        <ele>928</ele>
        <time>2018-05-11T07:44:58Z</time>
      </trkpt>
      <trkpt lat="46.0878" lon="6.24524">
        <ele>928</ele>
        <time>2018-05-11T07:45:02Z</time>
      </trkpt>
      <trkpt lat="46.08769" lon="6.24507">
        <ele>927</ele>
        <time>2018-05-11T07:45:06Z</time>
      </trkpt>
      <trkpt lat="46.08753" lon="6.24487">
        <ele>929</ele>
        <time>2018-05-11T07:45:11Z</time>
      </trkpt>
      <trkpt lat="46.0875" lon="6.24483">
        <ele>929</ele>
        <time>2018-05-11T07:45:12Z</time>
      </trkpt>
      <trkpt lat="46.08743" lon="6.24474">
        <ele>931</ele>
        <time>2018-05-11T07:45:15Z</time>
      </trkpt>
      <trkpt lat="46.08739" lon="6.2447">
        <ele>929</ele>
        <time>2018-05-11T07:45:16Z</time>
      </trkpt>
      <trkpt lat="46.08736" lon="6.24464">
        <ele>930</ele>
        <time>2018-05-11T07:45:17Z</time>
      </trkpt>
      <trkpt lat="46.08727" lon="6.24457">
        <ele>933</ele>
        <time>2018-05-11T07:45:19Z</time>
      </trkpt>
      <trkpt lat="46.08723" lon="6.24454">
        <ele>933</ele>
        <time>2018-05-11T07:45:20Z</time>
      </trkpt>
      <trkpt lat="46.08713" lon="6.24448">
        <ele>933</ele>
        <time>2018-05-11T07:45:22Z</time>
      </trkpt>
      <trkpt lat="46.08702" lon="6.24441">
        <ele>931</ele>
        <time>2018-05-11T07:45:24Z</time>
      </trkpt>
      <trkpt lat="46.08684" lon="6.24434">
        <ele>933</ele>
        <time>2018-05-11T07:45:27Z</time>
      </trkpt>
      <trkpt lat="46.08679" lon="6.24432">
        <ele>933</ele>
        <time>2018-05-11T07:45:28Z</time>
      </trkpt>
      <trkpt lat="46.08664" lon="6.24424">
        <ele>935</ele>
        <time>2018-05-11T07:45:31Z</time>
      </trkpt>
      <trkpt lat="46.08635" lon="6.24424">
        <ele>936</ele>
        <time>2018-05-11T07:45:37Z</time>
      </trkpt>
      <trkpt lat="46.08625" lon="6.24423">
        <ele>935</ele>
        <time>2018-05-11T07:45:39Z</time>
      </trkpt>
      <trkpt lat="46.08615" lon="6.2442">
        <ele>935</ele>
        <time>2018-05-11T07:45:41Z</time>
      </trkpt>
      <trkpt lat="46.08606" lon="6.24416">
        <ele>934</ele>
        <time>2018-05-11T07:45:43Z</time>
      </trkpt>
      <trkpt lat="46.08586" lon="6.2441">
        <ele>934</ele>
        <time>2018-05-11T07:45:47Z</time>
      </trkpt>
      <trkpt lat="46.08576" lon="6.24407">
        <ele>932</ele>
        <time>2018-05-11T07:45:49Z</time>
      </trkpt>
      <trkpt lat="46.08554" lon="6.24397">
        <ele>930</ele>
        <time>2018-05-11T07:45:53Z</time>
      </trkpt>
      <trkpt lat="46.0854" lon="6.24391">
        <ele>931</ele>
        <time>2018-05-11T07:45:56Z</time>
      </trkpt>
      <trkpt lat="46.08535" lon="6.2439">
        <ele>931</ele>
        <time>2018-05-11T07:45:57Z</time>
      </trkpt>
      <trkpt lat="46.08519" lon="6.24382">
        <ele>930</ele>
        <time>2018-05-11T07:46:00Z</time>
      </trkpt>
      <trkpt lat="46.08515" lon="6.2438">
        <ele>931</ele>
        <time>2018-05-11T07:46:01Z</time>
      </trkpt>
      <trkpt lat="46.08509" lon="6.24379">
        <ele>931</ele>
        <time>2018-05-11T07:46:02Z</time>
      </trkpt>
      <trkpt lat="46.085" lon="6.24374">
        <ele>932</ele>
        <time>2018-05-11T07:46:04Z</time>
      </trkpt>
      <trkpt lat="46.08485" lon="6.24366">
        <ele>931</ele>
        <time>2018-05-11T07:46:07Z</time>
      </trkpt>
      <trkpt lat="46.08479" lon="6.24362">
        <ele>931</ele>
        <time>2018-05-11T07:46:08Z</time>
      </trkpt>
      <trkpt lat="46.08474" lon="6.2436">
        <ele>932</ele>
        <time>2018-05-11T07:46:09Z</time>
      </trkpt>
      <trkpt lat="46.08462" lon="6.24352">
        <ele>932</ele>
        <time>2018-05-11T07:46:11Z</time>
      </trkpt>
      <trkpt lat="46.08456" lon="6.2435">
        <ele>932</ele>
        <time>2018-05-11T07:46:12Z</time>
      </trkpt>
      <trkpt lat="46.08452" lon="6.24347">
        <ele>933</ele>
        <time>2018-05-11T07:46:13Z</time>
      </trkpt>
      <trkpt lat="46.08447" lon="6.24345">
        <ele>933</ele>
        <time>2018-05-11T07:46:14Z</time>
      </trkpt>
      <trkpt lat="46.08438" lon="6.24344">
        <ele>933</ele>
        <time>2018-05-11T07:46:16Z</time>
      </trkpt>
      <trkpt lat="46.08433" lon="6.24342">
        <ele>934</ele>
        <time>2018-05-11T07:46:17Z</time>
      </trkpt>
      <trkpt lat="46.08405" lon="6.24342">
        <ele>934</ele>
        <time>2018-05-11T07:46:23Z</time>
      </trkpt>
      <trkpt lat="46.08383" lon="6.24342">
        <ele>934</ele>
        <time>2018-05-11T07:46:29Z</time>
      </trkpt>
      <trkpt lat="46.08381" lon="6.24343">
        <ele>935</ele>
        <time>2018-05-11T07:46:30Z</time>
      </trkpt>
      <trkpt lat="46.08368" lon="6.24342">
        <ele>935</ele>
        <time>2018-05-11T07:46:35Z</time>
      </trkpt>
      <trkpt lat="46.08361" lon="6.24342">
        <ele>936</ele>
        <time>2018-05-11T07:46:37Z</time>
      </trkpt>
      <trkpt lat="46.08345" lon="6.24339">
        <ele>937</ele>
        <time>2018-05-11T07:46:40Z</time>
      </trkpt>
      <trkpt lat="46.08327" lon="6.24339">
        <ele>939</ele>
        <time>2018-05-11T07:46:47Z</time>
      </trkpt>
      <trkpt lat="46.08311" lon="6.24339">
        <ele>942</ele>
        <time>2018-05-11T07:46:52Z</time>
      </trkpt>
      <trkpt lat="46.08286" lon="6.24339">
        <ele>939</ele>
        <time>2018-05-11T07:46:59Z</time>
      </trkpt>
      <trkpt lat="46.08272" lon="6.24337">
        <ele>937</ele>
        <time>2018-05-11T07:47:03Z</time>
      </trkpt>
      <trkpt lat="46.08258" lon="6.24335">
        <ele>941</ele>
        <time>2018-05-11T07:47:07Z</time>
      </trkpt>
      <trkpt lat="46.08247" lon="6.24334">
        <ele>942</ele>
        <time>2018-05-11T07:47:11Z</time>
      </trkpt>
      <trkpt lat="46.08233" lon="6.24333">
        <ele>941</ele>
        <time>2018-05-11T07:47:12Z</time>
      </trkpt>
      <trkpt lat="46.0822" lon="6.24328">
        <ele>940</ele>
        <time>2018-05-11T07:47:16Z</time>
      </trkpt>
      <trkpt lat="46.08217" lon="6.24326">
        <ele>940</ele>
        <time>2018-05-11T07:47:17Z</time>
      </trkpt>
      <trkpt lat="46.08202" lon="6.24321">
        <ele>940</ele>
        <time>2018-05-11T07:47:21Z</time>
      </trkpt>
      <trkpt lat="46.08182" lon="6.24317">
        <ele>937</ele>
        <time>2018-05-11T07:47:26Z</time>
      </trkpt>
      <trkpt lat="46.08173" lon="6.24314">
        <ele>939</ele>
        <time>2018-05-11T07:47:28Z</time>
      </trkpt>
      <trkpt lat="46.08165" lon="6.24309">
        <ele>941</ele>
        <time>2018-05-11T07:47:30Z</time>
      </trkpt>
      <trkpt lat="46.08154" lon="6.24306">
        <ele>941</ele>
        <time>2018-05-11T07:47:32Z</time>
      </trkpt>
      <trkpt lat="46.08138" lon="6.24305">
        <ele>941</ele>
        <time>2018-05-11T07:47:36Z</time>
      </trkpt>
      <trkpt lat="46.08127" lon="6.24301">
        <ele>941</ele>
        <time>2018-05-11T07:47:38Z</time>
      </trkpt>
      <trkpt lat="46.08123" lon="6.24298">
        <ele>942</ele>
        <time>2018-05-11T07:47:39Z</time>
      </trkpt>
      <trkpt lat="46.0811" lon="6.24297">
        <ele>944</ele>
        <time>2018-05-11T07:47:42Z</time>
      </trkpt>
      <trkpt lat="46.08093" lon="6.24294">
        <ele>945</ele>
        <time>2018-05-11T07:47:46Z</time>
      </trkpt>
      <trkpt lat="46.0807" lon="6.24295">
        <ele>947</ele>
        <time>2018-05-11T07:47:51Z</time>
      </trkpt>
      <trkpt lat="46.08055" lon="6.24297">
        <ele>947</ele>
        <time>2018-05-11T07:47:55Z</time>
      </trkpt>
      <trkpt lat="46.08051" lon="6.24298">
        <ele>947</ele>
        <time>2018-05-11T07:47:56Z</time>
      </trkpt>
      <trkpt lat="46.08029" lon="6.24304">
        <ele>949</ele>
        <time>2018-05-11T07:48:01Z</time>
      </trkpt>
      <trkpt lat="46.08021" lon="6.24306">
        <ele>949</ele>
        <time>2018-05-11T07:48:03Z</time>
      </trkpt>
      <trkpt lat="46.08005" lon="6.24311">
        <ele>951</ele>
        <time>2018-05-11T07:48:07Z</time>
      </trkpt>
      <trkpt lat="46.08002" lon="6.24311">
        <ele>953</ele>
        <time>2018-05-11T07:48:09Z</time>
      </trkpt>
      <trkpt lat="46.08" lon="6.24313">
        <ele>955</ele>
        <time>2018-05-11T07:48:10Z</time>
      </trkpt>
      <trkpt lat="46.07998" lon="6.24313">
        <ele>955</ele>
        <time>2018-05-11T07:48:11Z</time>
      </trkpt>
      <trkpt lat="46.07982" lon="6.24313">
        <ele>956</ele>
        <time>2018-05-11T07:48:17Z</time>
      </trkpt>
      <trkpt lat="46.0798" lon="6.24315">
        <ele>957</ele>
        <time>2018-05-11T07:48:18Z</time>
      </trkpt>
      <trkpt lat="46.07968" lon="6.24317">
        <ele>955</ele>
        <time>2018-05-11T07:48:23Z</time>
      </trkpt>
      <trkpt lat="46.0796" lon="6.24318">
        <ele>956</ele>
        <time>2018-05-11T07:48:26Z</time>
      </trkpt>
      <trkpt lat="46.07945" lon="6.24321">
        <ele>957</ele>
        <time>2018-05-11T07:48:31Z</time>
      </trkpt>
      <trkpt lat="46.07927" lon="6.24322">
        <ele>957</ele>
        <time>2018-05-11T07:48:34Z</time>
      </trkpt>
      <trkpt lat="46.07926" lon="6.24323">
        <ele>957</ele>
        <time>2018-05-11T07:48:35Z</time>
      </trkpt>
      <trkpt lat="46.07924" lon="6.24325">
        <ele>956</ele>
        <time>2018-05-11T07:48:36Z</time>
      </trkpt>
      <trkpt lat="46.07919" lon="6.24327">
        <ele>956</ele>
        <time>2018-05-11T07:48:38Z</time>
      </trkpt>
      <trkpt lat="46.07914" lon="6.24328">
        <ele>956</ele>
        <time>2018-05-11T07:48:40Z</time>
      </trkpt>
      <trkpt lat="46.07895" lon="6.24329">
        <ele>957</ele>
        <time>2018-05-11T07:48:43Z</time>
      </trkpt>
      <trkpt lat="46.07888" lon="6.2433">
        <ele>957</ele>
        <time>2018-05-11T07:48:45Z</time>
      </trkpt>
      <trkpt lat="46.07884" lon="6.24331">
        <ele>957</ele>
        <time>2018-05-11T07:48:46Z</time>
      </trkpt>
      <trkpt lat="46.0787" lon="6.24332">
        <ele>958</ele>
        <time>2018-05-11T07:48:49Z</time>
      </trkpt>
      <trkpt lat="46.07853" lon="6.24332">
        <ele>961</ele>
        <time>2018-05-11T07:48:53Z</time>
      </trkpt>
      <trkpt lat="46.0784" lon="6.24335">
        <ele>962</ele>
        <time>2018-05-11T07:48:56Z</time>
      </trkpt>
      <trkpt lat="46.07837" lon="6.24336">
        <ele>961</ele>
        <time>2018-05-11T07:48:57Z</time>
      </trkpt>
      <trkpt lat="46.07819" lon="6.24342">
        <ele>960</ele>
        <time>2018-05-11T07:49:02Z</time>
      </trkpt>
      <trkpt lat="46.07812" lon="6.24346">
        <ele>959</ele>
        <time>2018-05-11T07:49:04Z</time>
      </trkpt>
      <trkpt lat="46.0781" lon="6.24348">
        <ele>959</ele>
        <time>2018-05-11T07:49:05Z</time>
      </trkpt>
      <trkpt lat="46.07802" lon="6.24352">
        <ele>960</ele>
        <time>2018-05-11T07:49:07Z</time>
      </trkpt>
      <trkpt lat="46.07782" lon="6.2435">
        <ele>960</ele>
        <time>2018-05-11T07:49:10Z</time>
      </trkpt>
      <trkpt lat="46.07763" lon="6.24347">
        <ele>956</ele>
        <time>2018-05-11T07:49:12Z</time>
      </trkpt>
      <trkpt lat="46.07746" lon="6.24343">
        <ele>957</ele>
        <time>2018-05-11T07:49:14Z</time>
      </trkpt>
      <trkpt lat="46.0773" lon="6.24339">
        <ele>955</ele>
        <time>2018-05-11T07:49:16Z</time>
      </trkpt>
      <trkpt lat="46.07717" lon="6.24335">
        <ele>953</ele>
        <time>2018-05-11T07:49:18Z</time>
      </trkpt>
      <trkpt lat="46.07703" lon="6.2433">
        <ele>954</ele>
        <time>2018-05-11T07:49:20Z</time>
      </trkpt>
      <trkpt lat="46.07696" lon="6.24329">
        <ele>953</ele>
        <time>2018-05-11T07:49:21Z</time>
      </trkpt>
      <trkpt lat="46.07692" lon="6.24324">
        <ele>954</ele>
        <time>2018-05-11T07:49:22Z</time>
      </trkpt>
      <trkpt lat="46.07681" lon="6.24317">
        <ele>954</ele>
        <time>2018-05-11T07:49:24Z</time>
      </trkpt>
      <trkpt lat="46.07676" lon="6.24313">
        <ele>953</ele>
        <time>2018-05-11T07:49:25Z</time>
      </trkpt>
      <trkpt lat="46.07674" lon="6.24305">
        <ele>954</ele>
        <time>2018-05-11T07:49:26Z</time>
      </trkpt>
      <trkpt lat="46.0767" lon="6.24293">
        <ele>953</ele>
        <time>2018-05-11T07:49:28Z</time>
      </trkpt>
      <trkpt lat="46.07668" lon="6.24287">
        <ele>952</ele>
        <time>2018-05-11T07:49:29Z</time>
      </trkpt>
      <trkpt lat="46.0767" lon="6.24279">
        <ele>953</ele>
        <time>2018-05-11T07:49:30Z</time>
      </trkpt>
      <trkpt lat="46.0767" lon="6.24272">
        <ele>953</ele>
        <time>2018-05-11T07:49:31Z</time>
      </trkpt>
      <trkpt lat="46.07671" lon="6.24263">
        <ele>953</ele>
        <time>2018-05-11T07:49:32Z</time>
      </trkpt>
      <trkpt lat="46.0767" lon="6.24251">
        <ele>953</ele>
        <time>2018-05-11T07:49:34Z</time>
      </trkpt>
      <trkpt lat="46.07669" lon="6.2424">
        <ele>955</ele>
        <time>2018-05-11T07:49:37Z</time>
      </trkpt>
      <trkpt lat="46.0767" lon="6.24236">
        <ele>955</ele>
        <time>2018-05-11T07:49:38Z</time>
      </trkpt>
      <trkpt lat="46.0767" lon="6.24232">
        <ele>954</ele>
        <time>2018-05-11T07:49:39Z</time>
      </trkpt>
      <trkpt lat="46.07668" lon="6.24218">
        <ele>953</ele>
        <time>2018-05-11T07:49:40Z</time>
      </trkpt>
      <trkpt lat="46.07666" lon="6.24212">
        <ele>953</ele>
        <time>2018-05-11T07:49:41Z</time>
      </trkpt>
      <trkpt lat="46.07667" lon="6.24205">
        <ele>953</ele>
        <time>2018-05-11T07:49:43Z</time>
      </trkpt>
      <trkpt lat="46.07667" lon="6.24202">
        <ele>952</ele>
        <time>2018-05-11T07:49:44Z</time>
      </trkpt>
      <trkpt lat="46.07667" lon="6.24188">
        <ele>953</ele>
        <time>2018-05-11T07:49:48Z</time>
      </trkpt>
      <trkpt lat="46.07665" lon="6.24173">
        <ele>952</ele>
        <time>2018-05-11T07:49:52Z</time>
      </trkpt>
      <trkpt lat="46.07665" lon="6.2415">
        <ele>953</ele>
        <time>2018-05-11T07:49:54Z</time>
      </trkpt>
      <trkpt lat="46.07666" lon="6.24136">
        <ele>956</ele>
        <time>2018-05-11T07:49:58Z</time>
      </trkpt>
      <trkpt lat="46.07665" lon="6.24127">
        <ele>959</ele>
        <time>2018-05-11T07:50:02Z</time>
      </trkpt>
      <trkpt lat="46.07664" lon="6.24103">
        <ele>957</ele>
        <time>2018-05-11T07:50:07Z</time>
      </trkpt>
      <trkpt lat="46.07663" lon="6.24094">
        <ele>956</ele>
        <time>2018-05-11T07:50:09Z</time>
      </trkpt>
      <trkpt lat="46.07662" lon="6.2409">
        <ele>957</ele>
        <time>2018-05-11T07:50:10Z</time>
      </trkpt>
      <trkpt lat="46.07661" lon="6.24086">
        <ele>958</ele>
        <time>2018-05-11T07:50:11Z</time>
      </trkpt>
      <trkpt lat="46.0766" lon="6.24079">
        <ele>957</ele>
        <time>2018-05-11T07:50:13Z</time>
      </trkpt>
      <trkpt lat="46.0766" lon="6.24075">
        <ele>958</ele>
        <time>2018-05-11T07:50:14Z</time>
      </trkpt>
      <trkpt lat="46.0766" lon="6.24067">
        <ele>959</ele>
        <time>2018-05-11T07:50:16Z</time>
      </trkpt>
      <trkpt lat="46.07659" lon="6.24064">
        <ele>960</ele>
        <time>2018-05-11T07:50:17Z</time>
      </trkpt>
      <trkpt lat="46.07659" lon="6.2406">
        <ele>959</ele>
        <time>2018-05-11T07:50:18Z</time>
      </trkpt>
      <trkpt lat="46.07659" lon="6.24055">
        <ele>959</ele>
        <time>2018-05-11T07:50:19Z</time>
      </trkpt>
      <trkpt lat="46.07656" lon="6.24047">
        <ele>960</ele>
        <time>2018-05-11T07:50:21Z</time>
      </trkpt>
      <trkpt lat="46.07654" lon="6.24043">
        <ele>959</ele>
        <time>2018-05-11T07:50:22Z</time>
      </trkpt>
      <trkpt lat="46.07651" lon="6.24037">
        <ele>960</ele>
        <time>2018-05-11T07:50:24Z</time>
      </trkpt>
      <trkpt lat="46.07644" lon="6.24027">
        <ele>963</ele>
        <time>2018-05-11T07:50:28Z</time>
      </trkpt>
      <trkpt lat="46.07642" lon="6.24024">
        <ele>964</ele>
        <time>2018-05-11T07:50:29Z</time>
      </trkpt>
      <trkpt lat="46.07641" lon="6.2402">
        <ele>965</ele>
        <time>2018-05-11T07:50:30Z</time>
      </trkpt>
      <trkpt lat="46.07637" lon="6.24016">
        <ele>966</ele>
        <time>2018-05-11T07:50:32Z</time>
      </trkpt>
      <trkpt lat="46.07635" lon="6.24015">
        <ele>967</ele>
        <time>2018-05-11T07:50:33Z</time>
      </trkpt>
      <trkpt lat="46.07632" lon="6.24012">
        <ele>969</ele>
        <time>2018-05-11T07:50:35Z</time>
      </trkpt>
      <trkpt lat="46.07627" lon="6.24009">
        <ele>969</ele>
        <time>2018-05-11T07:50:37Z</time>
      </trkpt>
      <trkpt lat="46.07624" lon="6.24009">
        <ele>970</ele>
        <time>2018-05-11T07:50:39Z</time>
      </trkpt>
      <trkpt lat="46.07621" lon="6.24007">
        <ele>969</ele>
        <time>2018-05-11T07:50:40Z</time>
      </trkpt>
      <trkpt lat="46.07616" lon="6.24004">
        <ele>969</ele>
        <time>2018-05-11T07:50:42Z</time>
      </trkpt>
      <trkpt lat="46.07598" lon="6.24003">
        <ele>968</ele>
        <time>2018-05-11T07:50:46Z</time>
      </trkpt>
      <trkpt lat="46.07583" lon="6.23999">
        <ele>970</ele>
        <time>2018-05-11T07:50:51Z</time>
      </trkpt>
      <trkpt lat="46.07577" lon="6.23998">
        <ele>972</ele>
        <time>2018-05-11T07:50:53Z</time>
      </trkpt>
      <trkpt lat="46.07574" lon="6.23997">
        <ele>972</ele>
        <time>2018-05-11T07:50:54Z</time>
      </trkpt>
      <trkpt lat="46.07563" lon="6.23996">
        <ele>967</ele>
        <time>2018-05-11T07:50:58Z</time>
      </trkpt>
      <trkpt lat="46.07553" lon="6.23991">
        <ele>969</ele>
        <time>2018-05-11T07:51:02Z</time>
      </trkpt>
      <trkpt lat="46.07542" lon="6.23991">
        <ele>966</ele>
        <time>2018-05-11T07:51:08Z</time>
      </trkpt>
      <trkpt lat="46.0754" lon="6.23991">
        <ele>967</ele>
        <time>2018-05-11T07:51:09Z</time>
      </trkpt>
      <trkpt lat="46.07537" lon="6.23989">
        <ele>968</ele>
        <time>2018-05-11T07:51:10Z</time>
      </trkpt>
      <trkpt lat="46.07529" lon="6.23989">
        <ele>967</ele>
        <time>2018-05-11T07:51:13Z</time>
      </trkpt>
      <trkpt lat="46.07525" lon="6.23991">
        <ele>966</ele>
        <time>2018-05-11T07:51:15Z</time>
      </trkpt>
      <trkpt lat="46.0752" lon="6.23991">
        <ele>966</ele>
        <time>2018-05-11T07:51:17Z</time>
      </trkpt>
      <trkpt lat="46.07507" lon="6.23987">
        <ele>969</ele>
        <time>2018-05-11T07:51:20Z</time>
      </trkpt>
      <trkpt lat="46.07505" lon="6.23987">
        <ele>968</ele>
        <time>2018-05-11T07:51:22Z</time>
      </trkpt>
      <trkpt lat="46.07494" lon="6.23986">
        <ele>969</ele>
        <time>2018-05-11T07:51:27Z</time>
      </trkpt>
      <trkpt lat="46.07489" lon="6.23987">
        <ele>968</ele>
        <time>2018-05-11T07:51:30Z</time>
      </trkpt>
      <trkpt lat="46.07483" lon="6.23991">
        <ele>967</ele>
        <time>2018-05-11T07:51:34Z</time>
      </trkpt>
      <trkpt lat="46.0744" lon="6.23991">
        <ele>974</ele>
        <time>2018-05-11T07:51:46Z</time>
      </trkpt>
      <trkpt lat="46.07432" lon="6.23994">
        <ele>979</ele>
        <time>2018-05-11T07:51:53Z</time>
      </trkpt>
      <trkpt lat="46.0742" lon="6.23994">
        <ele>981</ele>
        <time>2018-05-11T07:51:59Z</time>
      </trkpt>
      <trkpt lat="46.07409" lon="6.23993">
        <ele>984</ele>
        <time>2018-05-11T07:52:04Z</time>
      </trkpt>
      <trkpt lat="46.07406" lon="6.23992">
        <ele>984</ele>
        <time>2018-05-11T07:52:05Z</time>
      </trkpt>
      <trkpt lat="46.07401" lon="6.23991">
        <ele>986</ele>
        <time>2018-05-11T07:52:07Z</time>
      </trkpt>
      <trkpt lat="46.07396" lon="6.2399">
        <ele>986</ele>
        <time>2018-05-11T07:52:09Z</time>
      </trkpt>
      <trkpt lat="46.07384" lon="6.23988">
        <ele>986</ele>
        <time>2018-05-11T07:52:14Z</time>
      </trkpt>
      <trkpt lat="46.07367" lon="6.23989">
        <ele>933</ele>
        <time>2018-05-11T07:52:21Z</time>
      </trkpt>
      <trkpt lat="46.07359" lon="6.2399">
        <ele>951</ele>
        <time>2018-05-11T07:52:24Z</time>
      </trkpt>
      <trkpt lat="46.07356" lon="6.23992">
        <ele>954</ele>
        <time>2018-05-11T07:52:25Z</time>
      </trkpt>
      <trkpt lat="46.07351" lon="6.23996">
        <ele>962</ele>
        <time>2018-05-11T07:52:27Z</time>
      </trkpt>
      <trkpt lat="46.07348" lon="6.23998">
        <ele>966</ele>
        <time>2018-05-11T07:52:28Z</time>
      </trkpt>
      <trkpt lat="46.07345" lon="6.24">
        <ele>970</ele>
        <time>2018-05-11T07:52:29Z</time>
      </trkpt>
      <trkpt lat="46.07337" lon="6.24005">
        <ele>980</ele>
        <time>2018-05-11T07:52:32Z</time>
      </trkpt>
      <trkpt lat="46.07331" lon="6.24012">
        <ele>987</ele>
        <time>2018-05-11T07:52:35Z</time>
      </trkpt>
      <trkpt lat="46.07328" lon="6.24014">
        <ele>988</ele>
        <time>2018-05-11T07:52:36Z</time>
      </trkpt>
      <trkpt lat="46.07326" lon="6.24016">
        <ele>989</ele>
        <time>2018-05-11T07:52:37Z</time>
      </trkpt>
      <trkpt lat="46.07322" lon="6.24018">
        <ele>990</ele>
        <time>2018-05-11T07:52:39Z</time>
      </trkpt>
      <trkpt lat="46.07319" lon="6.2402">
        <ele>990</ele>
        <time>2018-05-11T07:52:40Z</time>
      </trkpt>
      <trkpt lat="46.07316" lon="6.24022">
        <ele>990</ele>
        <time>2018-05-11T07:52:42Z</time>
      </trkpt>
      <trkpt lat="46.07315" lon="6.24024">
        <ele>989</ele>
        <time>2018-05-11T07:52:43Z</time>
      </trkpt>
      <trkpt lat="46.07314" lon="6.24027">
        <ele>990</ele>
        <time>2018-05-11T07:52:44Z</time>
      </trkpt>
      <trkpt lat="46.07313" lon="6.24026">
        <ele>993</ele>
        <time>2018-05-11T07:55:11Z</time>
      </trkpt>
      <trkpt lat="46.07309" lon="6.24019">
        <ele>993</ele>
        <time>2018-05-11T07:55:21Z</time>
      </trkpt>
      <trkpt lat="46.07308" lon="6.24018">
        <ele>994</ele>
        <time>2018-05-11T07:55:22Z</time>
      </trkpt>
      <trkpt lat="46.07297" lon="6.24018">
        <ele>993</ele>
        <time>2018-05-11T07:55:27Z</time>
      </trkpt>
      <trkpt lat="46.07288" lon="6.24016">
        <ele>993</ele>
        <time>2018-05-11T07:55:30Z</time>
      </trkpt>
      <trkpt lat="46.07281" lon="6.24013">
        <ele>994</ele>
        <time>2018-05-11T07:55:31Z</time>
      </trkpt>
      <trkpt lat="46.07272" lon="6.24012">
        <ele>995</ele>
        <time>2018-05-11T07:55:33Z</time>
      </trkpt>
      <trkpt lat="46.07269" lon="6.2401">
        <ele>995</ele>
        <time>2018-05-11T07:55:34Z</time>
      </trkpt>
      <trkpt lat="46.07256" lon="6.24007">
        <ele>997</ele>
        <time>2018-05-11T07:55:37Z</time>
      </trkpt>
      <trkpt lat="46.07244" lon="6.24007">
        <ele>997</ele>
        <time>2018-05-11T07:55:39Z</time>
      </trkpt>
      <trkpt lat="46.07229" lon="6.24004">
        <ele>997</ele>
        <time>2018-05-11T07:55:42Z</time>
      </trkpt>
      <trkpt lat="46.07226" lon="6.24001">
        <ele>997</ele>
        <time>2018-05-11T07:55:43Z</time>
      </trkpt>
      <trkpt lat="46.07221" lon="6.24">
        <ele>997</ele>
        <time>2018-05-11T07:55:44Z</time>
      </trkpt>
      <trkpt lat="46.07217" lon="6.23998">
        <ele>997</ele>
        <time>2018-05-11T07:55:45Z</time>
      </trkpt>
      <trkpt lat="46.07211" lon="6.23997">
        <ele>998</ele>
        <time>2018-05-11T07:55:46Z</time>
      </trkpt>
      <trkpt lat="46.07203" lon="6.23995">
        <ele>997</ele>
        <time>2018-05-11T07:55:48Z</time>
      </trkpt>
      <trkpt lat="46.07187" lon="6.23988">
        <ele>997</ele>
        <time>2018-05-11T07:55:52Z</time>
      </trkpt>
      <trkpt lat="46.07177" lon="6.23985">
        <ele>998</ele>
        <time>2018-05-11T07:55:54Z</time>
      </trkpt>
      <trkpt lat="46.07175" lon="6.23982">
        <ele>997</ele>
        <time>2018-05-11T07:55:55Z</time>
      </trkpt>
      <trkpt lat="46.07165" lon="6.23973">
        <ele>997</ele>
        <time>2018-05-11T07:56:00Z</time>
      </trkpt>
      <trkpt lat="46.07156" lon="6.23968">
        <ele>998</ele>
        <time>2018-05-11T07:56:03Z</time>
      </trkpt>
      <trkpt lat="46.07153" lon="6.23963">
        <ele>998</ele>
        <time>2018-05-11T07:56:05Z</time>
      </trkpt>
      <trkpt lat="46.0715" lon="6.2396">
        <ele>997</ele>
        <time>2018-05-11T07:56:07Z</time>
      </trkpt>
      <trkpt lat="46.07149" lon="6.23956">
        <ele>997</ele>
        <time>2018-05-11T07:57:25Z</time>
      </trkpt>
      <trkpt lat="46.07148" lon="6.23955">
        <ele>998</ele>
        <time>2018-05-11T07:57:27Z</time>
      </trkpt>
      <trkpt lat="46.07148" lon="6.23952">
        <ele>997</ele>
        <time>2018-05-11T07:57:28Z</time>
      </trkpt>
      <trkpt lat="46.07147" lon="6.23951">
        <ele>998</ele>
        <time>2018-05-11T07:57:29Z</time>
      </trkpt>
      <trkpt lat="46.07146" lon="6.23947">
        <ele>997</ele>
        <time>2018-05-11T07:57:31Z</time>
      </trkpt>
      <trkpt lat="46.07148" lon="6.23934">
        <ele>993</ele>
        <time>2018-05-11T07:57:36Z</time>
      </trkpt>
      <trkpt lat="46.07148" lon="6.23923">
        <ele>992</ele>
        <time>2018-05-11T07:57:39Z</time>
      </trkpt>
      <trkpt lat="46.07147" lon="6.23907">
        <ele>993</ele>
        <time>2018-05-11T07:57:44Z</time>
      </trkpt>
      <trkpt lat="46.07147" lon="6.23895">
        <ele>994</ele>
        <time>2018-05-11T07:57:45Z</time>
      </trkpt>
      <trkpt lat="46.07148" lon="6.23871">
        <ele>995</ele>
        <time>2018-05-11T07:57:49Z</time>
      </trkpt>
      <trkpt lat="46.07149" lon="6.23858">
        <ele>995</ele>
        <time>2018-05-11T07:57:51Z</time>
      </trkpt>
      <trkpt lat="46.0715" lon="6.23837">
        <ele>994</ele>
        <time>2018-05-11T07:57:54Z</time>
      </trkpt>
      <trkpt lat="46.07149" lon="6.2383">
        <ele>994</ele>
        <time>2018-05-11T07:57:55Z</time>
      </trkpt>
      <trkpt lat="46.07147" lon="6.23821">
        <ele>995</ele>
        <time>2018-05-11T07:57:56Z</time>
      </trkpt>
      <trkpt lat="46.07145" lon="6.23814">
        <ele>995</ele>
        <time>2018-05-11T07:57:57Z</time>
      </trkpt>
      <trkpt lat="46.07144" lon="6.23809">
        <ele>993</ele>
        <time>2018-05-11T07:57:58Z</time>
      </trkpt>
      <trkpt lat="46.07135" lon="6.23786">
        <ele>993</ele>
        <time>2018-05-11T07:58:01Z</time>
      </trkpt>
      <trkpt lat="46.07122" lon="6.23771">
        <ele>991</ele>
        <time>2018-05-11T07:58:04Z</time>
      </trkpt>
      <trkpt lat="46.07112" lon="6.2376">
        <ele>991</ele>
        <time>2018-05-11T07:58:06Z</time>
      </trkpt>
      <trkpt lat="46.071" lon="6.23751">
        <ele>992</ele>
        <time>2018-05-11T07:58:08Z</time>
      </trkpt>
      <trkpt lat="46.07088" lon="6.23742">
        <ele>991</ele>
        <time>2018-05-11T07:58:10Z</time>
      </trkpt>
      <trkpt lat="46.07077" lon="6.23731">
        <ele>990</ele>
        <time>2018-05-11T07:58:12Z</time>
      </trkpt>
      <trkpt lat="46.07069" lon="6.23715">
        <ele>990</ele>
        <time>2018-05-11T07:58:14Z</time>
      </trkpt>
      <trkpt lat="46.07063" lon="6.23695">
        <ele>990</ele>
        <time>2018-05-11T07:58:16Z</time>
      </trkpt>
      <trkpt lat="46.07061" lon="6.23678">
        <ele>990</ele>
        <time>2018-05-11T07:58:18Z</time>
      </trkpt>
      <trkpt lat="46.07061" lon="6.23668">
        <ele>988</ele>
        <time>2018-05-11T07:58:19Z</time>
      </trkpt>
      <trkpt lat="46.07059" lon="6.23658">
        <ele>987</ele>
        <time>2018-05-11T07:58:20Z</time>
      </trkpt>
      <trkpt lat="46.07059" lon="6.23651">
        <ele>987</ele>
        <time>2018-05-11T07:58:21Z</time>
      </trkpt>
      <trkpt lat="46.07055" lon="6.23631">
        <ele>986</ele>
        <time>2018-05-11T07:58:24Z</time>
      </trkpt>
      <trkpt lat="46.07054" lon="6.23625">
        <ele>986</ele>
        <time>2018-05-11T07:58:25Z</time>
      </trkpt>
      <trkpt lat="46.07055" lon="6.23619">
        <ele>986</ele>
        <time>2018-05-11T07:58:26Z</time>
      </trkpt>
      <trkpt lat="46.07053" lon="6.23609">
        <ele>988</ele>
        <time>2018-05-11T07:58:29Z</time>
      </trkpt>
      <trkpt lat="46.07053" lon="6.23605">
        <ele>987</ele>
        <time>2018-05-11T07:58:30Z</time>
      </trkpt>
      <trkpt lat="46.07053" lon="6.23602">
        <ele>986</ele>
        <time>2018-05-11T07:58:31Z</time>
      </trkpt>
      <trkpt lat="46.07054" lon="6.23595">
        <ele>984</ele>
        <time>2018-05-11T07:58:36Z</time>
      </trkpt>
      <trkpt lat="46.07051" lon="6.23592">
        <ele>985</ele>
        <time>2018-05-11T08:01:15Z</time>
      </trkpt>
      <trkpt lat="46.07054" lon="6.23582">
        <ele>987</ele>
        <time>2018-05-11T08:01:18Z</time>
      </trkpt>
      <trkpt lat="46.07057" lon="6.23565">
        <ele>986</ele>
        <time>2018-05-11T08:01:20Z</time>
      </trkpt>
      <trkpt lat="46.07062" lon="6.23556">
        <ele>985</ele>
        <time>2018-05-11T08:01:22Z</time>
      </trkpt>
      <trkpt lat="46.07062" lon="6.23549">
        <ele>986</ele>
        <time>2018-05-11T08:01:23Z</time>
      </trkpt>
      <trkpt lat="46.07063" lon="6.23542">
        <ele>986</ele>
        <time>2018-05-11T08:01:24Z</time>
      </trkpt>
      <trkpt lat="46.07064" lon="6.2352">
        <ele>986</ele>
        <time>2018-05-11T08:01:27Z</time>
      </trkpt>
      <trkpt lat="46.07066" lon="6.23497">
        <ele>985</ele>
        <time>2018-05-11T08:01:30Z</time>
      </trkpt>
      <trkpt lat="46.07069" lon="6.2348">
        <ele>986</ele>
        <time>2018-05-11T08:01:32Z</time>
      </trkpt>
      <trkpt lat="46.07069" lon="6.23452">
        <ele>983</ele>
        <time>2018-05-11T08:01:35Z</time>
      </trkpt>
      <trkpt lat="46.07069" lon="6.23443">
        <ele>983</ele>
        <time>2018-05-11T08:01:36Z</time>
      </trkpt>
      <trkpt lat="46.0707" lon="6.23437">
        <ele>984</ele>
        <time>2018-05-11T08:01:37Z</time>
      </trkpt>
      <trkpt lat="46.07068" lon="6.23427">
        <ele>983</ele>
        <time>2018-05-11T08:01:38Z</time>
      </trkpt>
      <trkpt lat="46.07068" lon="6.23409">
        <ele>983</ele>
        <time>2018-05-11T08:01:40Z</time>
      </trkpt>
      <trkpt lat="46.07073" lon="6.23383">
        <ele>985</ele>
        <time>2018-05-11T08:01:43Z</time>
      </trkpt>
      <trkpt lat="46.07074" lon="6.23364">
        <ele>986</ele>
        <time>2018-05-11T08:01:45Z</time>
      </trkpt>
      <trkpt lat="46.07074" lon="6.23355">
        <ele>985</ele>
        <time>2018-05-11T08:01:46Z</time>
      </trkpt>
      <trkpt lat="46.07074" lon="6.23345">
        <ele>986</ele>
        <time>2018-05-11T08:01:47Z</time>
      </trkpt>
      <trkpt lat="46.07076" lon="6.23341">
        <ele>984</ele>
        <time>2018-05-11T08:01:48Z</time>
      </trkpt>
      <trkpt lat="46.07079" lon="6.23334">
        <ele>982</ele>
        <time>2018-05-11T08:01:49Z</time>
      </trkpt>
      <trkpt lat="46.0708" lon="6.23328">
        <ele>983</ele>
        <time>2018-05-11T08:01:50Z</time>
      </trkpt>
      <trkpt lat="46.0708" lon="6.23322">
        <ele>984</ele>
        <time>2018-05-11T08:01:51Z</time>
      </trkpt>
      <trkpt lat="46.07083" lon="6.23315">
        <ele>985</ele>
        <time>2018-05-11T08:01:52Z</time>
      </trkpt>
      <trkpt lat="46.07084" lon="6.23293">
        <ele>985</ele>
        <time>2018-05-11T08:01:55Z</time>
      </trkpt>
      <trkpt lat="46.07087" lon="6.23272">
        <ele>986</ele>
        <time>2018-05-11T08:01:58Z</time>
      </trkpt>
      <trkpt lat="46.07089" lon="6.23257">
        <ele>987</ele>
        <time>2018-05-11T08:02:00Z</time>
      </trkpt>
      <trkpt lat="46.07086" lon="6.23247">
        <ele>986</ele>
        <time>2018-05-11T08:02:01Z</time>
      </trkpt>
      <trkpt lat="46.07088" lon="6.23232">
        <ele>986</ele>
        <time>2018-05-11T08:02:03Z</time>
      </trkpt>
      <trkpt lat="46.07091" lon="6.2321">
        <ele>987</ele>
        <time>2018-05-11T08:02:06Z</time>
      </trkpt>
      <trkpt lat="46.07092" lon="6.23204">
        <ele>987</ele>
        <time>2018-05-11T08:02:07Z</time>
      </trkpt>
      <trkpt lat="46.07093" lon="6.23179">
        <ele>987</ele>
        <time>2018-05-11T08:02:10Z</time>
      </trkpt>
      <trkpt lat="46.07094" lon="6.2316">
        <ele>984</ele>
        <time>2018-05-11T08:02:12Z</time>
      </trkpt>
      <trkpt lat="46.07098" lon="6.23136">
        <ele>983</ele>
        <time>2018-05-11T08:02:14Z</time>
      </trkpt>
      <trkpt lat="46.07098" lon="6.23108">
        <ele>983</ele>
        <time>2018-05-11T08:02:16Z</time>
      </trkpt>
      <trkpt lat="46.07099" lon="6.23078">
        <ele>981</ele>
        <time>2018-05-11T08:02:18Z</time>
      </trkpt>
      <trkpt lat="46.07099" lon="6.23048">
        <ele>981</ele>
        <time>2018-05-11T08:02:20Z</time>
      </trkpt>
      <trkpt lat="46.07098" lon="6.23031">
        <ele>981</ele>
        <time>2018-05-11T08:02:21Z</time>
      </trkpt>
      <trkpt lat="46.07093" lon="6.23002">
        <ele>979</ele>
        <time>2018-05-11T08:02:23Z</time>
      </trkpt>
      <trkpt lat="46.07079" lon="6.22957">
        <ele>976</ele>
        <time>2018-05-11T08:02:26Z</time>
      </trkpt>
      <trkpt lat="46.07072" lon="6.22924">
        <ele>975</ele>
        <time>2018-05-11T08:02:28Z</time>
      </trkpt>
      <trkpt lat="46.07063" lon="6.2289">
        <ele>973</ele>
        <time>2018-05-11T08:02:30Z</time>
      </trkpt>
      <trkpt lat="46.07056" lon="6.22864">
        <ele>972</ele>
        <time>2018-05-11T08:02:32Z</time>
      </trkpt>
      <trkpt lat="46.07047" lon="6.22842">
        <ele>970</ele>
        <time>2018-05-11T08:02:34Z</time>
      </trkpt>
      <trkpt lat="46.07044" lon="6.22835">
        <ele>970</ele>
        <time>2018-05-11T08:02:35Z</time>
      </trkpt>
      <trkpt lat="46.07042" lon="6.22829">
        <ele>968</ele>
        <time>2018-05-11T08:02:36Z</time>
      </trkpt>
      <trkpt lat="46.07041" lon="6.22818">
        <ele>968</ele>
        <time>2018-05-11T08:02:38Z</time>
      </trkpt>
      <trkpt lat="46.0705" lon="6.22805">
        <ele>966</ele>
        <time>2018-05-11T08:02:41Z</time>
      </trkpt>
      <trkpt lat="46.07062" lon="6.22791">
        <ele>965</ele>
        <time>2018-05-11T08:02:44Z</time>
      </trkpt>
      <trkpt lat="46.07073" lon="6.22779">
        <ele>866</ele>
        <time>2018-05-11T08:02:46Z</time>
      </trkpt>
      <trkpt lat="46.07079" lon="6.22775">
        <ele>902</ele>
        <time>2018-05-11T08:02:47Z</time>
      </trkpt>
      <trkpt lat="46.07092" lon="6.22762">
        <ele>929</ele>
        <time>2018-05-11T08:02:49Z</time>
      </trkpt>
      <trkpt lat="46.07116" lon="6.2274">
        <ele>939</ele>
        <time>2018-05-11T08:02:52Z</time>
      </trkpt>
      <trkpt lat="46.07131" lon="6.22723">
        <ele>943</ele>
        <time>2018-05-11T08:02:54Z</time>
      </trkpt>
      <trkpt lat="46.07145" lon="6.22704">
        <ele>945</ele>
        <time>2018-05-11T08:02:56Z</time>
      </trkpt>
      <trkpt lat="46.07157" lon="6.22686">
        <ele>946</ele>
        <time>2018-05-11T08:02:58Z</time>
      </trkpt>
      <trkpt lat="46.07163" lon="6.22678">
        <ele>946</ele>
        <time>2018-05-11T08:02:59Z</time>
      </trkpt>
      <trkpt lat="46.07166" lon="6.22672">
        <ele>945</ele>
        <time>2018-05-11T08:03:00Z</time>
      </trkpt>
      <trkpt lat="46.0717" lon="6.22669">
        <ele>944</ele>
        <time>2018-05-11T08:03:01Z</time>
      </trkpt>
      <trkpt lat="46.07175" lon="6.22668">
        <ele>945</ele>
        <time>2018-05-11T08:03:02Z</time>
      </trkpt>
      <trkpt lat="46.0718" lon="6.22669">
        <ele>946</ele>
        <time>2018-05-11T08:03:03Z</time>
      </trkpt>
      <trkpt lat="46.07185" lon="6.22676">
        <ele>947</ele>
        <time>2018-05-11T08:03:04Z</time>
      </trkpt>
      <trkpt lat="46.07199" lon="6.22692">
        <ele>947</ele>
        <time>2018-05-11T08:03:07Z</time>
      </trkpt>
      <trkpt lat="46.07216" lon="6.22706">
        <ele>946</ele>
        <time>2018-05-11T08:03:10Z</time>
      </trkpt>
      <trkpt lat="46.07222" lon="6.22711">
        <ele>946</ele>
        <time>2018-05-11T08:03:11Z</time>
      </trkpt>
      <trkpt lat="46.07229" lon="6.22715">
        <ele>946</ele>
        <time>2018-05-11T08:03:12Z</time>
      </trkpt>
      <trkpt lat="46.07233" lon="6.22721">
        <ele>945</ele>
        <time>2018-05-11T08:03:13Z</time>
      </trkpt>
      <trkpt lat="46.07239" lon="6.22724">
        <ele>945</ele>
        <time>2018-05-11T08:03:14Z</time>
      </trkpt>
      <trkpt lat="46.07246" lon="6.2273">
        <ele>944</ele>
        <time>2018-05-11T08:03:15Z</time>
      </trkpt>
      <trkpt lat="46.07251" lon="6.22733">
        <ele>944</ele>
        <time>2018-05-11T08:03:16Z</time>
      </trkpt>
      <trkpt lat="46.0726" lon="6.22747">
        <ele>944</ele>
        <time>2018-05-11T08:03:18Z</time>
      </trkpt>
      <trkpt lat="46.07267" lon="6.22751">
        <ele>943</ele>
        <time>2018-05-11T08:03:19Z</time>
      </trkpt>
      <trkpt lat="46.07272" lon="6.22758">
        <ele>943</ele>
        <time>2018-05-11T08:03:20Z</time>
      </trkpt>
      <trkpt lat="46.07279" lon="6.22763">
        <ele>940</ele>
        <time>2018-05-11T08:03:21Z</time>
      </trkpt>
      <trkpt lat="46.07284" lon="6.22769">
        <ele>940</ele>
        <time>2018-05-11T08:03:22Z</time>
      </trkpt>
      <trkpt lat="46.07297" lon="6.22782">
        <ele>938</ele>
        <time>2018-05-11T08:03:24Z</time>
      </trkpt>
      <trkpt lat="46.07315" lon="6.22802">
        <ele>936</ele>
        <time>2018-05-11T08:03:27Z</time>
      </trkpt>
      <trkpt lat="46.07327" lon="6.22815">
        <ele>935</ele>
        <time>2018-05-11T08:03:29Z</time>
      </trkpt>
      <trkpt lat="46.07345" lon="6.22837">
        <ele>933</ele>
        <time>2018-05-11T08:03:32Z</time>
      </trkpt>
      <trkpt lat="46.07358" lon="6.22852">
        <ele>933</ele>
        <time>2018-05-11T08:03:34Z</time>
      </trkpt>
      <trkpt lat="46.07371" lon="6.22866">
        <ele>932</ele>
        <time>2018-05-11T08:03:36Z</time>
      </trkpt>
      <trkpt lat="46.07397" lon="6.22895">
        <ele>933</ele>
        <time>2018-05-11T08:03:40Z</time>
      </trkpt>
      <trkpt lat="46.07403" lon="6.22902">
        <ele>934</ele>
        <time>2018-05-11T08:03:41Z</time>
      </trkpt>
      <trkpt lat="46.0741" lon="6.22907">
        <ele>935</ele>
        <time>2018-05-11T08:03:42Z</time>
      </trkpt>
      <trkpt lat="46.07425" lon="6.2291">
        <ele>935</ele>
        <time>2018-05-11T08:03:44Z</time>
      </trkpt>
      <trkpt lat="46.07439" lon="6.22913">
        <ele>933</ele>
        <time>2018-05-11T08:03:46Z</time>
      </trkpt>
      <trkpt lat="46.07454" lon="6.22914">
        <ele>933</ele>
        <time>2018-05-11T08:03:48Z</time>
      </trkpt>
      <trkpt lat="46.07468" lon="6.22912">
        <ele>933</ele>
        <time>2018-05-11T08:03:50Z</time>
      </trkpt>
      <trkpt lat="46.07488" lon="6.22913">
        <ele>932</ele>
        <time>2018-05-11T08:03:53Z</time>
      </trkpt>
      <trkpt lat="46.07503" lon="6.22914">
        <ele>932</ele>
        <time>2018-05-11T08:03:55Z</time>
      </trkpt>
      <trkpt lat="46.07515" lon="6.22917">
        <ele>932</ele>
        <time>2018-05-11T08:03:57Z</time>
      </trkpt>
      <trkpt lat="46.07528" lon="6.22924">
        <ele>932</ele>
        <time>2018-05-11T08:03:59Z</time>
      </trkpt>
      <trkpt lat="46.07544" lon="6.22938">
        <ele>933</ele>
        <time>2018-05-11T08:04:02Z</time>
      </trkpt>
      <trkpt lat="46.07549" lon="6.22944">
        <ele>933</ele>
        <time>2018-05-11T08:04:03Z</time>
      </trkpt>
      <trkpt lat="46.07558" lon="6.2296">
        <ele>932</ele>
        <time>2018-05-11T08:04:05Z</time>
      </trkpt>
      <trkpt lat="46.07566" lon="6.22975">
        <ele>931</ele>
        <time>2018-05-11T08:04:07Z</time>
      </trkpt>
      <trkpt lat="46.07572" lon="6.22983">
        <ele>931</ele>
        <time>2018-05-11T08:04:08Z</time>
      </trkpt>
      <trkpt lat="46.0758" lon="6.23">
        <ele>931</ele>
        <time>2018-05-11T08:04:10Z</time>
      </trkpt>
      <trkpt lat="46.07589" lon="6.23016">
        <ele>928</ele>
        <time>2018-05-11T08:04:12Z</time>
      </trkpt>
      <trkpt lat="46.07599" lon="6.23033">
        <ele>928</ele>
        <time>2018-05-11T08:04:14Z</time>
      </trkpt>
      <trkpt lat="46.07612" lon="6.23051">
        <ele>927</ele>
        <time>2018-05-11T08:04:16Z</time>
      </trkpt>
      <trkpt lat="46.07625" lon="6.23066">
        <ele>926</ele>
        <time>2018-05-11T08:04:18Z</time>
      </trkpt>
      <trkpt lat="46.07632" lon="6.23074">
        <ele>925</ele>
        <time>2018-05-11T08:04:19Z</time>
      </trkpt>
      <trkpt lat="46.07649" lon="6.23098">
        <ele>922</ele>
        <time>2018-05-11T08:04:22Z</time>
      </trkpt>
      <trkpt lat="46.07654" lon="6.23105">
        <ele>923</ele>
        <time>2018-05-11T08:04:23Z</time>
      </trkpt>
      <trkpt lat="46.07661" lon="6.23111">
        <ele>923</ele>
        <time>2018-05-11T08:04:24Z</time>
      </trkpt>
      <trkpt lat="46.07665" lon="6.23111">
        <ele>922</ele>
        <time>2018-05-11T08:04:25Z</time>
      </trkpt>
      <trkpt lat="46.07671" lon="6.23113">
        <ele>921</ele>
        <time>2018-05-11T08:04:26Z</time>
      </trkpt>
      <trkpt lat="46.07677" lon="6.23114">
        <ele>921</ele>
        <time>2018-05-11T08:04:27Z</time>
      </trkpt>
      <trkpt lat="46.07677" lon="6.23084">
        <ele>919</ele>
        <time>2018-05-11T08:04:30Z</time>
      </trkpt>
      <trkpt lat="46.07674" lon="6.23069">
        <ele>918</ele>
        <time>2018-05-11T08:04:31Z</time>
      </trkpt>
      <trkpt lat="46.07668" lon="6.23056">
        <ele>917</ele>
        <time>2018-05-11T08:04:32Z</time>
      </trkpt>
      <trkpt lat="46.07662" lon="6.2303">
        <ele>915</ele>
        <time>2018-05-11T08:04:34Z</time>
      </trkpt>
      <trkpt lat="46.07657" lon="6.23005">
        <ele>914</ele>
        <time>2018-05-11T08:04:36Z</time>
      </trkpt>
      <trkpt lat="46.07655" lon="6.22993">
        <ele>914</ele>
        <time>2018-05-11T08:04:37Z</time>
      </trkpt>
      <trkpt lat="46.07655" lon="6.22983">
        <ele>914</ele>
        <time>2018-05-11T08:04:38Z</time>
      </trkpt>
      <trkpt lat="46.07651" lon="6.22959">
        <ele>911</ele>
        <time>2018-05-11T08:04:40Z</time>
      </trkpt>
      <trkpt lat="46.07644" lon="6.22939">
        <ele>909</ele>
        <time>2018-05-11T08:04:42Z</time>
      </trkpt>
      <trkpt lat="46.07642" lon="6.22931">
        <ele>907</ele>
        <time>2018-05-11T08:04:43Z</time>
      </trkpt>
      <trkpt lat="46.07655" lon="6.22915">
        <ele>905</ele>
        <time>2018-05-11T08:04:46Z</time>
      </trkpt>
      <trkpt lat="46.07667" lon="6.22923">
        <ele>904</ele>
        <time>2018-05-11T08:04:48Z</time>
      </trkpt>
      <trkpt lat="46.07678" lon="6.22937">
        <ele>904</ele>
        <time>2018-05-11T08:04:50Z</time>
      </trkpt>
      <trkpt lat="46.07689" lon="6.22948">
        <ele>904</ele>
        <time>2018-05-11T08:04:52Z</time>
      </trkpt>
      <trkpt lat="46.07694" lon="6.2295">
        <ele>904</ele>
        <time>2018-05-11T08:04:53Z</time>
      </trkpt>
      <trkpt lat="46.07709" lon="6.22955">
        <ele>904</ele>
        <time>2018-05-11T08:04:56Z</time>
      </trkpt>
      <trkpt lat="46.07724" lon="6.22969">
        <ele>901</ele>
        <time>2018-05-11T08:04:59Z</time>
      </trkpt>
      <trkpt lat="46.07737" lon="6.22978">
        <ele>900</ele>
        <time>2018-05-11T08:05:01Z</time>
      </trkpt>
      <trkpt lat="46.07754" lon="6.2299">
        <ele>903</ele>
        <time>2018-05-11T08:05:04Z</time>
      </trkpt>
      <trkpt lat="46.07758" lon="6.22993">
        <ele>903</ele>
        <time>2018-05-11T08:05:05Z</time>
      </trkpt>
      <trkpt lat="46.07761" lon="6.22991">
        <ele>902</ele>
        <time>2018-05-11T08:05:06Z</time>
      </trkpt>
      <trkpt lat="46.0777" lon="6.2299">
        <ele>897</ele>
        <time>2018-05-11T08:05:08Z</time>
      </trkpt>
      <trkpt lat="46.07796" lon="6.22987">
        <ele>898</ele>
        <time>2018-05-11T08:05:12Z</time>
      </trkpt>
      <trkpt lat="46.07802" lon="6.22987">
        <ele>898</ele>
        <time>2018-05-11T08:05:13Z</time>
      </trkpt>
      <trkpt lat="46.0782" lon="6.22985">
        <ele>895</ele>
        <time>2018-05-11T08:05:16Z</time>
      </trkpt>
      <trkpt lat="46.07825" lon="6.22983">
        <ele>896</ele>
        <time>2018-05-11T08:05:17Z</time>
      </trkpt>
      <trkpt lat="46.07832" lon="6.22983">
        <ele>896</ele>
        <time>2018-05-11T08:05:18Z</time>
      </trkpt>
      <trkpt lat="46.07838" lon="6.22981">
        <ele>896</ele>
        <time>2018-05-11T08:05:19Z</time>
      </trkpt>
      <trkpt lat="46.07845" lon="6.22983">
        <ele>896</ele>
        <time>2018-05-11T08:05:20Z</time>
      </trkpt>
      <trkpt lat="46.07857" lon="6.22984">
        <ele>895</ele>
        <time>2018-05-11T08:05:22Z</time>
      </trkpt>
      <trkpt lat="46.07871" lon="6.22991">
        <ele>898</ele>
        <time>2018-05-11T08:05:24Z</time>
      </trkpt>
      <trkpt lat="46.07889" lon="6.22998">
        <ele>898</ele>
        <time>2018-05-11T08:05:27Z</time>
      </trkpt>
      <trkpt lat="46.07893" lon="6.23">
        <ele>899</ele>
        <time>2018-05-11T08:05:28Z</time>
      </trkpt>
      <trkpt lat="46.07895" lon="6.23001">
        <ele>899</ele>
        <time>2018-05-11T08:05:29Z</time>
      </trkpt>
      <trkpt lat="46.07896" lon="6.23002">
        <ele>898</ele>
        <time>2018-05-11T08:05:30Z</time>
      </trkpt>
      <trkpt lat="46.07899" lon="6.23006">
        <ele>897</ele>
        <time>2018-05-11T08:07:44Z</time>
      </trkpt>
      <trkpt lat="46.07901" lon="6.23007">
        <ele>896</ele>
        <time>2018-05-11T08:07:45Z</time>
      </trkpt>
      <trkpt lat="46.07903" lon="6.23009">
        <ele>896</ele>
        <time>2018-05-11T08:07:46Z</time>
      </trkpt>
      <trkpt lat="46.07915" lon="6.23013">
        <ele>898</ele>
        <time>2018-05-11T08:07:48Z</time>
      </trkpt>
      <trkpt lat="46.07923" lon="6.23018">
        <ele>896</ele>
        <time>2018-05-11T08:07:50Z</time>
      </trkpt>
      <trkpt lat="46.07928" lon="6.23022">
        <ele>896</ele>
        <time>2018-05-11T08:07:51Z</time>
      </trkpt>
      <trkpt lat="46.07932" lon="6.23028">
        <ele>896</ele>
        <time>2018-05-11T08:07:52Z</time>
      </trkpt>
      <trkpt lat="46.07949" lon="6.23041">
        <ele>895</ele>
        <time>2018-05-11T08:07:55Z</time>
      </trkpt>
      <trkpt lat="46.07961" lon="6.23048">
        <ele>895</ele>
        <time>2018-05-11T08:07:57Z</time>
      </trkpt>
      <trkpt lat="46.07976" lon="6.23053">
        <ele>894</ele>
        <time>2018-05-11T08:07:59Z</time>
      </trkpt>
      <trkpt lat="46.07981" lon="6.23051">
        <ele>891</ele>
        <time>2018-05-11T08:08:00Z</time>
      </trkpt>
      <trkpt lat="46.07997" lon="6.23051">
        <ele>890</ele>
        <time>2018-05-11T08:08:02Z</time>
      </trkpt>
      <trkpt lat="46.08011" lon="6.23051">
        <ele>889</ele>
        <time>2018-05-11T08:08:04Z</time>
      </trkpt>
      <trkpt lat="46.08016" lon="6.23052">
        <ele>889</ele>
        <time>2018-05-11T08:08:05Z</time>
      </trkpt>
      <trkpt lat="46.08021" lon="6.23055">
        <ele>888</ele>
        <time>2018-05-11T08:08:06Z</time>
      </trkpt>
      <trkpt lat="46.08027" lon="6.23055">
        <ele>888</ele>
        <time>2018-05-11T08:08:07Z</time>
      </trkpt>
      <trkpt lat="46.08033" lon="6.23058">
        <ele>888</ele>
        <time>2018-05-11T08:08:08Z</time>
      </trkpt>
      <trkpt lat="46.0804" lon="6.23057">
        <ele>888</ele>
        <time>2018-05-11T08:08:09Z</time>
      </trkpt>
      <trkpt lat="46.08053" lon="6.23063">
        <ele>887</ele>
        <time>2018-05-11T08:08:11Z</time>
      </trkpt>
      <trkpt lat="46.08069" lon="6.23068">
        <ele>886</ele>
        <time>2018-05-11T08:08:14Z</time>
      </trkpt>
      <trkpt lat="46.08088" lon="6.23058">
        <ele>885</ele>
        <time>2018-05-11T08:08:17Z</time>
      </trkpt>
      <trkpt lat="46.081" lon="6.23047">
        <ele>886</ele>
        <time>2018-05-11T08:08:19Z</time>
      </trkpt>
      <trkpt lat="46.08107" lon="6.23045">
        <ele>885</ele>
        <time>2018-05-11T08:08:20Z</time>
      </trkpt>
      <trkpt lat="46.08122" lon="6.23038">
        <ele>883</ele>
        <time>2018-05-11T08:08:22Z</time>
      </trkpt>
      <trkpt lat="46.08138" lon="6.23034">
        <ele>882</ele>
        <time>2018-05-11T08:08:24Z</time>
      </trkpt>
      <trkpt lat="46.08157" lon="6.23038">
        <ele>881</ele>
        <time>2018-05-11T08:08:26Z</time>
      </trkpt>
      <trkpt lat="46.08175" lon="6.23044">
        <ele>880</ele>
        <time>2018-05-11T08:08:28Z</time>
      </trkpt>
      <trkpt lat="46.08191" lon="6.23054">
        <ele>879</ele>
        <time>2018-05-11T08:08:30Z</time>
      </trkpt>
      <trkpt lat="46.08199" lon="6.23062">
        <ele>879</ele>
        <time>2018-05-11T08:08:31Z</time>
      </trkpt>
      <trkpt lat="46.08212" lon="6.23079">
        <ele>879</ele>
        <time>2018-05-11T08:08:33Z</time>
      </trkpt>
      <trkpt lat="46.08224" lon="6.23095">
        <ele>878</ele>
        <time>2018-05-11T08:08:35Z</time>
      </trkpt>
      <trkpt lat="46.08236" lon="6.23114">
        <ele>877</ele>
        <time>2018-05-11T08:08:37Z</time>
      </trkpt>
      <trkpt lat="46.08252" lon="6.23131">
        <ele>877</ele>
        <time>2018-05-11T08:08:39Z</time>
      </trkpt>
      <trkpt lat="46.08261" lon="6.23135">
        <ele>877</ele>
        <time>2018-05-11T08:08:40Z</time>
      </trkpt>
      <trkpt lat="46.08279" lon="6.23139">
        <ele>875</ele>
        <time>2018-05-11T08:08:42Z</time>
      </trkpt>
      <trkpt lat="46.08298" lon="6.2314">
        <ele>875</ele>
        <time>2018-05-11T08:08:44Z</time>
      </trkpt>
      <trkpt lat="46.08339" lon="6.2314">
        <ele>872</ele>
        <time>2018-05-11T08:08:48Z</time>
      </trkpt>
      <trkpt lat="46.08359" lon="6.23139">
        <ele>871</ele>
        <time>2018-05-11T08:08:50Z</time>
      </trkpt>
      <trkpt lat="46.08378" lon="6.23137">
        <ele>870</ele>
        <time>2018-05-11T08:08:52Z</time>
      </trkpt>
      <trkpt lat="46.08386" lon="6.23132">
        <ele>869</ele>
        <time>2018-05-11T08:08:53Z</time>
      </trkpt>
      <trkpt lat="46.08401" lon="6.23118">
        <ele>869</ele>
        <time>2018-05-11T08:08:55Z</time>
      </trkpt>
      <trkpt lat="46.08437" lon="6.23083">
        <ele>867</ele>
        <time>2018-05-11T08:09:00Z</time>
      </trkpt>
      <trkpt lat="46.08453" lon="6.23068">
        <ele>866</ele>
        <time>2018-05-11T08:09:02Z</time>
      </trkpt>
      <trkpt lat="46.08469" lon="6.23056">
        <ele>865</ele>
        <time>2018-05-11T08:09:04Z</time>
      </trkpt>
      <trkpt lat="46.08484" lon="6.23046">
        <ele>863</ele>
        <time>2018-05-11T08:09:06Z</time>
      </trkpt>
      <trkpt lat="46.08501" lon="6.2304">
        <ele>862</ele>
        <time>2018-05-11T08:09:08Z</time>
      </trkpt>
      <trkpt lat="46.08506" lon="6.23036">
        <ele>861</ele>
        <time>2018-05-11T08:09:09Z</time>
      </trkpt>
      <trkpt lat="46.0851" lon="6.23032">
        <ele>859</ele>
        <time>2018-05-11T08:09:10Z</time>
      </trkpt>
      <trkpt lat="46.08511" lon="6.23024">
        <ele>858</ele>
        <time>2018-05-11T08:09:11Z</time>
      </trkpt>
      <trkpt lat="46.08514" lon="6.23009">
        <ele>859</ele>
        <time>2018-05-11T08:09:13Z</time>
      </trkpt>
      <trkpt lat="46.0849" lon="6.23008">
        <ele>858</ele>
        <time>2018-05-11T08:09:17Z</time>
      </trkpt>
      <trkpt lat="46.08482" lon="6.23008">
        <ele>858</ele>
        <time>2018-05-11T08:09:18Z</time>
      </trkpt>
      <trkpt lat="46.08474" lon="6.23004">
        <ele>858</ele>
        <time>2018-05-11T08:09:19Z</time>
      </trkpt>
      <trkpt lat="46.08455" lon="6.22991">
        <ele>858</ele>
        <time>2018-05-11T08:09:21Z</time>
      </trkpt>
      <trkpt lat="46.0844" lon="6.22973">
        <ele>859</ele>
        <time>2018-05-11T08:09:23Z</time>
      </trkpt>
      <trkpt lat="46.08432" lon="6.22966">
        <ele>859</ele>
        <time>2018-05-11T08:09:24Z</time>
      </trkpt>
      <trkpt lat="46.08425" lon="6.22962">
        <ele>858</ele>
        <time>2018-05-11T08:09:25Z</time>
      </trkpt>
      <trkpt lat="46.0841" lon="6.22959">
        <ele>858</ele>
        <time>2018-05-11T08:09:27Z</time>
      </trkpt>
      <trkpt lat="46.08399" lon="6.22961">
        <ele>859</ele>
        <time>2018-05-11T08:09:29Z</time>
      </trkpt>
      <trkpt lat="46.08381" lon="6.2296">
        <ele>858</ele>
        <time>2018-05-11T08:09:32Z</time>
      </trkpt>
      <trkpt lat="46.08368" lon="6.22947">
        <ele>858</ele>
        <time>2018-05-11T08:09:35Z</time>
      </trkpt>
      <trkpt lat="46.08359" lon="6.22935">
        <ele>853</ele>
        <time>2018-05-11T08:09:38Z</time>
      </trkpt>
      <trkpt lat="46.08356" lon="6.22932">
        <ele>852</ele>
        <time>2018-05-11T08:09:40Z</time>
      </trkpt>
      <trkpt lat="46.08354" lon="6.22928">
        <ele>847</ele>
        <time>2018-05-11T08:11:32Z</time>
      </trkpt>
      <trkpt lat="46.08346" lon="6.22912">
        <ele>847</ele>
        <time>2018-05-11T08:11:36Z</time>
      </trkpt>
      <trkpt lat="46.08343" lon="6.22902">
        <ele>848</ele>
        <time>2018-05-11T08:11:38Z</time>
      </trkpt>
      <trkpt lat="46.08337" lon="6.22883">
        <ele>848</ele>
        <time>2018-05-11T08:11:42Z</time>
      </trkpt>
      <trkpt lat="46.08334" lon="6.22869">
        <ele>850</ele>
        <time>2018-05-11T08:11:43Z</time>
      </trkpt>
      <trkpt lat="46.08334" lon="6.22867">
        <ele>850</ele>
        <time>2018-05-11T08:11:44Z</time>
      </trkpt>
      <trkpt lat="46.08334" lon="6.22859">
        <ele>851</ele>
        <time>2018-05-11T08:11:45Z</time>
      </trkpt>
      <trkpt lat="46.08338" lon="6.22851">
        <ele>851</ele>
        <time>2018-05-11T08:11:47Z</time>
      </trkpt>
      <trkpt lat="46.0834" lon="6.22846">
        <ele>851</ele>
        <time>2018-05-11T08:11:48Z</time>
      </trkpt>
      <trkpt lat="46.0834" lon="6.2284">
        <ele>850</ele>
        <time>2018-05-11T08:11:49Z</time>
      </trkpt>
      <trkpt lat="46.08344" lon="6.22831">
        <ele>852</ele>
        <time>2018-05-11T08:11:51Z</time>
      </trkpt>
      <trkpt lat="46.08349" lon="6.22815">
        <ele>851</ele>
        <time>2018-05-11T08:11:54Z</time>
      </trkpt>
      <trkpt lat="46.08354" lon="6.22798">
        <ele>854</ele>
        <time>2018-05-11T08:11:57Z</time>
      </trkpt>
      <trkpt lat="46.08357" lon="6.22787">
        <ele>854</ele>
        <time>2018-05-11T08:11:59Z</time>
      </trkpt>
      <trkpt lat="46.08366" lon="6.22766">
        <ele>854</ele>
        <time>2018-05-11T08:12:03Z</time>
      </trkpt>
      <trkpt lat="46.0837" lon="6.22755">
        <ele>819</ele>
        <time>2018-05-11T08:12:05Z</time>
      </trkpt>
      <trkpt lat="46.08378" lon="6.22738">
        <ele>836</ele>
        <time>2018-05-11T08:12:08Z</time>
      </trkpt>
      <trkpt lat="46.08388" lon="6.22715">
        <ele>846</ele>
        <time>2018-05-11T08:12:12Z</time>
      </trkpt>
      <trkpt lat="46.08395" lon="6.22697">
        <ele>850</ele>
        <time>2018-05-11T08:12:15Z</time>
      </trkpt>
      <trkpt lat="46.08399" lon="6.22685">
        <ele>850</ele>
        <time>2018-05-11T08:12:17Z</time>
      </trkpt>
      <trkpt lat="46.08401" lon="6.22673">
        <ele>850</ele>
        <time>2018-05-11T08:12:19Z</time>
      </trkpt>
      <trkpt lat="46.08401" lon="6.22659">
        <ele>849</ele>
        <time>2018-05-11T08:12:21Z</time>
      </trkpt>
      <trkpt lat="46.08399" lon="6.22637">
        <ele>851</ele>
        <time>2018-05-11T08:12:24Z</time>
      </trkpt>
      <trkpt lat="46.08397" lon="6.22618">
        <ele>848</ele>
        <time>2018-05-11T08:12:27Z</time>
      </trkpt>
      <trkpt lat="46.08395" lon="6.22611">
        <ele>849</ele>
        <time>2018-05-11T08:12:28Z</time>
      </trkpt>
      <trkpt lat="46.08391" lon="6.22589">
        <ele>848</ele>
        <time>2018-05-11T08:12:31Z</time>
      </trkpt>
      <trkpt lat="46.0839" lon="6.22584">
        <ele>848</ele>
        <time>2018-05-11T08:12:32Z</time>
      </trkpt>
      <trkpt lat="46.0839" lon="6.22578">
        <ele>850</ele>
        <time>2018-05-11T08:12:33Z</time>
      </trkpt>
      <trkpt lat="46.08386" lon="6.22559">
        <ele>851</ele>
        <time>2018-05-11T08:12:36Z</time>
      </trkpt>
      <trkpt lat="46.08386" lon="6.22553">
        <ele>851</ele>
        <time>2018-05-11T08:12:37Z</time>
      </trkpt>
      <trkpt lat="46.08383" lon="6.22542">
        <ele>851</ele>
        <time>2018-05-11T08:12:39Z</time>
      </trkpt>
      <trkpt lat="46.08382" lon="6.22538">
        <ele>851</ele>
        <time>2018-05-11T08:12:40Z</time>
      </trkpt>
      <trkpt lat="46.08375" lon="6.2253">
        <ele>851</ele>
        <time>2018-05-11T08:12:42Z</time>
      </trkpt>
      <trkpt lat="46.08367" lon="6.22523">
        <ele>852</ele>
        <time>2018-05-11T08:12:44Z</time>
      </trkpt>
      <trkpt lat="46.08363" lon="6.22521">
        <ele>852</ele>
        <time>2018-05-11T08:12:45Z</time>
      </trkpt>
      <trkpt lat="46.08347" lon="6.22507">
        <ele>854</ele>
        <time>2018-05-11T08:12:49Z</time>
      </trkpt>
      <trkpt lat="46.0834" lon="6.22501">
        <ele>854</ele>
        <time>2018-05-11T08:12:51Z</time>
      </trkpt>
      <trkpt lat="46.08336" lon="6.22497">
        <ele>854</ele>
        <time>2018-05-11T08:12:52Z</time>
      </trkpt>
      <trkpt lat="46.08331" lon="6.22484">
        <ele>854</ele>
        <time>2018-05-11T08:12:56Z</time>
      </trkpt>
      <trkpt lat="46.0833" lon="6.22472">
        <ele>854</ele>
        <time>2018-05-11T08:12:59Z</time>
      </trkpt>
      <trkpt lat="46.0833" lon="6.22468">
        <ele>855</ele>
        <time>2018-05-11T08:13:00Z</time>
      </trkpt>
      <trkpt lat="46.08331" lon="6.22448">
        <ele>857</ele>
        <time>2018-05-11T08:13:05Z</time>
      </trkpt>
      <trkpt lat="46.08331" lon="6.22443">
        <ele>857</ele>
        <time>2018-05-11T08:13:06Z</time>
      </trkpt>
      <trkpt lat="46.08334" lon="6.22433">
        <ele>859</ele>
        <time>2018-05-11T08:13:07Z</time>
      </trkpt>
      <trkpt lat="46.08334" lon="6.22424">
        <ele>860</ele>
        <time>2018-05-11T08:13:10Z</time>
      </trkpt>
      <trkpt lat="46.08334" lon="6.22408">
        <ele>859</ele>
        <time>2018-05-11T08:13:14Z</time>
      </trkpt>
      <trkpt lat="46.08334" lon="6.22404">
        <ele>859</ele>
        <time>2018-05-11T08:13:15Z</time>
      </trkpt>
      <trkpt lat="46.08335" lon="6.22401">
        <ele>859</ele>
        <time>2018-05-11T08:13:16Z</time>
      </trkpt>
      <trkpt lat="46.08337" lon="6.22379">
        <ele>860</ele>
        <time>2018-05-11T08:13:21Z</time>
      </trkpt>
      <trkpt lat="46.08338" lon="6.2236">
        <ele>862</ele>
        <time>2018-05-11T08:13:25Z</time>
      </trkpt>
      <trkpt lat="46.08339" lon="6.22338">
        <ele>864</ele>
        <time>2018-05-11T08:13:30Z</time>
      </trkpt>
      <trkpt lat="46.0834" lon="6.22334">
        <ele>864</ele>
        <time>2018-05-11T08:13:31Z</time>
      </trkpt>
      <trkpt lat="46.08339" lon="6.22329">
        <ele>865</ele>
        <time>2018-05-11T08:13:32Z</time>
      </trkpt>
      <trkpt lat="46.08339" lon="6.22316">
        <ele>866</ele>
        <time>2018-05-11T08:13:35Z</time>
      </trkpt>
      <trkpt lat="46.08337" lon="6.22307">
        <ele>867</ele>
        <time>2018-05-11T08:13:37Z</time>
      </trkpt>
      <trkpt lat="46.08334" lon="6.223">
        <ele>867</ele>
        <time>2018-05-11T08:13:39Z</time>
      </trkpt>
      <trkpt lat="46.08333" lon="6.22296">
        <ele>867</ele>
        <time>2018-05-11T08:13:40Z</time>
      </trkpt>
      <trkpt lat="46.08331" lon="6.2229">
        <ele>866</ele>
        <time>2018-05-11T08:13:42Z</time>
      </trkpt>
      <trkpt lat="46.08322" lon="6.2228">
        <ele>867</ele>
        <time>2018-05-11T08:13:46Z</time>
      </trkpt>
      <trkpt lat="46.08317" lon="6.22275">
        <ele>868</ele>
        <time>2018-05-11T08:13:48Z</time>
      </trkpt>
      <trkpt lat="46.08311" lon="6.22271">
        <ele>869</ele>
        <time>2018-05-11T08:13:50Z</time>
      </trkpt>
      <trkpt lat="46.08298" lon="6.22261">
        <ele>869</ele>
        <time>2018-05-11T08:13:55Z</time>
      </trkpt>
      <trkpt lat="46.08288" lon="6.22254">
        <ele>871</ele>
        <time>2018-05-11T08:13:59Z</time>
      </trkpt>
      <trkpt lat="46.08284" lon="6.2225">
        <ele>872</ele>
        <time>2018-05-11T08:14:01Z</time>
      </trkpt>
      <trkpt lat="46.08274" lon="6.22242">
        <ele>873</ele>
        <time>2018-05-11T08:14:05Z</time>
      </trkpt>
      <trkpt lat="46.08262" lon="6.22234">
        <ele>874</ele>
        <time>2018-05-11T08:14:10Z</time>
      </trkpt>
      <trkpt lat="46.08248" lon="6.22225">
        <ele>875</ele>
        <time>2018-05-11T08:14:15Z</time>
      </trkpt>
      <trkpt lat="46.08239" lon="6.2222">
        <ele>876</ele>
        <time>2018-05-11T08:14:19Z</time>
      </trkpt>
      <trkpt lat="46.08227" lon="6.22212">
        <ele>878</ele>
        <time>2018-05-11T08:14:24Z</time>
      </trkpt>
      <trkpt lat="46.08225" lon="6.2221">
        <ele>878</ele>
        <time>2018-05-11T08:14:25Z</time>
      </trkpt>
      <trkpt lat="46.08218" lon="6.22205">
        <ele>877</ele>
        <time>2018-05-11T08:14:28Z</time>
      </trkpt>
      <trkpt lat="46.08207" lon="6.22197">
        <ele>878</ele>
        <time>2018-05-11T08:14:33Z</time>
      </trkpt>
      <trkpt lat="46.08202" lon="6.22195">
        <ele>879</ele>
        <time>2018-05-11T08:14:35Z</time>
      </trkpt>
      <trkpt lat="46.0819" lon="6.22187">
        <ele>881</ele>
        <time>2018-05-11T08:14:40Z</time>
      </trkpt>
      <trkpt lat="46.08183" lon="6.22182">
        <ele>882</ele>
        <time>2018-05-11T08:14:43Z</time>
      </trkpt>
      <trkpt lat="46.08172" lon="6.22174">
        <ele>882</ele>
        <time>2018-05-11T08:14:48Z</time>
      </trkpt>
      <trkpt lat="46.0816" lon="6.22167">
        <ele>884</ele>
        <time>2018-05-11T08:14:53Z</time>
      </trkpt>
      <trkpt lat="46.08148" lon="6.2216">
        <ele>885</ele>
        <time>2018-05-11T08:14:58Z</time>
      </trkpt>
      <trkpt lat="46.08142" lon="6.22156">
        <ele>887</ele>
        <time>2018-05-11T08:15:01Z</time>
      </trkpt>
      <trkpt lat="46.08137" lon="6.22155">
        <ele>888</ele>
        <time>2018-05-11T08:15:03Z</time>
      </trkpt>
      <trkpt lat="46.08134" lon="6.22154">
        <ele>888</ele>
        <time>2018-05-11T08:15:04Z</time>
      </trkpt>
      <trkpt lat="46.08129" lon="6.22153">
        <ele>889</ele>
        <time>2018-05-11T08:15:06Z</time>
      </trkpt>
      <trkpt lat="46.08119" lon="6.22154">
        <ele>891</ele>
        <time>2018-05-11T08:15:10Z</time>
      </trkpt>
      <trkpt lat="46.08112" lon="6.22156">
        <ele>892</ele>
        <time>2018-05-11T08:15:13Z</time>
      </trkpt>
      <trkpt lat="46.08104" lon="6.22162">
        <ele>892</ele>
        <time>2018-05-11T08:15:17Z</time>
      </trkpt>
      <trkpt lat="46.08098" lon="6.22166">
        <ele>893</ele>
        <time>2018-05-11T08:15:20Z</time>
      </trkpt>
      <trkpt lat="46.08094" lon="6.2217">
        <ele>892</ele>
        <time>2018-05-11T08:15:22Z</time>
      </trkpt>
      <trkpt lat="46.08086" lon="6.22182">
        <ele>893</ele>
        <time>2018-05-11T08:15:27Z</time>
      </trkpt>
      <trkpt lat="46.08078" lon="6.22197">
        <ele>894</ele>
        <time>2018-05-11T08:15:32Z</time>
      </trkpt>
      <trkpt lat="46.08071" lon="6.22211">
        <ele>895</ele>
        <time>2018-05-11T08:15:37Z</time>
      </trkpt>
      <trkpt lat="46.08064" lon="6.22222">
        <ele>896</ele>
        <time>2018-05-11T08:15:41Z</time>
      </trkpt>
      <trkpt lat="46.08054" lon="6.22235">
        <ele>896</ele>
        <time>2018-05-11T08:15:46Z</time>
      </trkpt>
      <trkpt lat="46.0805" lon="6.22239">
        <ele>896</ele>
        <time>2018-05-11T08:15:48Z</time>
      </trkpt>
      <trkpt lat="46.08045" lon="6.22242">
        <ele>896</ele>
        <time>2018-05-11T08:15:50Z</time>
      </trkpt>
      <trkpt lat="46.0803" lon="6.22246">
        <ele>897</ele>
        <time>2018-05-11T08:15:55Z</time>
      </trkpt>
      <trkpt lat="46.08016" lon="6.22246">
        <ele>900</ele>
        <time>2018-05-11T08:16:02Z</time>
      </trkpt>
      <trkpt lat="46.08009" lon="6.22244">
        <ele>899</ele>
        <time>2018-05-11T08:16:05Z</time>
      </trkpt>
      <trkpt lat="46.07998" lon="6.22239">
        <ele>900</ele>
        <time>2018-05-11T08:16:10Z</time>
      </trkpt>
      <trkpt lat="46.07988" lon="6.22234">
        <ele>901</ele>
        <time>2018-05-11T08:16:14Z</time>
      </trkpt>
      <trkpt lat="46.07977" lon="6.22225">
        <ele>903</ele>
        <time>2018-05-11T08:16:19Z</time>
      </trkpt>
      <trkpt lat="46.07966" lon="6.22215">
        <ele>902</ele>
        <time>2018-05-11T08:16:24Z</time>
      </trkpt>
      <trkpt lat="46.07956" lon="6.22203">
        <ele>904</ele>
        <time>2018-05-11T08:16:29Z</time>
      </trkpt>
      <trkpt lat="46.07949" lon="6.22194">
        <ele>904</ele>
        <time>2018-05-11T08:16:32Z</time>
      </trkpt>
      <trkpt lat="46.07941" lon="6.2218">
        <ele>904</ele>
        <time>2018-05-11T08:16:37Z</time>
      </trkpt>
      <trkpt lat="46.07933" lon="6.22164">
        <ele>905</ele>
        <time>2018-05-11T08:16:42Z</time>
      </trkpt>
      <trkpt lat="46.07926" lon="6.22151">
        <ele>906</ele>
        <time>2018-05-11T08:16:46Z</time>
      </trkpt>
      <trkpt lat="46.07918" lon="6.22134">
        <ele>908</ele>
        <time>2018-05-11T08:16:51Z</time>
      </trkpt>
      <trkpt lat="46.07912" lon="6.22119">
        <ele>907</ele>
        <time>2018-05-11T08:16:54Z</time>
      </trkpt>
      <trkpt lat="46.07904" lon="6.22106">
        <ele>910</ele>
        <time>2018-05-11T08:16:59Z</time>
      </trkpt>
      <trkpt lat="46.07895" lon="6.22092">
        <ele>910</ele>
        <time>2018-05-11T08:17:04Z</time>
      </trkpt>
      <trkpt lat="46.07891" lon="6.22087">
        <ele>910</ele>
        <time>2018-05-11T08:17:06Z</time>
      </trkpt>
      <trkpt lat="46.07882" lon="6.22072">
        <ele>912</ele>
        <time>2018-05-11T08:17:11Z</time>
      </trkpt>
      <trkpt lat="46.07873" lon="6.22059">
        <ele>913</ele>
        <time>2018-05-11T08:17:14Z</time>
      </trkpt>
      <trkpt lat="46.07864" lon="6.2205">
        <ele>916</ele>
        <time>2018-05-11T08:17:19Z</time>
      </trkpt>
      <trkpt lat="46.07854" lon="6.22038">
        <ele>918</ele>
        <time>2018-05-11T08:17:24Z</time>
      </trkpt>
      <trkpt lat="46.07844" lon="6.22026">
        <ele>918</ele>
        <time>2018-05-11T08:17:29Z</time>
      </trkpt>
      <trkpt lat="46.07833" lon="6.22011">
        <ele>919</ele>
        <time>2018-05-11T08:17:34Z</time>
      </trkpt>
      <trkpt lat="46.07822" lon="6.21998">
        <ele>920</ele>
        <time>2018-05-11T08:17:39Z</time>
      </trkpt>
      <trkpt lat="46.07818" lon="6.21992">
        <ele>921</ele>
        <time>2018-05-11T08:17:41Z</time>
      </trkpt>
      <trkpt lat="46.07807" lon="6.21976">
        <ele>921</ele>
        <time>2018-05-11T08:17:46Z</time>
      </trkpt>
      <trkpt lat="46.07795" lon="6.21962">
        <ele>923</ele>
        <time>2018-05-11T08:17:51Z</time>
      </trkpt>
      <trkpt lat="46.07788" lon="6.21953">
        <ele>924</ele>
        <time>2018-05-11T08:17:54Z</time>
      </trkpt>
      <trkpt lat="46.07783" lon="6.21945">
        <ele>924</ele>
        <time>2018-05-11T08:17:55Z</time>
      </trkpt>
      <trkpt lat="46.07778" lon="6.21938">
        <ele>927</ele>
        <time>2018-05-11T08:17:58Z</time>
      </trkpt>
      <trkpt lat="46.07775" lon="6.21933">
        <ele>927</ele>
        <time>2018-05-11T08:18:00Z</time>
      </trkpt>
      <trkpt lat="46.07768" lon="6.21927">
        <ele>928</ele>
        <time>2018-05-11T08:18:03Z</time>
      </trkpt>
      <trkpt lat="46.07757" lon="6.21917">
        <ele>929</ele>
        <time>2018-05-11T08:18:08Z</time>
      </trkpt>
      <trkpt lat="46.0775" lon="6.21909">
        <ele>930</ele>
        <time>2018-05-11T08:18:12Z</time>
      </trkpt>
      <trkpt lat="46.07747" lon="6.21908">
        <ele>929</ele>
        <time>2018-05-11T08:18:13Z</time>
      </trkpt>
      <trkpt lat="46.07746" lon="6.21906">
        <ele>929</ele>
        <time>2018-05-11T08:18:14Z</time>
      </trkpt>
      <trkpt lat="46.07737" lon="6.21897">
        <ele>930</ele>
        <time>2018-05-11T08:18:18Z</time>
      </trkpt>
      <trkpt lat="46.07731" lon="6.21891">
        <ele>930</ele>
        <time>2018-05-11T08:18:21Z</time>
      </trkpt>
      <trkpt lat="46.07729" lon="6.21887">
        <ele>930</ele>
        <time>2018-05-11T08:18:23Z</time>
      </trkpt>
      <trkpt lat="46.0772" lon="6.21873">
        <ele>931</ele>
        <time>2018-05-11T08:18:28Z</time>
      </trkpt>
      <trkpt lat="46.07711" lon="6.21858">
        <ele>929</ele>
        <time>2018-05-11T08:18:33Z</time>
      </trkpt>
      <trkpt lat="46.07705" lon="6.21845">
        <ele>930</ele>
        <time>2018-05-11T08:18:36Z</time>
      </trkpt>
      <trkpt lat="46.07697" lon="6.21833">
        <ele>931</ele>
        <time>2018-05-11T08:18:41Z</time>
      </trkpt>
      <trkpt lat="46.07689" lon="6.2182">
        <ele>933</ele>
        <time>2018-05-11T08:18:46Z</time>
      </trkpt>
      <trkpt lat="46.07683" lon="6.2181">
        <ele>934</ele>
        <time>2018-05-11T08:18:49Z</time>
      </trkpt>
      <trkpt lat="46.07677" lon="6.21797">
        <ele>937</ele>
        <time>2018-05-11T08:18:53Z</time>
      </trkpt>
      <trkpt lat="46.07675" lon="6.21794">
        <ele>937</ele>
        <time>2018-05-11T08:18:54Z</time>
      </trkpt>
      <trkpt lat="46.07669" lon="6.21775">
        <ele>938</ele>
        <time>2018-05-11T08:18:59Z</time>
      </trkpt>
      <trkpt lat="46.07667" lon="6.21762">
        <ele>940</ele>
        <time>2018-05-11T08:19:02Z</time>
      </trkpt>
      <trkpt lat="46.07666" lon="6.2174">
        <ele>943</ele>
        <time>2018-05-11T08:19:07Z</time>
      </trkpt>
      <trkpt lat="46.07669" lon="6.21719">
        <ele>944</ele>
        <time>2018-05-11T08:19:12Z</time>
      </trkpt>
      <trkpt lat="46.07669" lon="6.21714">
        <ele>944</ele>
        <time>2018-05-11T08:19:13Z</time>
      </trkpt>
      <trkpt lat="46.07674" lon="6.21696">
        <ele>945</ele>
        <time>2018-05-11T08:19:17Z</time>
      </trkpt>
      <trkpt lat="46.07678" lon="6.21684">
        <ele>944</ele>
        <time>2018-05-11T08:19:18Z</time>
      </trkpt>
      <trkpt lat="46.07681" lon="6.21667">
        <ele>944</ele>
        <time>2018-05-11T08:19:21Z</time>
      </trkpt>
      <trkpt lat="46.07687" lon="6.21639">
        <ele>942</ele>
        <time>2018-05-11T08:19:26Z</time>
      </trkpt>
      <trkpt lat="46.0769" lon="6.21619">
        <ele>942</ele>
        <time>2018-05-11T08:19:29Z</time>
      </trkpt>
      <trkpt lat="46.07691" lon="6.216">
        <ele>941</ele>
        <time>2018-05-11T08:19:32Z</time>
      </trkpt>
      <trkpt lat="46.07692" lon="6.21586">
        <ele>941</ele>
        <time>2018-05-11T08:19:34Z</time>
      </trkpt>
      <trkpt lat="46.0769" lon="6.21563">
        <ele>941</ele>
        <time>2018-05-11T08:19:37Z</time>
      </trkpt>
      <trkpt lat="46.07688" lon="6.21542">
        <ele>941</ele>
        <time>2018-05-11T08:19:40Z</time>
      </trkpt>
      <trkpt lat="46.07688" lon="6.21536">
        <ele>940</ele>
        <time>2018-05-11T08:19:41Z</time>
      </trkpt>
      <trkpt lat="46.07684" lon="6.21521">
        <ele>940</ele>
        <time>2018-05-11T08:19:43Z</time>
      </trkpt>
      <trkpt lat="46.0768" lon="6.215">
        <ele>940</ele>
        <time>2018-05-11T08:19:46Z</time>
      </trkpt>
      <trkpt lat="46.07679" lon="6.21493">
        <ele>941</ele>
        <time>2018-05-11T08:19:47Z</time>
      </trkpt>
      <trkpt lat="46.07676" lon="6.21471">
        <ele>941</ele>
        <time>2018-05-11T08:19:50Z</time>
      </trkpt>
      <trkpt lat="46.07673" lon="6.21451">
        <ele>941</ele>
        <time>2018-05-11T08:19:53Z</time>
      </trkpt>
      <trkpt lat="46.07673" lon="6.21444">
        <ele>942</ele>
        <time>2018-05-11T08:19:54Z</time>
      </trkpt>
      <trkpt lat="46.0767" lon="6.21432">
        <ele>940</ele>
        <time>2018-05-11T08:19:56Z</time>
      </trkpt>
      <trkpt lat="46.07669" lon="6.21419">
        <ele>939</ele>
        <time>2018-05-11T08:19:58Z</time>
      </trkpt>
      <trkpt lat="46.07667" lon="6.21412">
        <ele>939</ele>
        <time>2018-05-11T08:19:59Z</time>
      </trkpt>
      <trkpt lat="46.07664" lon="6.21392">
        <ele>939</ele>
        <time>2018-05-11T08:20:02Z</time>
      </trkpt>
      <trkpt lat="46.07663" lon="6.21372">
        <ele>938</ele>
        <time>2018-05-11T08:20:05Z</time>
      </trkpt>
      <trkpt lat="46.07664" lon="6.21351">
        <ele>940</ele>
        <time>2018-05-11T08:20:08Z</time>
      </trkpt>
      <trkpt lat="46.07666" lon="6.21346">
        <ele>939</ele>
        <time>2018-05-11T08:20:09Z</time>
      </trkpt>
      <trkpt lat="46.07668" lon="6.21334">
        <ele>939</ele>
        <time>2018-05-11T08:20:11Z</time>
      </trkpt>
      <trkpt lat="46.07675" lon="6.21312">
        <ele>940</ele>
        <time>2018-05-11T08:20:15Z</time>
      </trkpt>
      <trkpt lat="46.07678" lon="6.21304">
        <ele>941</ele>
        <time>2018-05-11T08:20:17Z</time>
      </trkpt>
      <trkpt lat="46.07679" lon="6.21301">
        <ele>940</ele>
        <time>2018-05-11T08:20:18Z</time>
      </trkpt>
      <trkpt lat="46.07681" lon="6.21291">
        <ele>940</ele>
        <time>2018-05-11T08:20:21Z</time>
      </trkpt>
      <trkpt lat="46.07682" lon="6.21288">
        <ele>940</ele>
        <time>2018-05-11T08:20:22Z</time>
      </trkpt>
      <trkpt lat="46.07685" lon="6.21282">
        <ele>940</ele>
        <time>2018-05-11T08:20:24Z</time>
      </trkpt>
      <trkpt lat="46.07686" lon="6.21278">
        <ele>940</ele>
        <time>2018-05-11T08:20:25Z</time>
      </trkpt>
      <trkpt lat="46.07688" lon="6.21274">
        <ele>939</ele>
        <time>2018-05-11T08:20:26Z</time>
      </trkpt>
      <trkpt lat="46.07689" lon="6.21269">
        <ele>940</ele>
        <time>2018-05-11T08:20:27Z</time>
      </trkpt>
      <trkpt lat="46.07692" lon="6.21261">
        <ele>943</ele>
        <time>2018-05-11T08:20:29Z</time>
      </trkpt>
      <trkpt lat="46.07693" lon="6.21258">
        <ele>943</ele>
        <time>2018-05-11T08:20:30Z</time>
      </trkpt>
      <trkpt lat="46.07694" lon="6.21254">
        <ele>942</ele>
        <time>2018-05-11T08:20:31Z</time>
      </trkpt>
      <trkpt lat="46.07696" lon="6.21247">
        <ele>943</ele>
        <time>2018-05-11T08:20:33Z</time>
      </trkpt>
      <trkpt lat="46.07697" lon="6.21243">
        <ele>943</ele>
        <time>2018-05-11T08:20:34Z</time>
      </trkpt>
      <trkpt lat="46.077" lon="6.21236">
        <ele>942</ele>
        <time>2018-05-11T08:20:36Z</time>
      </trkpt>
      <trkpt lat="46.07701" lon="6.21232">
        <ele>943</ele>
        <time>2018-05-11T08:20:37Z</time>
      </trkpt>
      <trkpt lat="46.07702" lon="6.21228">
        <ele>943</ele>
        <time>2018-05-11T08:20:38Z</time>
      </trkpt>
      <trkpt lat="46.07706" lon="6.21219">
        <ele>943</ele>
        <time>2018-05-11T08:20:39Z</time>
      </trkpt>
      <trkpt lat="46.07706" lon="6.21216">
        <ele>944</ele>
        <time>2018-05-11T08:20:40Z</time>
      </trkpt>
      <trkpt lat="46.07706" lon="6.21206">
        <ele>944</ele>
        <time>2018-05-11T08:20:43Z</time>
      </trkpt>
      <trkpt lat="46.07707" lon="6.212">
        <ele>946</ele>
        <time>2018-05-11T08:20:45Z</time>
      </trkpt>
      <trkpt lat="46.07706" lon="6.21191">
        <ele>949</ele>
        <time>2018-05-11T08:20:47Z</time>
      </trkpt>
      <trkpt lat="46.07706" lon="6.21183">
        <ele>950</ele>
        <time>2018-05-11T08:20:49Z</time>
      </trkpt>
      <trkpt lat="46.07704" lon="6.21176">
        <ele>949</ele>
        <time>2018-05-11T08:20:51Z</time>
      </trkpt>
      <trkpt lat="46.07704" lon="6.21172">
        <ele>949</ele>
        <time>2018-05-11T08:20:52Z</time>
      </trkpt>
      <trkpt lat="46.07703" lon="6.21161">
        <ele>950</ele>
        <time>2018-05-11T08:20:55Z</time>
      </trkpt>
      <trkpt lat="46.07699" lon="6.21141">
        <ele>950</ele>
        <time>2018-05-11T08:21:00Z</time>
      </trkpt>
      <trkpt lat="46.07699" lon="6.21138">
        <ele>950</ele>
        <time>2018-05-11T08:21:01Z</time>
      </trkpt>
      <trkpt lat="46.07696" lon="6.21128">
        <ele>950</ele>
        <time>2018-05-11T08:21:04Z</time>
      </trkpt>
      <trkpt lat="46.07694" lon="6.21121">
        <ele>949</ele>
        <time>2018-05-11T08:21:06Z</time>
      </trkpt>
      <trkpt lat="46.07693" lon="6.21118">
        <ele>949</ele>
        <time>2018-05-11T08:21:07Z</time>
      </trkpt>
      <trkpt lat="46.07693" lon="6.21114">
        <ele>949</ele>
        <time>2018-05-11T08:21:08Z</time>
      </trkpt>
      <trkpt lat="46.07692" lon="6.2111">
        <ele>949</ele>
        <time>2018-05-11T08:21:09Z</time>
      </trkpt>
      <trkpt lat="46.07691" lon="6.21107">
        <ele>950</ele>
        <time>2018-05-11T08:21:10Z</time>
      </trkpt>
      <trkpt lat="46.0769" lon="6.21103">
        <ele>950</ele>
        <time>2018-05-11T08:21:11Z</time>
      </trkpt>
      <trkpt lat="46.07689" lon="6.21096">
        <ele>950</ele>
        <time>2018-05-11T08:21:13Z</time>
      </trkpt>
      <trkpt lat="46.07688" lon="6.21092">
        <ele>949</ele>
        <time>2018-05-11T08:21:14Z</time>
      </trkpt>
      <trkpt lat="46.07687" lon="6.21089">
        <ele>951</ele>
        <time>2018-05-11T08:21:15Z</time>
      </trkpt>
      <trkpt lat="46.07685" lon="6.21081">
        <ele>954</ele>
        <time>2018-05-11T08:21:17Z</time>
      </trkpt>
      <trkpt lat="46.07685" lon="6.21077">
        <ele>956</ele>
        <time>2018-05-11T08:21:18Z</time>
      </trkpt>
      <trkpt lat="46.07684" lon="6.21073">
        <ele>957</ele>
        <time>2018-05-11T08:21:19Z</time>
      </trkpt>
      <trkpt lat="46.07685" lon="6.21062">
        <ele>953</ele>
        <time>2018-05-11T08:21:20Z</time>
      </trkpt>
      <trkpt lat="46.07684" lon="6.21059">
        <ele>955</ele>
        <time>2018-05-11T08:21:22Z</time>
      </trkpt>
      <trkpt lat="46.07684" lon="6.21058">
        <ele>957</ele>
        <time>2018-05-11T08:21:23Z</time>
      </trkpt>
      <trkpt lat="46.07683" lon="6.21055">
        <ele>957</ele>
        <time>2018-05-11T08:21:24Z</time>
      </trkpt>
      <trkpt lat="46.07684" lon="6.21051">
        <ele>958</ele>
        <time>2018-05-11T08:21:26Z</time>
      </trkpt>
      <trkpt lat="46.07685" lon="6.21049">
        <ele>958</ele>
        <time>2018-05-11T08:21:27Z</time>
      </trkpt>
      <trkpt lat="46.07685" lon="6.21047">
        <ele>958</ele>
        <time>2018-05-11T08:21:29Z</time>
      </trkpt>
      <trkpt lat="46.07676" lon="6.21047">
        <ele>960</ele>
        <time>2018-05-11T08:21:34Z</time>
      </trkpt>
      <trkpt lat="46.07662" lon="6.21049">
        <ele>961</ele>
        <time>2018-05-11T08:21:38Z</time>
      </trkpt>
      <trkpt lat="46.07647" lon="6.2105">
        <ele>961</ele>
        <time>2018-05-11T08:21:41Z</time>
      </trkpt>
      <trkpt lat="46.07643" lon="6.21051">
        <ele>962</ele>
        <time>2018-05-11T08:21:43Z</time>
      </trkpt>
      <trkpt lat="46.07632" lon="6.21054">
        <ele>963</ele>
        <time>2018-05-11T08:21:47Z</time>
      </trkpt>
      <trkpt lat="46.07619" lon="6.21055">
        <ele>965</ele>
        <time>2018-05-11T08:21:52Z</time>
      </trkpt>
      <trkpt lat="46.07603" lon="6.21056">
        <ele>964</ele>
        <time>2018-05-11T08:21:57Z</time>
      </trkpt>
      <trkpt lat="46.07579" lon="6.21055">
        <ele>958</ele>
        <time>2018-05-11T08:22:03Z</time>
      </trkpt>
      <trkpt lat="46.07563" lon="6.21054">
        <ele>960</ele>
        <time>2018-05-11T08:22:07Z</time>
      </trkpt>
      <trkpt lat="46.0754" lon="6.21055">
        <ele>961</ele>
        <time>2018-05-11T08:22:13Z</time>
      </trkpt>
      <trkpt lat="46.07527" lon="6.21056">
        <ele>964</ele>
        <time>2018-05-11T08:22:16Z</time>
      </trkpt>
      <trkpt lat="46.07505" lon="6.21061">
        <ele>966</ele>
        <time>2018-05-11T08:22:21Z</time>
      </trkpt>
      <trkpt lat="46.075" lon="6.21061">
        <ele>966</ele>
        <time>2018-05-11T08:22:22Z</time>
      </trkpt>
      <trkpt lat="46.07487" lon="6.21062">
        <ele>968</ele>
        <time>2018-05-11T08:22:26Z</time>
      </trkpt>
      <trkpt lat="46.07469" lon="6.21063">
        <ele>959</ele>
        <time>2018-05-11T08:22:31Z</time>
      </trkpt>
      <trkpt lat="46.07453" lon="6.21063">
        <ele>963</ele>
        <time>2018-05-11T08:22:34Z</time>
      </trkpt>
      <trkpt lat="46.07448" lon="6.21063">
        <ele>963</ele>
        <time>2018-05-11T08:22:35Z</time>
      </trkpt>
      <trkpt lat="46.07434" lon="6.21056">
        <ele>964</ele>
        <time>2018-05-11T08:22:38Z</time>
      </trkpt>
      <trkpt lat="46.07431" lon="6.21055">
        <ele>964</ele>
        <time>2018-05-11T08:22:39Z</time>
      </trkpt>
      <trkpt lat="46.0743" lon="6.21053">
        <ele>963</ele>
        <time>2018-05-11T08:22:40Z</time>
      </trkpt>
      <trkpt lat="46.07421" lon="6.21047">
        <ele>964</ele>
        <time>2018-05-11T08:22:43Z</time>
      </trkpt>
      <trkpt lat="46.07419" lon="6.21044">
        <ele>965</ele>
        <time>2018-05-11T08:22:45Z</time>
      </trkpt>
      <trkpt lat="46.07412" lon="6.21038">
        <ele>966</ele>
        <time>2018-05-11T08:22:48Z</time>
      </trkpt>
      <trkpt lat="46.07399" lon="6.21026">
        <ele>962</ele>
        <time>2018-05-11T08:22:53Z</time>
      </trkpt>
      <trkpt lat="46.07386" lon="6.21015">
        <ele>961</ele>
        <time>2018-05-11T08:22:55Z</time>
      </trkpt>
      <trkpt lat="46.07382" lon="6.21012">
        <ele>961</ele>
        <time>2018-05-11T08:22:56Z</time>
      </trkpt>
      <trkpt lat="46.07378" lon="6.21008">
        <ele>962</ele>
        <time>2018-05-11T08:22:57Z</time>
      </trkpt>
      <trkpt lat="46.07372" lon="6.21003">
        <ele>962</ele>
        <time>2018-05-11T08:23:00Z</time>
      </trkpt>
      <trkpt lat="46.07359" lon="6.20997">
        <ele>962</ele>
        <time>2018-05-11T08:23:04Z</time>
      </trkpt>
      <trkpt lat="46.07348" lon="6.20994">
        <ele>962</ele>
        <time>2018-05-11T08:23:05Z</time>
      </trkpt>
      <trkpt lat="46.07345" lon="6.2099">
        <ele>963</ele>
        <time>2018-05-11T08:23:06Z</time>
      </trkpt>
      <trkpt lat="46.07333" lon="6.20983">
        <ele>963</ele>
        <time>2018-05-11T08:23:10Z</time>
      </trkpt>
      <trkpt lat="46.0733" lon="6.20982">
        <ele>964</ele>
        <time>2018-05-11T08:23:11Z</time>
      </trkpt>
      <trkpt lat="46.07319" lon="6.2097">
        <ele>967</ele>
        <time>2018-05-11T08:23:16Z</time>
      </trkpt>
      <trkpt lat="46.07314" lon="6.20964">
        <ele>966</ele>
        <time>2018-05-11T08:23:18Z</time>
      </trkpt>
      <trkpt lat="46.07309" lon="6.20959">
        <ele>967</ele>
        <time>2018-05-11T08:23:20Z</time>
      </trkpt>
      <trkpt lat="46.073" lon="6.20953">
        <ele>968</ele>
        <time>2018-05-11T08:23:23Z</time>
      </trkpt>
      <trkpt lat="46.07283" lon="6.20944">
        <ele>968</ele>
        <time>2018-05-11T08:23:28Z</time>
      </trkpt>
      <trkpt lat="46.07268" lon="6.20935">
        <ele>970</ele>
        <time>2018-05-11T08:23:33Z</time>
      </trkpt>
      <trkpt lat="46.07266" lon="6.20933">
        <ele>970</ele>
        <time>2018-05-11T08:23:34Z</time>
      </trkpt>
      <trkpt lat="46.07252" lon="6.20929">
        <ele>971</ele>
        <time>2018-05-11T08:23:38Z</time>
      </trkpt>
      <trkpt lat="46.07235" lon="6.20924">
        <ele>973</ele>
        <time>2018-05-11T08:23:43Z</time>
      </trkpt>
      <trkpt lat="46.07221" lon="6.20916">
        <ele>974</ele>
        <time>2018-05-11T08:23:46Z</time>
      </trkpt>
      <trkpt lat="46.07216" lon="6.20914">
        <ele>973</ele>
        <time>2018-05-11T08:23:47Z</time>
      </trkpt>
      <trkpt lat="46.07213" lon="6.20912">
        <ele>974</ele>
        <time>2018-05-11T08:23:48Z</time>
      </trkpt>
      <trkpt lat="46.07199" lon="6.20905">
        <ele>973</ele>
        <time>2018-05-11T08:23:53Z</time>
      </trkpt>
      <trkpt lat="46.07193" lon="6.20901">
        <ele>974</ele>
        <time>2018-05-11T08:23:54Z</time>
      </trkpt>
      <trkpt lat="46.07182" lon="6.20896">
        <ele>976</ele>
        <time>2018-05-11T08:23:57Z</time>
      </trkpt>
      <trkpt lat="46.07178" lon="6.20894">
        <ele>976</ele>
        <time>2018-05-11T08:23:58Z</time>
      </trkpt>
      <trkpt lat="46.07173" lon="6.20889">
        <ele>978</ele>
        <time>2018-05-11T08:24:00Z</time>
      </trkpt>
      <trkpt lat="46.07172" lon="6.20887">
        <ele>978</ele>
        <time>2018-05-11T08:24:01Z</time>
      </trkpt>
      <trkpt lat="46.07169" lon="6.20883">
        <ele>979</ele>
        <time>2018-05-11T08:24:03Z</time>
      </trkpt>
      <trkpt lat="46.07157" lon="6.20874">
        <ele>978</ele>
        <time>2018-05-11T08:24:05Z</time>
      </trkpt>
      <trkpt lat="46.07149" lon="6.20867">
        <ele>976</ele>
        <time>2018-05-11T08:24:07Z</time>
      </trkpt>
      <trkpt lat="46.07134" lon="6.20855">
        <ele>976</ele>
        <time>2018-05-11T08:24:10Z</time>
      </trkpt>
      <trkpt lat="46.07119" lon="6.20837">
        <ele>976</ele>
        <time>2018-05-11T08:24:13Z</time>
      </trkpt>
      <trkpt lat="46.07102" lon="6.20823">
        <ele>975</ele>
        <time>2018-05-11T08:24:16Z</time>
      </trkpt>
      <trkpt lat="46.07093" lon="6.20814">
        <ele>974</ele>
        <time>2018-05-11T08:24:18Z</time>
      </trkpt>
      <trkpt lat="46.07078" lon="6.20802">
        <ele>976</ele>
        <time>2018-05-11T08:24:21Z</time>
      </trkpt>
      <trkpt lat="46.07061" lon="6.2079">
        <ele>973</ele>
        <time>2018-05-11T08:24:24Z</time>
      </trkpt>
      <trkpt lat="46.07045" lon="6.20781">
        <ele>973</ele>
        <time>2018-05-11T08:24:27Z</time>
      </trkpt>
      <trkpt lat="46.07028" lon="6.20775">
        <ele>970</ele>
        <time>2018-05-11T08:24:30Z</time>
      </trkpt>
      <trkpt lat="46.06972" lon="6.20775">
        <ele>976</ele>
        <time>2018-05-11T08:24:40Z</time>
      </trkpt>
      <trkpt lat="46.06956" lon="6.20779">
        <ele>977</ele>
        <time>2018-05-11T08:24:43Z</time>
      </trkpt>
      <trkpt lat="46.06946" lon="6.20783">
        <ele>978</ele>
        <time>2018-05-11T08:24:45Z</time>
      </trkpt>
      <trkpt lat="46.06941" lon="6.20785">
        <ele>978</ele>
        <time>2018-05-11T08:24:46Z</time>
      </trkpt>
      <trkpt lat="46.06936" lon="6.20786">
        <ele>978</ele>
        <time>2018-05-11T08:24:47Z</time>
      </trkpt>
      <trkpt lat="46.06922" lon="6.20796">
        <ele>979</ele>
        <time>2018-05-11T08:24:50Z</time>
      </trkpt>
      <trkpt lat="46.06917" lon="6.208">
        <ele>979</ele>
        <time>2018-05-11T08:24:51Z</time>
      </trkpt>
      <trkpt lat="46.06904" lon="6.20814">
        <ele>979</ele>
        <time>2018-05-11T08:24:54Z</time>
      </trkpt>
      <trkpt lat="46.06891" lon="6.20833">
        <ele>979</ele>
        <time>2018-05-11T08:24:57Z</time>
      </trkpt>
      <trkpt lat="46.06883" lon="6.20846">
        <ele>979</ele>
        <time>2018-05-11T08:24:59Z</time>
      </trkpt>
      <trkpt lat="46.06861" lon="6.20879">
        <ele>978</ele>
        <time>2018-05-11T08:25:04Z</time>
      </trkpt>
      <trkpt lat="46.06844" lon="6.20903">
        <ele>978</ele>
        <time>2018-05-11T08:25:08Z</time>
      </trkpt>
      <trkpt lat="46.0683" lon="6.20921">
        <ele>975</ele>
        <time>2018-05-11T08:25:11Z</time>
      </trkpt>
      <trkpt lat="46.06825" lon="6.20928">
        <ele>975</ele>
        <time>2018-05-11T08:25:12Z</time>
      </trkpt>
      <trkpt lat="46.06815" lon="6.20939">
        <ele>975</ele>
        <time>2018-05-11T08:25:14Z</time>
      </trkpt>
      <trkpt lat="46.06799" lon="6.20952">
        <ele>978</ele>
        <time>2018-05-11T08:25:17Z</time>
      </trkpt>
      <trkpt lat="46.06793" lon="6.20959">
        <ele>978</ele>
        <time>2018-05-11T08:25:18Z</time>
      </trkpt>
      <trkpt lat="46.06786" lon="6.20964">
        <ele>977</ele>
        <time>2018-05-11T08:25:19Z</time>
      </trkpt>
      <trkpt lat="46.06767" lon="6.20977">
        <ele>976</ele>
        <time>2018-05-11T08:25:22Z</time>
      </trkpt>
      <trkpt lat="46.06755" lon="6.20982">
        <ele>973</ele>
        <time>2018-05-11T08:25:24Z</time>
      </trkpt>
      <trkpt lat="46.06734" lon="6.20992">
        <ele>972</ele>
        <time>2018-05-11T08:25:27Z</time>
      </trkpt>
      <trkpt lat="46.06706" lon="6.21004">
        <ele>974</ele>
        <time>2018-05-11T08:25:31Z</time>
      </trkpt>
      <trkpt lat="46.06699" lon="6.21008">
        <ele>974</ele>
        <time>2018-05-11T08:25:32Z</time>
      </trkpt>
      <trkpt lat="46.06686" lon="6.21019">
        <ele>974</ele>
        <time>2018-05-11T08:25:34Z</time>
      </trkpt>
      <trkpt lat="46.06674" lon="6.21034">
        <ele>973</ele>
        <time>2018-05-11T08:25:36Z</time>
      </trkpt>
      <trkpt lat="46.06669" lon="6.2104">
        <ele>974</ele>
        <time>2018-05-11T08:25:37Z</time>
      </trkpt>
      <trkpt lat="46.0666" lon="6.21058">
        <ele>973</ele>
        <time>2018-05-11T08:25:39Z</time>
      </trkpt>
      <trkpt lat="46.06654" lon="6.21078">
        <ele>972</ele>
        <time>2018-05-11T08:25:41Z</time>
      </trkpt>
      <trkpt lat="46.0665" lon="6.211">
        <ele>971</ele>
        <time>2018-05-11T08:25:43Z</time>
      </trkpt>
      <trkpt lat="46.06649" lon="6.21122">
        <ele>968</ele>
        <time>2018-05-11T08:25:45Z</time>
      </trkpt>
      <trkpt lat="46.0665" lon="6.21146">
        <ele>966</ele>
        <time>2018-05-11T08:25:47Z</time>
      </trkpt>
      <trkpt lat="46.06651" lon="6.2117">
        <ele>965</ele>
        <time>2018-05-11T08:25:49Z</time>
      </trkpt>
      <trkpt lat="46.06651" lon="6.21194">
        <ele>965</ele>
        <time>2018-05-11T08:25:51Z</time>
      </trkpt>
      <trkpt lat="46.06649" lon="6.21206">
        <ele>965</ele>
        <time>2018-05-11T08:25:52Z</time>
      </trkpt>
      <trkpt lat="46.06638" lon="6.21224">
        <ele>964</ele>
        <time>2018-05-11T08:25:54Z</time>
      </trkpt>
      <trkpt lat="46.06626" lon="6.21237">
        <ele>964</ele>
        <time>2018-05-11T08:25:56Z</time>
      </trkpt>
      <trkpt lat="46.06584" lon="6.21237">
        <ele>963</ele>
        <time>2018-05-11T08:26:02Z</time>
      </trkpt>
      <trkpt lat="46.06578" lon="6.21235">
        <ele>964</ele>
        <time>2018-05-11T08:26:03Z</time>
      </trkpt>
      <trkpt lat="46.06564" lon="6.21235">
        <ele>965</ele>
        <time>2018-05-11T08:26:05Z</time>
      </trkpt>
      <trkpt lat="46.06551" lon="6.21237">
        <ele>965</ele>
        <time>2018-05-11T08:26:07Z</time>
      </trkpt>
      <trkpt lat="46.06545" lon="6.21238">
        <ele>965</ele>
        <time>2018-05-11T08:26:08Z</time>
      </trkpt>
      <trkpt lat="46.06532" lon="6.21244">
        <ele>964</ele>
        <time>2018-05-11T08:26:10Z</time>
      </trkpt>
      <trkpt lat="46.06495" lon="6.21243">
        <ele>965</ele>
        <time>2018-05-11T08:26:16Z</time>
      </trkpt>
      <trkpt lat="46.0649" lon="6.21239">
        <ele>966</ele>
        <time>2018-05-11T08:26:17Z</time>
      </trkpt>
      <trkpt lat="46.06484" lon="6.21237">
        <ele>966</ele>
        <time>2018-05-11T08:26:18Z</time>
      </trkpt>
      <trkpt lat="46.06479" lon="6.21231">
        <ele>965</ele>
        <time>2018-05-11T08:26:19Z</time>
      </trkpt>
      <trkpt lat="46.06461" lon="6.21218">
        <ele>964</ele>
        <time>2018-05-11T08:26:22Z</time>
      </trkpt>
      <trkpt lat="46.06455" lon="6.21214">
        <ele>964</ele>
        <time>2018-05-11T08:26:23Z</time>
      </trkpt>
      <trkpt lat="46.06441" lon="6.21202">
        <ele>966</ele>
        <time>2018-05-11T08:26:26Z</time>
      </trkpt>
      <trkpt lat="46.06429" lon="6.21193">
        <ele>966</ele>
        <time>2018-05-11T08:26:28Z</time>
      </trkpt>
      <trkpt lat="46.06406" lon="6.21176">
        <ele>967</ele>
        <time>2018-05-11T08:26:32Z</time>
      </trkpt>
      <trkpt lat="46.06383" lon="6.21157">
        <ele>966</ele>
        <time>2018-05-11T08:26:36Z</time>
      </trkpt>
      <trkpt lat="46.06354" lon="6.21137">
        <ele>967</ele>
        <time>2018-05-11T08:26:41Z</time>
      </trkpt>
      <trkpt lat="46.06336" lon="6.21124">
        <ele>967</ele>
        <time>2018-05-11T08:26:44Z</time>
      </trkpt>
      <trkpt lat="46.06318" lon="6.2111">
        <ele>968</ele>
        <time>2018-05-11T08:26:47Z</time>
      </trkpt>
      <trkpt lat="46.06295" lon="6.21092">
        <ele>969</ele>
        <time>2018-05-11T08:26:51Z</time>
      </trkpt>
      <trkpt lat="46.06267" lon="6.21071">
        <ele>967</ele>
        <time>2018-05-11T08:26:56Z</time>
      </trkpt>
      <trkpt lat="46.0625" lon="6.21057">
        <ele>967</ele>
        <time>2018-05-11T08:26:59Z</time>
      </trkpt>
      <trkpt lat="46.06239" lon="6.21047">
        <ele>967</ele>
        <time>2018-05-11T08:27:01Z</time>
      </trkpt>
      <trkpt lat="46.0623" lon="6.21034">
        <ele>967</ele>
        <time>2018-05-11T08:27:03Z</time>
      </trkpt>
      <trkpt lat="46.0622" lon="6.21014">
        <ele>967</ele>
        <time>2018-05-11T08:27:06Z</time>
      </trkpt>
      <trkpt lat="46.06212" lon="6.20999">
        <ele>967</ele>
        <time>2018-05-11T08:27:08Z</time>
      </trkpt>
      <trkpt lat="46.06211" lon="6.20991">
        <ele>967</ele>
        <time>2018-05-11T08:27:09Z</time>
      </trkpt>
      <trkpt lat="46.06207" lon="6.20984">
        <ele>967</ele>
        <time>2018-05-11T08:27:10Z</time>
      </trkpt>
      <trkpt lat="46.06199" lon="6.2096">
        <ele>967</ele>
        <time>2018-05-11T08:27:13Z</time>
      </trkpt>
      <trkpt lat="46.0619" lon="6.2094">
        <ele>968</ele>
        <time>2018-05-11T08:27:16Z</time>
      </trkpt>
      <trkpt lat="46.06187" lon="6.20933">
        <ele>968</ele>
        <time>2018-05-11T08:27:17Z</time>
      </trkpt>
      <trkpt lat="46.06176" lon="6.20903">
        <ele>967</ele>
        <time>2018-05-11T08:27:21Z</time>
      </trkpt>
      <trkpt lat="46.0617" lon="6.20888">
        <ele>966</ele>
        <time>2018-05-11T08:27:23Z</time>
      </trkpt>
      <trkpt lat="46.06167" lon="6.20882">
        <ele>967</ele>
        <time>2018-05-11T08:27:24Z</time>
      </trkpt>
      <trkpt lat="46.06165" lon="6.20874">
        <ele>967</ele>
        <time>2018-05-11T08:27:25Z</time>
      </trkpt>
      <trkpt lat="46.06157" lon="6.20854">
        <ele>968</ele>
        <time>2018-05-11T08:27:28Z</time>
      </trkpt>
      <trkpt lat="46.0615" lon="6.20839">
        <ele>967</ele>
        <time>2018-05-11T08:27:30Z</time>
      </trkpt>
      <trkpt lat="46.06137" lon="6.20813">
        <ele>968</ele>
        <time>2018-05-11T08:27:34Z</time>
      </trkpt>
      <trkpt lat="46.06125" lon="6.20789">
        <ele>965</ele>
        <time>2018-05-11T08:27:38Z</time>
      </trkpt>
      <trkpt lat="46.06121" lon="6.20782">
        <ele>965</ele>
        <time>2018-05-11T08:27:39Z</time>
      </trkpt>
      <trkpt lat="46.06118" lon="6.20772">
        <ele>966</ele>
        <time>2018-05-11T08:27:40Z</time>
      </trkpt>
      <trkpt lat="46.06114" lon="6.20765">
        <ele>966</ele>
        <time>2018-05-11T08:27:41Z</time>
      </trkpt>
      <trkpt lat="46.06113" lon="6.20754">
        <ele>967</ele>
        <time>2018-05-11T08:27:42Z</time>
      </trkpt>
      <trkpt lat="46.061" lon="6.20747">
        <ele>968</ele>
        <time>2018-05-11T08:27:44Z</time>
      </trkpt>
      <trkpt lat="46.06095" lon="6.20743">
        <ele>968</ele>
        <time>2018-05-11T08:27:45Z</time>
      </trkpt>
      <trkpt lat="46.06088" lon="6.20732">
        <ele>967</ele>
        <time>2018-05-11T08:27:47Z</time>
      </trkpt>
      <trkpt lat="46.06081" lon="6.20729">
        <ele>967</ele>
        <time>2018-05-11T08:27:48Z</time>
      </trkpt>
      <trkpt lat="46.06076" lon="6.20725">
        <ele>968</ele>
        <time>2018-05-11T08:27:49Z</time>
      </trkpt>
      <trkpt lat="46.06046" lon="6.20724">
        <ele>970</ele>
        <time>2018-05-11T08:27:54Z</time>
      </trkpt>
      <trkpt lat="46.06034" lon="6.20725">
        <ele>970</ele>
        <time>2018-05-11T08:27:56Z</time>
      </trkpt>
      <trkpt lat="46.06011" lon="6.20732">
        <ele>970</ele>
        <time>2018-05-11T08:28:00Z</time>
      </trkpt>
      <trkpt lat="46.05991" lon="6.20737">
        <ele>971</ele>
        <time>2018-05-11T08:28:03Z</time>
      </trkpt>
      <trkpt lat="46.05985" lon="6.20739">
        <ele>971</ele>
        <time>2018-05-11T08:28:04Z</time>
      </trkpt>
      <trkpt lat="46.05979" lon="6.20743">
        <ele>970</ele>
        <time>2018-05-11T08:28:05Z</time>
      </trkpt>
      <trkpt lat="46.05965" lon="6.20748">
        <ele>970</ele>
        <time>2018-05-11T08:28:07Z</time>
      </trkpt>
      <trkpt lat="46.05952" lon="6.20754">
        <ele>969</ele>
        <time>2018-05-11T08:28:09Z</time>
      </trkpt>
      <trkpt lat="46.05938" lon="6.20762">
        <ele>968</ele>
        <time>2018-05-11T08:28:11Z</time>
      </trkpt>
      <trkpt lat="46.05919" lon="6.20773">
        <ele>969</ele>
        <time>2018-05-11T08:28:14Z</time>
      </trkpt>
      <trkpt lat="46.05904" lon="6.2078">
        <ele>969</ele>
        <time>2018-05-11T08:28:16Z</time>
      </trkpt>
      <trkpt lat="46.05889" lon="6.20785">
        <ele>970</ele>
        <time>2018-05-11T08:28:18Z</time>
      </trkpt>
      <trkpt lat="46.05875" lon="6.20787">
        <ele>969</ele>
        <time>2018-05-11T08:28:20Z</time>
      </trkpt>
      <trkpt lat="46.05854" lon="6.20789">
        <ele>969</ele>
        <time>2018-05-11T08:28:23Z</time>
      </trkpt>
      <trkpt lat="46.05826" lon="6.2079">
        <ele>969</ele>
        <time>2018-05-11T08:28:27Z</time>
      </trkpt>
      <trkpt lat="46.05811" lon="6.20793">
        <ele>969</ele>
        <time>2018-05-11T08:28:29Z</time>
      </trkpt>
      <trkpt lat="46.05796" lon="6.20799">
        <ele>969</ele>
        <time>2018-05-11T08:28:31Z</time>
      </trkpt>
      <trkpt lat="46.0579" lon="6.20803">
        <ele>969</ele>
        <time>2018-05-11T08:28:32Z</time>
      </trkpt>
      <trkpt lat="46.05775" lon="6.2081">
        <ele>968</ele>
        <time>2018-05-11T08:28:34Z</time>
      </trkpt>
      <trkpt lat="46.05762" lon="6.20819">
        <ele>968</ele>
        <time>2018-05-11T08:28:36Z</time>
      </trkpt>
      <trkpt lat="46.05755" lon="6.20825">
        <ele>966</ele>
        <time>2018-05-11T08:28:37Z</time>
      </trkpt>
      <trkpt lat="46.05739" lon="6.20833">
        <ele>967</ele>
        <time>2018-05-11T08:28:39Z</time>
      </trkpt>
      <trkpt lat="46.05731" lon="6.20837">
        <ele>968</ele>
        <time>2018-05-11T08:28:40Z</time>
      </trkpt>
      <trkpt lat="46.05713" lon="6.2084">
        <ele>967</ele>
        <time>2018-05-11T08:28:42Z</time>
      </trkpt>
      <trkpt lat="46.05681" lon="6.2084">
        <ele>968</ele>
        <time>2018-05-11T08:28:46Z</time>
      </trkpt>
      <trkpt lat="46.05672" lon="6.20842">
        <ele>967</ele>
        <time>2018-05-11T08:28:47Z</time>
      </trkpt>
      <trkpt lat="46.05664" lon="6.20846">
        <ele>967</ele>
        <time>2018-05-11T08:28:48Z</time>
      </trkpt>
      <trkpt lat="46.05655" lon="6.20848">
        <ele>966</ele>
        <time>2018-05-11T08:28:49Z</time>
      </trkpt>
      <trkpt lat="46.05639" lon="6.20855">
        <ele>965</ele>
        <time>2018-05-11T08:28:51Z</time>
      </trkpt>
      <trkpt lat="46.05624" lon="6.20866">
        <ele>964</ele>
        <time>2018-05-11T08:28:53Z</time>
      </trkpt>
      <trkpt lat="46.05616" lon="6.20871">
        <ele>964</ele>
        <time>2018-05-11T08:28:54Z</time>
      </trkpt>
      <trkpt lat="46.056" lon="6.20893">
        <ele>963</ele>
        <time>2018-05-11T08:28:56Z</time>
      </trkpt>
      <trkpt lat="46.05584" lon="6.20911">
        <ele>960</ele>
        <time>2018-05-11T08:28:58Z</time>
      </trkpt>
      <trkpt lat="46.05575" lon="6.2092">
        <ele>959</ele>
        <time>2018-05-11T08:28:59Z</time>
      </trkpt>
      <trkpt lat="46.0557" lon="6.20928">
        <ele>960</ele>
        <time>2018-05-11T08:29:00Z</time>
      </trkpt>
      <trkpt lat="46.05553" lon="6.20946">
        <ele>960</ele>
        <time>2018-05-11T08:29:02Z</time>
      </trkpt>
      <trkpt lat="46.05531" lon="6.20953">
        <ele>960</ele>
        <time>2018-05-11T08:29:04Z</time>
      </trkpt>
      <trkpt lat="46.05493" lon="6.20935">
        <ele>955</ele>
        <time>2018-05-11T08:29:07Z</time>
      </trkpt>
      <trkpt lat="46.05461" lon="6.2092">
        <ele>952</ele>
        <time>2018-05-11T08:29:10Z</time>
      </trkpt>
      <trkpt lat="46.05441" lon="6.20913">
        <ele>951</ele>
        <time>2018-05-11T08:29:12Z</time>
      </trkpt>
      <trkpt lat="46.05419" lon="6.20905">
        <ele>949</ele>
        <time>2018-05-11T08:29:14Z</time>
      </trkpt>
      <trkpt lat="46.05397" lon="6.209">
        <ele>945</ele>
        <time>2018-05-11T08:29:16Z</time>
      </trkpt>
      <trkpt lat="46.0539" lon="6.20897">
        <ele>944</ele>
        <time>2018-05-11T08:29:17Z</time>
      </trkpt>
      <trkpt lat="46.05373" lon="6.20896">
        <ele>944</ele>
        <time>2018-05-11T08:29:19Z</time>
      </trkpt>
      <trkpt lat="46.05365" lon="6.20896">
        <ele>944</ele>
        <time>2018-05-11T08:29:20Z</time>
      </trkpt>
      <trkpt lat="46.05357" lon="6.20894">
        <ele>944</ele>
        <time>2018-05-11T08:29:21Z</time>
      </trkpt>
      <trkpt lat="46.05342" lon="6.20885">
        <ele>943</ele>
        <time>2018-05-11T08:29:23Z</time>
      </trkpt>
      <trkpt lat="46.05331" lon="6.20873">
        <ele>944</ele>
        <time>2018-05-11T08:29:25Z</time>
      </trkpt>
      <trkpt lat="46.05317" lon="6.20856">
        <ele>941</ele>
        <time>2018-05-11T08:29:28Z</time>
      </trkpt>
      <trkpt lat="46.05304" lon="6.20837">
        <ele>943</ele>
        <time>2018-05-11T08:29:31Z</time>
      </trkpt>
      <trkpt lat="46.05301" lon="6.20831">
        <ele>942</ele>
        <time>2018-05-11T08:29:32Z</time>
      </trkpt>
      <trkpt lat="46.05297" lon="6.20825">
        <ele>943</ele>
        <time>2018-05-11T08:29:33Z</time>
      </trkpt>
      <trkpt lat="46.05287" lon="6.20808">
        <ele>944</ele>
        <time>2018-05-11T08:29:36Z</time>
      </trkpt>
      <trkpt lat="46.05283" lon="6.20801">
        <ele>944</ele>
        <time>2018-05-11T08:29:37Z</time>
      </trkpt>
      <trkpt lat="46.05275" lon="6.20783">
        <ele>942</ele>
        <time>2018-05-11T08:29:40Z</time>
      </trkpt>
      <trkpt lat="46.05262" lon="6.20748">
        <ele>943</ele>
        <time>2018-05-11T08:29:45Z</time>
      </trkpt>
      <trkpt lat="46.05253" lon="6.20722">
        <ele>943</ele>
        <time>2018-05-11T08:29:49Z</time>
      </trkpt>
      <trkpt lat="46.05245" lon="6.207">
        <ele>943</ele>
        <time>2018-05-11T08:29:52Z</time>
      </trkpt>
      <trkpt lat="46.05238" lon="6.20678">
        <ele>944</ele>
        <time>2018-05-11T08:29:55Z</time>
      </trkpt>
      <trkpt lat="46.05234" lon="6.20671">
        <ele>944</ele>
        <time>2018-05-11T08:29:56Z</time>
      </trkpt>
      <trkpt lat="46.0523" lon="6.20658">
        <ele>944</ele>
        <time>2018-05-11T08:29:58Z</time>
      </trkpt>
      <trkpt lat="46.05225" lon="6.20645">
        <ele>944</ele>
        <time>2018-05-11T08:30:00Z</time>
      </trkpt>
      <trkpt lat="46.05223" lon="6.20637">
        <ele>944</ele>
        <time>2018-05-11T08:30:01Z</time>
      </trkpt>
      <trkpt lat="46.05214" lon="6.20615">
        <ele>945</ele>
        <time>2018-05-11T08:30:04Z</time>
      </trkpt>
      <trkpt lat="46.05205" lon="6.20589">
        <ele>944</ele>
        <time>2018-05-11T08:30:08Z</time>
      </trkpt>
      <trkpt lat="46.05198" lon="6.20566">
        <ele>945</ele>
        <time>2018-05-11T08:30:11Z</time>
      </trkpt>
      <trkpt lat="46.05191" lon="6.20548">
        <ele>944</ele>
        <time>2018-05-11T08:30:14Z</time>
      </trkpt>
      <trkpt lat="46.05184" lon="6.20528">
        <ele>945</ele>
        <time>2018-05-11T08:30:17Z</time>
      </trkpt>
      <trkpt lat="46.05179" lon="6.20514">
        <ele>945</ele>
        <time>2018-05-11T08:30:19Z</time>
      </trkpt>
      <trkpt lat="46.05175" lon="6.205">
        <ele>943</ele>
        <time>2018-05-11T08:30:21Z</time>
      </trkpt>
      <trkpt lat="46.05168" lon="6.20479">
        <ele>945</ele>
        <time>2018-05-11T08:30:24Z</time>
      </trkpt>
      <trkpt lat="46.05166" lon="6.20465">
        <ele>945</ele>
        <time>2018-05-11T08:30:26Z</time>
      </trkpt>
      <trkpt lat="46.05163" lon="6.20457">
        <ele>943</ele>
        <time>2018-05-11T08:30:27Z</time>
      </trkpt>
      <trkpt lat="46.0516" lon="6.20435">
        <ele>943</ele>
        <time>2018-05-11T08:30:30Z</time>
      </trkpt>
      <trkpt lat="46.05158" lon="6.20419">
        <ele>943</ele>
        <time>2018-05-11T08:30:32Z</time>
      </trkpt>
      <trkpt lat="46.05157" lon="6.2041">
        <ele>943</ele>
        <time>2018-05-11T08:30:33Z</time>
      </trkpt>
      <trkpt lat="46.05153" lon="6.20385">
        <ele>945</ele>
        <time>2018-05-11T08:30:36Z</time>
      </trkpt>
      <trkpt lat="46.0515" lon="6.20367">
        <ele>945</ele>
        <time>2018-05-11T08:30:38Z</time>
      </trkpt>
      <trkpt lat="46.05148" lon="6.20339">
        <ele>947</ele>
        <time>2018-05-11T08:30:41Z</time>
      </trkpt>
      <trkpt lat="46.05142" lon="6.20297">
        <ele>945</ele>
        <time>2018-05-11T08:30:46Z</time>
      </trkpt>
      <trkpt lat="46.05137" lon="6.2025">
        <ele>945</ele>
        <time>2018-05-11T08:30:51Z</time>
      </trkpt>
      <trkpt lat="46.05133" lon="6.20204">
        <ele>945</ele>
        <time>2018-05-11T08:30:56Z</time>
      </trkpt>
      <trkpt lat="46.05131" lon="6.20174">
        <ele>945</ele>
        <time>2018-05-11T08:30:59Z</time>
      </trkpt>
      <trkpt lat="46.0513" lon="6.20164">
        <ele>945</ele>
        <time>2018-05-11T08:31:00Z</time>
      </trkpt>
      <trkpt lat="46.05132" lon="6.20136">
        <ele>945</ele>
        <time>2018-05-11T08:31:03Z</time>
      </trkpt>
      <trkpt lat="46.05135" lon="6.20118">
        <ele>943</ele>
        <time>2018-05-11T08:31:05Z</time>
      </trkpt>
      <trkpt lat="46.05139" lon="6.20098">
        <ele>943</ele>
        <time>2018-05-11T08:31:07Z</time>
      </trkpt>
      <trkpt lat="46.05143" lon="6.20079">
        <ele>943</ele>
        <time>2018-05-11T08:31:09Z</time>
      </trkpt>
      <trkpt lat="46.05145" lon="6.20069">
        <ele>943</ele>
        <time>2018-05-11T08:31:10Z</time>
      </trkpt>
      <trkpt lat="46.05147" lon="6.20049">
        <ele>943</ele>
        <time>2018-05-11T08:31:12Z</time>
      </trkpt>
      <trkpt lat="46.05149" lon="6.2004">
        <ele>944</ele>
        <time>2018-05-11T08:31:13Z</time>
      </trkpt>
      <trkpt lat="46.05151" lon="6.2002">
        <ele>943</ele>
        <time>2018-05-11T08:31:15Z</time>
      </trkpt>
      <trkpt lat="46.05149" lon="6.2">
        <ele>943</ele>
        <time>2018-05-11T08:31:17Z</time>
      </trkpt>
      <trkpt lat="46.05145" lon="6.19978">
        <ele>944</ele>
        <time>2018-05-11T08:31:19Z</time>
      </trkpt>
      <trkpt lat="46.0514" lon="6.19958">
        <ele>942</ele>
        <time>2018-05-11T08:31:21Z</time>
      </trkpt>
      <trkpt lat="46.05131" lon="6.19918">
        <ele>941</ele>
        <time>2018-05-11T08:31:25Z</time>
      </trkpt>
      <trkpt lat="46.05127" lon="6.19899">
        <ele>940</ele>
        <time>2018-05-11T08:31:27Z</time>
      </trkpt>
      <trkpt lat="46.0512" lon="6.1988">
        <ele>938</ele>
        <time>2018-05-11T08:31:29Z</time>
      </trkpt>
      <trkpt lat="46.05112" lon="6.19861">
        <ele>938</ele>
        <time>2018-05-11T08:31:31Z</time>
      </trkpt>
      <trkpt lat="46.05103" lon="6.19842">
        <ele>938</ele>
        <time>2018-05-11T08:31:33Z</time>
      </trkpt>
      <trkpt lat="46.05097" lon="6.19821">
        <ele>936</ele>
        <time>2018-05-11T08:31:35Z</time>
      </trkpt>
      <trkpt lat="46.05088" lon="6.19804">
        <ele>935</ele>
        <time>2018-05-11T08:31:37Z</time>
      </trkpt>
      <trkpt lat="46.05084" lon="6.19795">
        <ele>934</ele>
        <time>2018-05-11T08:31:38Z</time>
      </trkpt>
      <trkpt lat="46.05076" lon="6.19776">
        <ele>934</ele>
        <time>2018-05-11T08:31:40Z</time>
      </trkpt>
      <trkpt lat="46.05069" lon="6.19757">
        <ele>933</ele>
        <time>2018-05-11T08:31:42Z</time>
      </trkpt>
      <trkpt lat="46.05063" lon="6.19735">
        <ele>933</ele>
        <time>2018-05-11T08:31:44Z</time>
      </trkpt>
      <trkpt lat="46.05058" lon="6.19712">
        <ele>932</ele>
        <time>2018-05-11T08:31:46Z</time>
      </trkpt>
      <trkpt lat="46.05053" lon="6.19676">
        <ele>932</ele>
        <time>2018-05-11T08:31:49Z</time>
      </trkpt>
      <trkpt lat="46.05045" lon="6.19623">
        <ele>931</ele>
        <time>2018-05-11T08:31:53Z</time>
      </trkpt>
      <trkpt lat="46.05042" lon="6.1961">
        <ele>931</ele>
        <time>2018-05-11T08:31:54Z</time>
      </trkpt>
      <trkpt lat="46.05035" lon="6.19584">
        <ele>932</ele>
        <time>2018-05-11T08:31:56Z</time>
      </trkpt>
      <trkpt lat="46.05026" lon="6.19558">
        <ele>931</ele>
        <time>2018-05-11T08:31:58Z</time>
      </trkpt>
      <trkpt lat="46.05017" lon="6.19533">
        <ele>930</ele>
        <time>2018-05-11T08:32:00Z</time>
      </trkpt>
      <trkpt lat="46.05006" lon="6.19506">
        <ele>929</ele>
        <time>2018-05-11T08:32:02Z</time>
      </trkpt>
      <trkpt lat="46.04994" lon="6.19483">
        <ele>928</ele>
        <time>2018-05-11T08:32:04Z</time>
      </trkpt>
      <trkpt lat="46.04979" lon="6.19462">
        <ele>928</ele>
        <time>2018-05-11T08:32:06Z</time>
      </trkpt>
      <trkpt lat="46.04963" lon="6.19441">
        <ele>926</ele>
        <time>2018-05-11T08:32:08Z</time>
      </trkpt>
      <trkpt lat="46.04947" lon="6.19419">
        <ele>926</ele>
        <time>2018-05-11T08:32:10Z</time>
      </trkpt>
      <trkpt lat="46.04915" lon="6.19379">
        <ele>924</ele>
        <time>2018-05-11T08:32:14Z</time>
      </trkpt>
      <trkpt lat="46.04882" lon="6.19338">
        <ele>922</ele>
        <time>2018-05-11T08:32:18Z</time>
      </trkpt>
      <trkpt lat="46.04866" lon="6.19318">
        <ele>921</ele>
        <time>2018-05-11T08:32:20Z</time>
      </trkpt>
      <trkpt lat="46.04817" lon="6.19321">
        <ele>921</ele>
        <time>2018-05-11T08:32:25Z</time>
      </trkpt>
      <trkpt lat="46.04807" lon="6.19341">
        <ele>921</ele>
        <time>2018-05-11T08:32:27Z</time>
      </trkpt>
      <trkpt lat="46.04798" lon="6.19361">
        <ele>921</ele>
        <time>2018-05-11T08:32:29Z</time>
      </trkpt>
      <trkpt lat="46.0479" lon="6.19377">
        <ele>922</ele>
        <time>2018-05-11T08:32:31Z</time>
      </trkpt>
      <trkpt lat="46.04782" lon="6.19396">
        <ele>922</ele>
        <time>2018-05-11T08:32:33Z</time>
      </trkpt>
      <trkpt lat="46.04771" lon="6.19422">
        <ele>921</ele>
        <time>2018-05-11T08:32:36Z</time>
      </trkpt>
      <trkpt lat="46.04767" lon="6.19431">
        <ele>921</ele>
        <time>2018-05-11T08:32:37Z</time>
      </trkpt>
      <trkpt lat="46.04762" lon="6.19438">
        <ele>920</ele>
        <time>2018-05-11T08:32:38Z</time>
      </trkpt>
      <trkpt lat="46.04756" lon="6.19444">
        <ele>919</ele>
        <time>2018-05-11T08:32:39Z</time>
      </trkpt>
      <trkpt lat="46.04742" lon="6.1945">
        <ele>919</ele>
        <time>2018-05-11T08:32:41Z</time>
      </trkpt>
      <trkpt lat="46.04728" lon="6.19449">
        <ele>917</ele>
        <time>2018-05-11T08:32:43Z</time>
      </trkpt>
      <trkpt lat="46.04721" lon="6.19444">
        <ele>918</ele>
        <time>2018-05-11T08:32:44Z</time>
      </trkpt>
      <trkpt lat="46.04709" lon="6.19427">
        <ele>918</ele>
        <time>2018-05-11T08:32:46Z</time>
      </trkpt>
      <trkpt lat="46.04697" lon="6.19409">
        <ele>916</ele>
        <time>2018-05-11T08:32:48Z</time>
      </trkpt>
      <trkpt lat="46.04691" lon="6.194">
        <ele>917</ele>
        <time>2018-05-11T08:32:49Z</time>
      </trkpt>
      <trkpt lat="46.04686" lon="6.1939">
        <ele>916</ele>
        <time>2018-05-11T08:32:50Z</time>
      </trkpt>
      <trkpt lat="46.0468" lon="6.19365">
        <ele>913</ele>
        <time>2018-05-11T08:32:52Z</time>
      </trkpt>
      <trkpt lat="46.04678" lon="6.19351">
        <ele>912</ele>
        <time>2018-05-11T08:32:53Z</time>
      </trkpt>
      <trkpt lat="46.04677" lon="6.19324">
        <ele>911</ele>
        <time>2018-05-11T08:32:55Z</time>
      </trkpt>
      <trkpt lat="46.04675" lon="6.19294">
        <ele>910</ele>
        <time>2018-05-11T08:32:57Z</time>
      </trkpt>
      <trkpt lat="46.04672" lon="6.19266">
        <ele>908</ele>
        <time>2018-05-11T08:32:59Z</time>
      </trkpt>
      <trkpt lat="46.04665" lon="6.19223">
        <ele>908</ele>
        <time>2018-05-11T08:33:02Z</time>
      </trkpt>
      <trkpt lat="46.04655" lon="6.19164">
        <ele>906</ele>
        <time>2018-05-11T08:33:06Z</time>
      </trkpt>
      <trkpt lat="46.04644" lon="6.19104">
        <ele>903</ele>
        <time>2018-05-11T08:33:10Z</time>
      </trkpt>
      <trkpt lat="46.04634" lon="6.19043">
        <ele>901</ele>
        <time>2018-05-11T08:33:14Z</time>
      </trkpt>
      <trkpt lat="46.0463" lon="6.1901">
        <ele>901</ele>
        <time>2018-05-11T08:33:16Z</time>
      </trkpt>
      <trkpt lat="46.04631" lon="6.18994">
        <ele>901</ele>
        <time>2018-05-11T08:33:17Z</time>
      </trkpt>
      <trkpt lat="46.04637" lon="6.18961">
        <ele>899</ele>
        <time>2018-05-11T08:33:19Z</time>
      </trkpt>
      <trkpt lat="46.04644" lon="6.1893">
        <ele>898</ele>
        <time>2018-05-11T08:33:21Z</time>
      </trkpt>
      <trkpt lat="46.04646" lon="6.18915">
        <ele>897</ele>
        <time>2018-05-11T08:33:22Z</time>
      </trkpt>
      <trkpt lat="46.04646" lon="6.18899">
        <ele>897</ele>
        <time>2018-05-11T08:33:23Z</time>
      </trkpt>
      <trkpt lat="46.04644" lon="6.18883">
        <ele>896</ele>
        <time>2018-05-11T08:33:24Z</time>
      </trkpt>
      <trkpt lat="46.04633" lon="6.18854">
        <ele>896</ele>
        <time>2018-05-11T08:33:26Z</time>
      </trkpt>
      <trkpt lat="46.04622" lon="6.18828">
        <ele>895</ele>
        <time>2018-05-11T08:33:28Z</time>
      </trkpt>
      <trkpt lat="46.04605" lon="6.18791">
        <ele>893</ele>
        <time>2018-05-11T08:33:31Z</time>
      </trkpt>
      <trkpt lat="46.04595" lon="6.18764">
        <ele>892</ele>
        <time>2018-05-11T08:33:33Z</time>
      </trkpt>
      <trkpt lat="46.04591" lon="6.18749">
        <ele>892</ele>
        <time>2018-05-11T08:33:34Z</time>
      </trkpt>
      <trkpt lat="46.04586" lon="6.18719">
        <ele>891</ele>
        <time>2018-05-11T08:33:36Z</time>
      </trkpt>
      <trkpt lat="46.04576" lon="6.18659">
        <ele>888</ele>
        <time>2018-05-11T08:33:40Z</time>
      </trkpt>
      <trkpt lat="46.04566" lon="6.18597">
        <ele>886</ele>
        <time>2018-05-11T08:33:44Z</time>
      </trkpt>
      <trkpt lat="46.04559" lon="6.1855">
        <ele>884</ele>
        <time>2018-05-11T08:33:47Z</time>
      </trkpt>
      <trkpt lat="46.04554" lon="6.1852">
        <ele>884</ele>
        <time>2018-05-11T08:33:49Z</time>
      </trkpt>
      <trkpt lat="46.04554" lon="6.18504">
        <ele>883</ele>
        <time>2018-05-11T08:33:50Z</time>
      </trkpt>
      <trkpt lat="46.04556" lon="6.18488">
        <ele>883</ele>
        <time>2018-05-11T08:33:51Z</time>
      </trkpt>
      <trkpt lat="46.04563" lon="6.18478">
        <ele>883</ele>
        <time>2018-05-11T08:33:52Z</time>
      </trkpt>
      <trkpt lat="46.04567" lon="6.18463">
        <ele>881</ele>
        <time>2018-05-11T08:33:53Z</time>
      </trkpt>
      <trkpt lat="46.04586" lon="6.18446">
        <ele>879</ele>
        <time>2018-05-11T08:33:55Z</time>
      </trkpt>
      <trkpt lat="46.04595" lon="6.18437">
        <ele>879</ele>
        <time>2018-05-11T08:33:56Z</time>
      </trkpt>
      <trkpt lat="46.04613" lon="6.18427">
        <ele>878</ele>
        <time>2018-05-11T08:33:58Z</time>
      </trkpt>
      <trkpt lat="46.04632" lon="6.18418">
        <ele>877</ele>
        <time>2018-05-11T08:34:00Z</time>
      </trkpt>
      <trkpt lat="46.0464" lon="6.18411">
        <ele>877</ele>
        <time>2018-05-11T08:34:01Z</time>
      </trkpt>
      <trkpt lat="46.04646" lon="6.18383">
        <ele>876</ele>
        <time>2018-05-11T08:34:03Z</time>
      </trkpt>
      <trkpt lat="46.04648" lon="6.18371">
        <ele>875</ele>
        <time>2018-05-11T08:34:04Z</time>
      </trkpt>
      <trkpt lat="46.04656" lon="6.18351">
        <ele>873</ele>
        <time>2018-05-11T08:34:06Z</time>
      </trkpt>
      <trkpt lat="46.04668" lon="6.18339">
        <ele>872</ele>
        <time>2018-05-11T08:34:08Z</time>
      </trkpt>
      <trkpt lat="46.04674" lon="6.18333">
        <ele>872</ele>
        <time>2018-05-11T08:34:09Z</time>
      </trkpt>
      <trkpt lat="46.04681" lon="6.18332">
        <ele>872</ele>
        <time>2018-05-11T08:34:10Z</time>
      </trkpt>
      <trkpt lat="46.04692" lon="6.18322">
        <ele>871</ele>
        <time>2018-05-11T08:34:12Z</time>
        <extensions>
          <visugpx:TrkExtension xmlns:visugpx="https://www.visugpx.com/editgpx/">
            <visugpx:node>1</visugpx:node>
            </visugpx:TrkExtension>
        </extensions>
      </trkpt>
    </trkseg>
  </trk>
</gpx>